Date StartTime U_cm/s V_cm/s W_cm/s Ustd_cm/s Vstd_cm/s Wstd_cm/s Uvar_(cm/s)^2 Vvar_(cm/s)^2 Wvar_(cm/s)^2 KE_(m/s)^2 TurbulentKE_(m/s)^2 HorizWindSpeed_cm/s FrictionSpeec_cm/s DragCoef SpeedOfSound_m/s SonicTemperature_C Pressure_mb 
12/18/2013  00:00:00      -99.162      -58.598      -11.809       26.316       20.081       15.450      692.532      403.248      238.711        0.737        0.067      115.182        8.169        0.005      331.186       -0.959      864.841
12/18/2013  00:01:00      -50.043       -2.260       -3.538       18.337       23.530       10.109      336.230      553.662      102.202        0.176        0.050       50.094       10.468        0.044      331.226       -0.897      864.774
12/18/2013  00:02:00      -50.697       -4.122       -7.565       11.826       17.261        9.819      139.843      297.940       96.403        0.159        0.027       50.864        7.972        0.025      331.316       -0.747      864.725
12/18/2013  00:03:00      -10.243      -21.665        1.809       27.766       10.952       14.706      770.928      119.949      216.253        0.084        0.055       23.964       18.518        0.597      331.379       -0.643      864.744
12/18/2013  00:04:00      -16.002      -18.145        7.840       18.904       11.229       13.570      357.368      126.080      184.138        0.066        0.033       24.193       10.220        0.178      331.454       -0.521      864.757
12/18/2013  00:05:00      -32.185       -5.472       -9.332       18.715        8.679       10.168      350.250       75.329      103.395        0.084        0.026       32.647        7.009        0.046      331.291       -0.787      864.754
12/18/2013  00:06:00        3.326        5.563        9.733       14.520        9.816        8.923      210.830       96.356       79.622        0.026        0.019        6.481        8.747        1.821      331.334       -0.716      864.707
12/18/2013  00:07:00       20.968        8.716       -1.493       14.824       12.929        8.819      219.748      167.150       77.774        0.049        0.023       22.707       11.623        0.262      331.486       -0.468      864.684
12/18/2013  00:08:00      -45.115      -22.063       -7.978       34.165       16.075       11.309     1167.254      258.398      127.903        0.207        0.078       50.221        7.446        0.022      331.438       -0.546      864.714
12/18/2013  00:09:00      -86.966      -18.803      -10.382       28.848       16.128        9.288      832.233      260.103       86.266        0.460        0.059       88.975        6.577        0.005      331.248       -0.858      864.712
12/18/2013  00:10:00      -36.743       21.430       -6.063       19.502        9.447        9.610      380.337       89.240       92.357        0.120        0.028       42.536        5.553        0.017      331.299       -0.776      864.637
12/18/2013  00:11:00       -0.149        9.392        1.987       12.940       15.414        6.533      167.431      237.584       42.684        0.027        0.022        9.393        8.320        0.785      331.780        0.017      864.594
12/18/2013  00:12:00      -46.052      -29.159       -0.123       30.244       23.603       14.832      914.705      557.116      219.976        0.233        0.085       54.507       17.498        0.103      331.370       -0.658      864.662
12/18/2013  00:13:00      -36.161        1.703       -3.842       18.005       20.003       11.458      324.174      400.137      131.275        0.109        0.043       36.201        1.589        0.002      331.233       -0.883      864.652
12/18/2013  00:14:00      -48.335        6.673      -10.543       10.058       11.297        6.378      101.166      127.620       40.676        0.138        0.013       48.793        3.901        0.006      331.291       -0.788      864.621
12/18/2013  00:15:00      -48.604      -22.716       -8.315        8.255        7.420        6.336       68.152       55.063       40.142        0.156        0.008       53.651        3.896        0.005      331.379       -0.646      864.652
12/18/2013  00:16:00      -59.761      -21.974       -9.941       10.580       11.633        8.405      111.945      135.331       70.640        0.224        0.016       63.673        5.691        0.008      331.288       -0.791      864.661
12/18/2013  00:17:00      -42.534       -0.940      -12.713        7.116        7.333        5.179       50.634       53.780       26.821        0.105        0.007       42.545        4.456        0.011      331.328       -0.727      864.644
12/18/2013  00:18:00      -53.046        6.813      -10.263        7.615        5.746        3.578       57.983       33.015       12.806        0.153        0.005       53.482        2.284        0.002      331.372       -0.656      864.656
12/18/2013  00:19:00      -40.503       -0.491       -4.358       10.702        6.776        7.087      114.534       45.914       50.229        0.094        0.011       40.506        4.118        0.010      331.305       -0.765      864.660
12/18/2013  00:20:00      -10.233        3.878       -2.785       10.665        5.609        7.901      113.751       31.458       62.427        0.017        0.010       10.943        6.901        0.398      331.349       -0.692      864.623
12/18/2013  00:21:00      -65.177      -10.987      -10.690       21.678       14.323        8.376      469.941      205.144       70.159        0.261        0.037       66.097       10.558        0.026      331.390       -0.625      864.650
12/18/2013  00:22:00      -79.907      -16.194       -8.446       11.875        9.176        8.069      141.013       84.204       65.106        0.350        0.015       81.532        5.759        0.005      331.299       -0.775      864.677
12/18/2013  00:23:00      -63.412       -8.219       -5.910       19.737       12.771        9.444      389.566      163.099       89.197        0.238        0.032       63.942        9.237        0.021      331.195       -0.947      864.643
12/18/2013  00:24:00      -27.091        1.755       -4.350       24.757        9.709       10.827      612.933       94.267      117.227        0.079        0.041       27.148        9.671        0.127      331.227       -0.894      864.614
12/18/2013  00:25:00        7.313        5.893        4.692       15.427        5.347        7.231      237.994       28.594       52.282        0.021        0.016        9.392        6.835        0.530      331.441       -0.541      864.600
12/18/2013  00:26:00       25.086        5.532        0.736       15.866       10.292        9.152      251.729      105.927       83.759        0.055        0.022       25.689        5.553        0.047      331.501       -0.445      864.591
12/18/2013  00:27:00      -65.113      -19.864       -7.443       31.966       15.525       10.359     1021.848      241.028      107.316        0.303        0.069       68.075       12.863        0.036      331.333       -0.719      864.618
12/18/2013  00:28:00      -68.929       -1.169      -13.291       26.079       16.754       10.031      680.106      280.689      100.618        0.300        0.053       68.938       11.189        0.026      331.127       -1.060      864.596
12/18/2013  00:29:00      -23.931       11.832       -7.432       16.308       10.653        7.468      265.935      113.495       55.769        0.060        0.022       26.697        7.847        0.086      331.383       -0.639      864.548
12/18/2013  00:30:00      -16.663      -26.837       -8.131       18.233       27.290       10.274      332.456      744.726      105.556        0.112        0.059       31.589       10.107        0.102      331.386       -0.632      864.592
12/18/2013  00:31:00      -87.346      -24.833        0.815       35.906       29.569       14.607     1289.245      874.298      213.362        0.531        0.119       90.808       12.492        0.019      331.072       -1.149      864.625
12/18/2013  00:32:00      -56.920       35.383      -11.384       18.892       16.806        9.711      356.913      282.433       94.303        0.268        0.037       67.021        6.167        0.008      331.133       -1.048      864.527
12/18/2013  00:33:00      -40.054       -6.793      -10.957       23.530       21.089       11.097      553.677      444.761      123.134        0.145        0.056       40.625        8.856        0.048      331.400       -0.609      864.509
12/18/2013  00:34:00      -75.810      -18.882      -15.818       19.595       13.537        9.571      383.950      183.260       91.614        0.351        0.033       78.126        9.621        0.015      331.062       -1.165      864.545
12/18/2013  00:35:00      -31.074      -15.186       -5.387        6.534        6.197        4.715       42.688       38.407       22.227        0.066        0.005       34.586        2.302        0.004      331.149       -1.023      864.535
12/18/2013  00:36:00      -43.365      -17.040      -11.931       14.014        9.963        6.353      196.403       99.265       40.361        0.132        0.017       46.592        5.644        0.015      331.202       -0.937      864.527
12/18/2013  00:37:00      -49.217      -19.042      -19.639       11.212       13.445       10.124      125.712      180.755      102.491        0.179        0.020       52.772        6.341        0.014      331.200       -0.939      864.523
12/18/2013  00:38:00      -31.828      -32.427       -7.740       23.513       15.634       12.774      552.849      244.429      163.178        0.154        0.048       45.437       11.682        0.066      331.144       -1.032      864.530
12/18/2013  00:39:00      -78.417      -39.751       -7.603       19.967       14.751       10.863      398.670      217.602      118.003        0.426        0.037       87.917        8.809        0.010      331.067       -1.157      864.554
12/18/2013  00:40:00      -78.098      -36.601       -6.651       12.483       10.396        8.059      155.813      108.078       64.949        0.391        0.016       86.249        4.322        0.003      331.075       -1.144      864.560
12/18/2013  00:41:00      -80.163       19.622       -4.406       20.871       31.861       14.402      435.606     1015.153      207.421        0.424        0.083       82.530       12.355        0.022      331.110       -1.087      864.516
12/18/2013  00:42:00      -37.802       29.904       -3.637       20.706       18.351       12.506      428.733      336.742      156.409        0.163        0.046       48.201        6.466        0.018      331.574       -0.322      864.437
12/18/2013  00:43:00      -75.443      -14.276      -10.660       13.465       24.615       10.424      181.294      605.900      108.651        0.345        0.045       76.782        8.304        0.012      331.212       -0.918      864.455
12/18/2013  00:44:00      -76.513      -36.646      -13.743       16.297       17.995       10.646      265.592      323.819      113.337        0.404        0.035       84.836        7.892        0.009      331.121       -1.067      864.489
12/18/2013  00:45:00      -37.156        6.198      -10.823       15.737        8.632        9.339      247.658       74.507       87.210        0.097        0.020       37.670        6.575        0.030      331.127       -1.060      864.448
12/18/2013  00:46:00      -65.542      -16.825      -10.921       21.656       24.076       10.861      468.963      579.643      117.971        0.293        0.058       67.667        7.862        0.013      331.269       -0.825      864.445
12/18/2013  00:47:00      -93.624      -35.906      -13.539       18.728       14.228       12.300      350.737      202.423      151.286        0.547        0.035      100.273        6.381        0.004      331.083       -1.131      864.451
12/18/2013  00:48:00      -91.360      -28.900      -17.567       19.450       20.848       12.578      378.303      434.630      158.205        0.523        0.049       95.822        7.287        0.006      331.092       -1.116      864.449
12/18/2013  00:49:00      -75.806      -30.660       -6.476       14.017       19.643       13.433      196.479      385.845      180.447        0.375        0.038       81.771       10.308        0.016      331.069       -1.154      864.468
12/18/2013  00:50:00      -53.577       -0.553       -3.266       22.126       16.169       12.042      489.555      261.425      145.021        0.189        0.045       53.580       11.329        0.045      331.066       -1.160      864.424
12/18/2013  00:51:00      -62.940        8.966      -10.426       25.924       13.792        8.754      672.063      190.229       76.640        0.254        0.047       63.575        6.805        0.011      331.184       -0.965      864.397
12/18/2013  00:52:00      -50.898        0.146       -9.864       11.829       11.721        6.691      139.934      137.393       44.773        0.150        0.016       50.899        3.477        0.005      331.328       -0.728      864.412
12/18/2013  00:53:00      -77.049      -56.575       -5.719       29.507       23.406       18.775      870.669      547.846      352.514        0.547        0.089       95.589        8.751        0.008      331.232       -0.887      864.434
12/18/2013  00:54:00      -40.781      -22.598        2.584       37.322       37.834       19.083     1392.918     1431.445      364.153        0.268        0.159       46.624       14.853        0.101      331.129       -1.057      864.400
12/18/2013  00:55:00      -72.403        2.040       -8.072       16.579       16.912       11.705      274.877      286.028      137.014        0.300        0.035       72.432        8.658        0.014      331.051       -1.185      864.337
12/18/2013  00:56:00      -73.690      -30.579      -11.811       15.391       18.088        8.122      236.871      327.192       65.960        0.357        0.032       79.783        2.796        0.001      331.134       -1.047      864.351
12/18/2013  00:57:00     -103.190      -39.352      -11.247       29.844       17.810       11.350      890.682      317.199      128.827        0.683        0.067      110.438       11.811        0.011      331.229       -0.890      864.362
12/18/2013  00:58:00     -105.165        4.566      -13.180       10.802       10.670        7.438      116.687      113.858       55.326        0.577        0.014      105.264        5.209        0.002      331.255       -0.847      864.329
12/18/2013  00:59:00     -110.678      -15.504      -14.479       11.162       22.241       12.333      124.589      494.661      152.101        0.674        0.039      111.759       10.291        0.008      331.218       -0.909      864.327
12/18/2013  01:00:00     -104.164      -50.639       -9.408       31.207       20.318       16.562      973.863      412.820      274.309        0.758        0.083      115.821       11.879        0.011      331.132       -1.050      864.349
12/18/2013  01:01:00      -66.588      -29.941        2.593       22.661       15.823       19.236      513.504      250.359      370.006        0.324        0.057       73.010       17.224        0.056      331.082       -1.131      864.354
12/18/2013  01:02:00      -63.884        5.046       -1.093       23.450       18.674       13.013      549.918      348.709      169.350        0.259        0.053       64.083       11.156        0.030      331.081       -1.136      864.313
12/18/2013  01:03:00      -70.881       -2.392       -6.347       31.563       27.467       19.050      996.245      754.411      362.888        0.359        0.106       70.922       14.510        0.042      331.099       -1.105      864.292
12/18/2013  01:04:00      -86.408       -1.689        1.470       52.494       31.748       25.967     2755.599     1007.931      674.294        0.595        0.222       86.424       28.710        0.110      331.077       -1.140      864.327
12/18/2013  01:05:00      -63.835       15.573        5.655       37.873       27.512       21.101     1434.370      756.915      445.249        0.349        0.132       65.707       15.382        0.055      331.021       -1.232      864.333
12/18/2013  01:06:00      -23.261        2.687        2.348       43.293       13.875       13.365     1874.294      192.519      178.627        0.140        0.112       23.415       18.799        0.645      331.103       -1.097      864.311
12/18/2013  01:07:00     -107.908      -19.642       -5.390       55.417       36.014       24.926     3071.080     1297.034      621.294        0.852        0.249      109.681       29.349        0.072      331.015       -1.242      864.319
12/18/2013  01:08:00     -102.959      -19.420       -0.316       40.684       33.418       23.169     1655.195     1116.732      536.814        0.714        0.165      104.774       22.283        0.045      330.962       -1.329      864.325
12/18/2013  01:09:00      -80.569      -16.402       -9.216       37.196       21.348       18.539     1383.537      455.735      343.681        0.451        0.109       82.222       19.838        0.058      330.932       -1.379      864.297
12/18/2013  01:10:00      -27.013      -10.709       10.014       40.838       24.992       20.230     1667.756      624.582      409.248        0.182        0.135       29.058       23.023        0.628      331.039       -1.202      864.270
12/18/2013  01:11:00      -30.966      -29.138        4.714       35.319       23.453       16.763     1247.406      550.032      281.003        0.195        0.104       42.519       19.759        0.216      331.080       -1.137      864.269
12/18/2013  01:12:00      -94.986      -28.499       -7.713       24.336       20.885       12.659      592.251      436.180      160.261        0.554        0.059       99.169        8.960        0.008      331.042       -1.200      864.284
12/18/2013  01:13:00     -106.177      -22.340       -9.724       23.629       31.819       13.007      558.324     1012.473      169.189        0.680        0.087      108.502       10.982        0.010      331.009       -1.251      864.285
12/18/2013  01:14:00      -54.218      -43.264       -5.817       29.652       26.172       18.234      879.223      684.981      332.470        0.337        0.095       69.364       14.812        0.046      331.027       -1.224      864.294
12/18/2013  01:15:00      -33.066      -20.487       -3.995       26.575       16.948       12.928      706.209      287.230      167.122        0.134        0.058       38.899       10.258        0.070      331.045       -1.193      864.282
12/18/2013  01:16:00      -29.877      -25.614       -9.677       18.729       22.312        9.846      350.774      497.822       96.945        0.129        0.047       39.353        7.355        0.035      331.079       -1.138      864.285
12/18/2013  01:17:00      -51.442      -34.415        2.895       24.983       18.035       17.829      624.163      325.276      317.858        0.255        0.063       61.893       15.634        0.064      331.060       -1.169      864.306
12/18/2013  01:18:00      -98.554       -9.334       -8.609       21.246       17.881       14.289      451.371      319.717      204.187        0.542        0.049       98.995       14.447        0.021      330.995       -1.276      864.299
12/18/2013  01:19:00     -100.713      -12.527      -10.274       15.764       17.737        9.661      248.506      314.601       93.339        0.553        0.033      101.489        9.822        0.009      331.001       -1.266      864.268
12/18/2013  01:20:00      -82.969       -4.803       -3.562       18.949       30.575       13.076      359.062      934.839      170.971        0.419        0.073       83.108       13.357        0.026      331.047       -1.189      864.255
12/18/2013  01:21:00      -27.400        8.563       -3.897       26.251        8.569        9.100      689.093       73.427       82.811        0.084        0.042       28.707       12.935        0.203      331.102       -1.100      864.221
12/18/2013  01:22:00       42.014       13.867        1.242       17.576        9.962       10.742      308.911       99.250      115.389        0.124        0.026       44.243        9.172        0.043      331.317       -0.744      864.208
12/18/2013  01:23:00       27.955       12.881        3.568       10.174        6.902        9.252      103.517       47.632       85.600        0.060        0.012       30.780        2.761        0.008      331.244       -0.866      864.244
12/18/2013  01:24:00       35.600       34.461        9.027       13.842       13.328       10.420      191.593      177.648      108.587        0.151        0.024       49.547        4.003        0.007      331.175       -0.980      864.251
12/18/2013  01:25:00       50.832       41.726       -4.479       19.887       15.357       10.762      395.485      235.823      115.814        0.255        0.037       65.765        8.007        0.015      331.053       -1.181      864.178
12/18/2013  01:26:00       11.791       18.068       -5.269       13.934       14.564       12.544      194.166      212.115      157.360        0.053        0.028       21.575        9.212        0.182      331.047       -1.190      864.149
12/18/2013  01:27:00       44.497       28.928        6.380       12.752       13.407       12.296      162.618      179.746      151.193        0.168        0.025       53.074        5.100        0.009      331.076       -1.142      864.141
12/18/2013  01:28:00       51.448       38.197        0.609       14.095       13.350       12.135      198.661      178.213      147.253        0.232        0.026       64.077        9.130        0.020      331.077       -1.140      864.125
12/18/2013  01:29:00       28.479       39.500       -4.339       15.239       19.497       15.106      232.222      380.129      228.180        0.162        0.042       48.696       10.033        0.042      331.030       -1.217      864.104
12/18/2013  01:30:00       50.923       34.294        8.734       17.869       11.834       10.808      319.318      140.039      116.822        0.221        0.029       61.394        6.320        0.011      331.094       -1.111      864.087
12/18/2013  01:31:00       17.344       22.713        5.546       16.674       10.533        6.834      278.039      110.954       46.709        0.064        0.022       28.578        6.500        0.052      331.083       -1.132      864.073
12/18/2013  01:32:00        1.828       37.047       -2.153        6.892        4.914        4.760       47.495       24.151       22.656        0.074        0.005       37.092        1.577        0.002      331.283       -0.800      864.076
12/18/2013  01:33:00       35.837       21.190        7.599       21.476       10.707        7.491      461.226      114.647       56.118        0.121        0.032       41.633        6.024        0.021      331.271       -0.820      864.074
12/18/2013  01:34:00       43.039       13.541       13.399       30.567       13.984       13.684      934.347      195.562      187.262        0.177        0.066       45.119       17.123        0.144      331.218       -0.907      864.075
12/18/2013  01:35:00       -8.062       -2.065        7.262        9.821       23.565       14.064       96.455      555.329      197.784        0.049        0.042        8.322       11.554        1.927      331.220       -0.904      864.130
12/18/2013  01:36:00       17.965        1.924       15.119       13.599       26.709       18.381      184.926      713.389      337.878        0.090        0.062       18.068       20.605        1.300      331.270       -0.822      864.165
12/18/2013  01:37:00        2.796       25.616       41.684       11.277       22.359       14.294      127.169      499.912      204.329        0.162        0.042       25.768       16.656        0.418      331.234       -0.882      864.148
12/18/2013  01:38:00        4.278      -17.292       12.341       20.318       18.998       14.147      412.827      360.936      200.135        0.072        0.049       17.813       11.322        0.404      331.229       -0.889      864.148
12/18/2013  01:39:00      -38.315       -7.101       -0.549       19.425       11.554        7.969      377.312      133.499       63.502        0.105        0.029       38.968        6.762        0.030      331.044       -1.195      864.134
12/18/2013  01:40:00      -26.456       -2.811       -3.056       12.936        8.506        4.728      167.341       72.357       22.354        0.049        0.013       26.605        3.587        0.018      330.990       -1.284      864.151
12/18/2013  01:41:00       -7.611       10.423       10.379        7.070        8.046        7.038       49.985       64.731       49.530        0.022        0.008       12.906        3.796        0.087      331.141       -1.035      864.121
12/18/2013  01:42:00      -35.563        5.278       -1.090        7.475        6.755        2.787       55.871       45.626        7.765        0.070        0.005       35.953        1.975        0.003      331.235       -0.878      864.131
12/18/2013  01:43:00      -28.263       -3.498        0.106        8.083        5.570        5.005       65.335       31.029       25.053        0.047        0.006       28.479        2.572        0.008      331.173       -0.984      864.157
12/18/2013  01:44:00      -21.553       -7.222       -3.474        9.465        7.181        5.247       89.580       51.563       27.532        0.035        0.008       22.731        3.824        0.028      331.200       -0.936      864.156
12/18/2013  01:45:00      -25.681       -9.411       -5.650        7.052        8.655        6.940       49.726       74.901       48.158        0.048        0.009       27.351        5.370        0.039      331.216       -0.911      864.153
12/18/2013  01:46:00       -6.538      -24.841       -6.106        8.567       10.272        6.520       73.400      105.524       42.509        0.046        0.011       25.687        2.734        0.011      331.321       -0.739      864.168
12/18/2013  01:47:00       -3.390      -43.617       -6.297       20.194       17.679       12.158      407.816      312.532      147.811        0.141        0.043       43.748       11.200        0.066      331.419       -0.578      864.199
12/18/2013  01:48:00       -1.919        3.532        3.975       29.773       26.408       12.247      886.435      697.405      150.000        0.088        0.087        4.020       11.899        8.763      331.346       -0.698      864.226
12/18/2013  01:49:00       24.987       46.616       40.441       28.772       26.407       27.528      827.834      697.340      757.766        0.336        0.114       52.890        6.469        0.015      331.303       -0.768      864.192
12/18/2013  01:50:00        7.546        5.544       34.823       21.889       19.415       15.974      479.116      376.958      255.154        0.121        0.056        9.364       15.859        2.869      331.334       -0.719      864.191
12/18/2013  01:51:00      -21.092       19.581       32.815       11.523       23.081       19.345      132.774      532.720      374.212        0.147        0.052       28.780       15.972        0.308      331.330       -0.726      864.172
12/18/2013  01:52:00      -40.275      -25.316        0.602       18.669       13.887        9.384      348.534      192.853       88.065        0.145        0.031       47.570        8.921        0.035      331.258       -0.842      864.174
12/18/2013  01:53:00        3.900        5.386       18.156        7.454        7.638        8.691       55.568       58.342       75.529        0.028        0.009        6.650        3.869        0.338      331.317       -0.744      864.141
12/18/2013  01:54:00       -7.990        0.188       -2.251       10.065        4.037        3.287      101.309       16.297       10.806        0.010        0.006        7.992        2.681        0.113      331.310       -0.757      864.125
12/18/2013  01:55:00       -7.308       15.323       11.318        7.650        5.425        7.511       58.518       29.434       56.421        0.028        0.007       16.976        3.893        0.053      331.328       -0.727      864.130
12/18/2013  01:56:00      -16.732       -8.561        2.065       12.864       10.848        7.523      165.471      117.688       56.590        0.035        0.017       18.795        7.115        0.143      331.310       -0.758      864.167
12/18/2013  01:57:00       -1.298       10.820       15.515        6.384       12.326        8.622       40.759      151.940       74.343        0.031        0.013       10.898        7.719        0.502      331.319       -0.741      864.182
12/18/2013  01:58:00       15.587       39.426       21.357       15.165       20.584       15.654      229.992      423.688      245.056        0.158        0.045       42.395       12.551        0.088      331.312       -0.753      864.200
12/18/2013  01:59:00       20.568       28.724        0.389       15.441       16.080       12.260      238.438      258.576      150.300        0.095        0.032       35.329        8.388        0.056      331.223       -0.899      864.216
12/18/2013  02:00:00       -5.564       31.589       -2.375       25.442       14.280       12.821      647.298      203.914      164.372        0.102        0.051       32.075        8.043        0.063      331.109       -1.089      864.226
12/18/2013  02:01:00      -80.668        0.821       -8.993       18.724       10.245        8.878      350.571      104.950       78.824        0.356        0.027       80.673        7.818        0.009      331.150       -1.019      864.243
12/18/2013  02:02:00      -56.141        0.933        2.998       32.000       14.614       13.657     1024.005      213.581      186.506        0.229        0.071       56.149       17.372        0.096      331.068       -1.154      864.223
12/18/2013  02:03:00      -62.341       17.173       -1.598       23.379        8.953        8.670      546.593       80.159       75.175        0.244        0.035       64.663       11.652        0.032      330.999       -1.269      864.180
12/18/2013  02:04:00      -50.530       23.476       -9.024       13.298       12.841       10.044      176.848      164.890      100.886        0.181        0.022       55.717        4.795        0.007      331.127       -1.060      864.180
12/18/2013  02:05:00      -39.131        8.050        1.051       24.988       11.181        9.661      624.387      125.023       93.338        0.122        0.042       39.950       13.947        0.122      331.207       -0.928      864.200
12/18/2013  02:06:00       40.783       40.482       15.223       16.981       18.179       26.088      288.365      330.479      680.571        0.242        0.065       57.463       17.358        0.091      331.212       -0.918      864.179
12/18/2013  02:07:00        6.676       37.052       -4.977       11.133       11.385        8.057      123.938      129.628       64.912        0.088        0.016       37.648        6.972        0.034      331.105       -1.095      864.192
12/18/2013  02:08:00       13.214       46.601       -6.457       12.571       12.638       11.690      158.024      159.731      136.666        0.142        0.023       48.438        5.645        0.014      331.082       -1.133      864.185
12/18/2013  02:09:00       -2.612       52.404      -11.994       13.344        9.852        6.635      178.066       97.067       44.023        0.161        0.016       52.469        6.427        0.015      331.063       -1.163      864.174
12/18/2013  02:10:00      -33.557        5.930       -8.174       24.671       42.928        6.421      608.641     1842.816       41.225        0.186        0.125       34.077        9.990        0.086      331.015       -1.243      864.202
12/18/2013  02:11:00      -78.281      -26.261       -9.760       16.331       16.251       10.263      266.716      264.081      105.337        0.377        0.032       82.568        9.845        0.014      330.845       -1.522      864.198
12/18/2013  02:12:00      -79.848      -15.623      -14.000       12.538       10.956        8.556      157.204      120.025       73.210        0.358        0.018       81.362        7.215        0.008      330.868       -1.485      864.181
12/18/2013  02:13:00      -82.334      -17.473       -8.878       10.557       10.155        5.257      111.444      103.128       27.638        0.370        0.012       84.168        3.627        0.002      330.936       -1.370      864.172
12/18/2013  02:14:00      -78.293      -14.603      -10.320       12.890       11.757        6.622      166.154      138.235       43.847        0.340        0.017       79.643        6.256        0.006      330.969       -1.317      864.161
12/18/2013  02:15:00     -103.910       -3.893       -9.993       23.472       16.860       18.180      550.948      284.263      330.495        0.604        0.058      103.983       17.210        0.027      330.952       -1.345      864.167
12/18/2013  02:16:00     -103.652       -0.732       -7.252       45.759       22.538       22.508     2093.860      507.980      506.619        0.695        0.155      103.654       24.975        0.058      330.906       -1.420      864.180
12/18/2013  02:17:00     -118.078        5.877      -10.765       52.939       37.753       27.030     2802.509     1425.287      730.633        0.952        0.248      118.224       30.424        0.066      330.873       -1.475      864.173
12/18/2013  02:18:00     -112.112        9.252       -7.889       42.763       32.015       24.402     1828.679     1024.961      595.482        0.808        0.172      112.493       19.447        0.030      330.884       -1.456      864.147
12/18/2013  02:19:00      -66.605      -10.717       -0.406       54.550       23.447       17.358     2975.707      549.778      301.308        0.419        0.191       67.462       19.257        0.081      330.856       -1.503      864.137
12/18/2013  02:20:00      -51.626        3.474        3.947       39.695       21.315       16.243     1575.725      454.314      263.821        0.249        0.115       51.743       15.910        0.095      330.911       -1.412      864.117
12/18/2013  02:21:00     -119.236        9.793       -6.060       23.797       24.462       14.109      566.280      598.399      199.066        0.786        0.068      119.638       12.290        0.011      330.982       -1.296      864.098
12/18/2013  02:22:00      -98.196      -32.294       -2.463       25.690       21.317       15.286      659.997      454.409      233.658        0.602        0.067      103.370       12.942        0.016      330.947       -1.354      864.097
12/18/2013  02:23:00      -29.343      -12.320        2.879       21.947        9.408        9.056      481.668       88.512       82.008        0.084        0.033       31.825        7.144        0.050      330.931       -1.380      864.085
12/18/2013  02:24:00      -61.629       -5.148       -5.348       32.195       10.338       10.352     1036.517      106.865      107.156        0.255        0.063       61.844       11.401        0.034      330.965       -1.324      864.077
12/18/2013  02:25:00      -84.006      -13.460      -11.207       10.356       12.927        7.736      107.246      167.103       59.842        0.385        0.017       85.078        4.138        0.002      331.051       -1.184      864.056
12/18/2013  02:26:00      -82.626       -7.250       -8.893       14.342       10.116        9.248      205.680      102.340       85.518        0.368        0.020       82.943        7.187        0.008      331.059       -1.171      864.035
12/18/2013  02:27:00      -50.297       17.679       -7.909       14.682       10.814        5.796      215.562      116.942       33.588        0.164        0.018       53.314        3.337        0.004      330.990       -1.283      864.009
12/18/2013  02:28:00      -57.335      -15.181       -6.812       12.743       22.932        5.906      162.381      525.867       34.887        0.214        0.036       59.311        7.533        0.016      331.069       -1.155      863.995
12/18/2013  02:29:00      -65.592      -37.378       -4.228       15.407       11.462       10.706      237.361      131.383      114.623        0.310        0.024       75.494        9.000        0.014      331.027       -1.221      864.000
12/18/2013  02:30:00      -30.932      -17.043       -4.266       15.168        8.844        9.693      230.063       78.218       93.956        0.083        0.020       35.316        7.734        0.048      331.068       -1.155      863.960
12/18/2013  02:31:00      -68.620       -6.516       -7.204       26.404       17.611       11.570      697.167      310.153      133.865        0.297        0.057       68.929       11.951        0.030      331.055       -1.177      863.945
12/18/2013  02:32:00      -85.244      -27.685       -5.498       16.950       11.567       11.293      287.289      133.790      127.521        0.431        0.027       89.627       10.106        0.013      330.997       -1.273      863.977
12/18/2013  02:33:00      -48.761      -20.650       -0.771       22.960       20.878        8.928      527.145      435.877       79.705        0.192        0.052       52.953       11.129        0.044      330.969       -1.317      863.964
12/18/2013  02:34:00      -42.978       -9.037        2.273       24.540       17.262       13.303      602.190      297.983      176.959        0.151        0.054       43.918       15.240        0.120      330.974       -1.309      863.946
12/18/2013  02:35:00      -89.246      -42.073       -5.923       18.183       15.015       10.014      330.612      225.463      100.278        0.521        0.033       98.666        5.586        0.003      330.951       -1.347      863.970
12/18/2013  02:36:00     -117.286      -48.105       -4.126       21.841       19.835       12.763      477.023      393.423      162.906        0.856        0.052      126.768       11.076        0.008      330.940       -1.366      863.999
12/18/2013  02:37:00      -77.564      -23.558       -3.686       26.042       13.009        9.025      678.161      169.232       81.452        0.376        0.046       81.062        4.000        0.002      331.091       -1.118      863.981
12/18/2013  02:38:00      -31.130      -13.624        1.303       18.871       12.612        9.603      356.107      159.067       92.212        0.088        0.030       33.981       10.701        0.099      331.158       -1.007      863.945
12/18/2013  02:39:00      -80.141      -25.847       -4.831       11.370       21.875        9.440      129.278      478.523       89.110        0.391        0.035       84.206        3.183        0.001      331.228       -0.892      863.957
12/18/2013  02:40:00      -45.384       -3.215        1.183       27.337       10.301       10.516      747.297      106.113      110.590        0.152        0.048       45.498       12.442        0.075      331.108       -1.090      863.933
12/18/2013  02:41:00      -91.793      -25.084       -8.702       19.264       22.630        7.191      371.113      512.111       51.705        0.503        0.047       95.159        8.469        0.008      331.168       -0.990      863.916
12/18/2013  02:42:00      -33.394      -39.254       12.399       50.715       27.448       16.467     2571.975      753.375      271.154        0.320        0.180       51.536       25.294        0.241      331.217       -0.910      863.928
12/18/2013  02:43:00        8.442      -29.655        3.012       11.313       13.585        8.292      127.988      184.562       68.765        0.067        0.019       30.833        4.534        0.022      331.238       -0.875      863.889
12/18/2013  02:44:00      -42.338       -1.727       -5.812       18.951        7.004        7.479      359.146       49.061       55.937        0.115        0.023       42.373        9.394        0.049      331.169       -0.989      863.855
12/18/2013  02:45:00      -45.171      -23.247       -1.041       14.018       17.749        8.434      196.516      315.010       71.129        0.158        0.029       50.802        5.953        0.014      331.161       -1.001      863.862
12/18/2013  02:46:00       -6.333      -13.448        2.731       15.780        9.049        7.730      249.000       81.879       59.757        0.031        0.020       14.864        5.464        0.135      331.175       -0.980      863.853
12/18/2013  02:47:00      -20.729      -15.048       -0.113       16.983       13.941        8.699      288.438      194.359       75.671        0.061        0.028       25.615       11.358        0.197      331.228       -0.891      863.844
12/18/2013  02:48:00      -19.205      -19.239       10.577       31.599       19.620       15.439      998.471      384.961      238.352        0.124        0.081       27.184       18.631        0.470      331.217       -0.908      863.875
12/18/2013  02:49:00      -12.471        3.751       11.750       10.721        8.149        9.843      114.934       66.404       96.887        0.029        0.014       13.023        8.736        0.450      331.168       -0.992      863.861
12/18/2013  02:50:00      -49.788      -20.350       -9.452       14.035       11.538        6.351      196.977      133.124       40.334        0.168        0.019       53.786        4.679        0.008      331.084       -1.129      863.873
12/18/2013  02:51:00      -18.389        6.101        5.795       18.001       10.314       11.376      324.018      106.375      129.411        0.048        0.028       19.374       12.072        0.388      331.051       -1.184      863.883
12/18/2013  02:52:00      -35.798        3.489       -2.508       28.871       10.708       13.177      833.559      114.663      173.637        0.121        0.056       35.967       17.485        0.236      331.123       -1.065      863.859
12/18/2013  02:53:00      -92.980      -17.832       -7.674       12.512        9.144        9.111      156.551       83.617       83.006        0.467        0.016       94.675        7.856        0.007      330.980       -1.301      863.871
12/18/2013  02:54:00      -31.108       -6.639        2.622       26.122       18.129       10.658      682.354      328.647      113.586        0.107        0.056       31.809       14.149        0.198      331.001       -1.265      863.827
12/18/2013  02:55:00      -72.526      -15.851       -1.604       35.600       15.568       10.534     1267.395      242.378      110.968        0.357        0.081       74.238       14.547        0.038      330.988       -1.286      863.817
12/18/2013  02:56:00      -47.502      -11.106        1.944       43.812       12.159       14.314     1919.459      147.830      204.882        0.233        0.114       48.783       19.911        0.167      330.969       -1.318      863.795
12/18/2013  02:57:00       -8.494       -9.396        4.258       15.845        9.082        8.026      251.063       82.485       64.422        0.029        0.020       12.666        7.988        0.398      331.085       -1.128      863.749
12/18/2013  02:58:00       -5.931      -32.743       -2.133        9.665       11.761       11.975       93.421      138.320      143.402        0.074        0.019       33.275        4.293        0.017      331.224       -0.897      863.756
12/18/2013  02:59:00      -63.206      -23.909       -4.405       31.721       10.089        8.088     1006.194      101.795       65.418        0.288        0.059       67.576        5.911        0.008      331.161       -1.003      863.785
12/18/2013  03:00:00      -84.274       -6.348       -8.092       16.683       22.748        8.728      278.329      517.492       76.171        0.404        0.044       84.513        6.365        0.006      330.964       -1.326      863.786
12/18/2013  03:01:00      -72.951      -23.779       -4.512       15.740       17.072       11.120      247.758      291.446      123.645        0.329        0.033       76.728        5.565        0.005      330.880       -1.464      863.799
12/18/2013  03:02:00      -69.661      -38.159       -4.881       17.772       16.502        9.493      315.831      272.321       90.125        0.351        0.034       79.428        3.865        0.002      330.783       -1.624      863.824
12/18/2013  03:03:00      -51.306      -29.299       -9.206       24.107       13.596        9.251      581.148      184.845       85.588        0.221        0.043       59.082        9.612        0.026      330.825       -1.554      863.814
12/18/2013  03:04:00      -45.142      -13.799       -7.055       11.973        8.345        7.726      143.346       69.639       59.694        0.128        0.014       47.204        3.528        0.006      330.797       -1.600      863.784
12/18/2013  03:05:00      -58.390       -2.524       -3.747       14.993       11.323        9.812      224.776      128.220       96.270        0.194        0.022       58.444        4.393        0.006      330.873       -1.475      863.760
12/18/2013  03:06:00      -41.403        2.961       -1.288       11.293        8.546        5.455      127.535       73.038       29.760        0.098        0.012       41.509        6.178        0.022      330.890       -1.447      863.746
12/18/2013  03:07:00      -21.205        7.364       -1.374       14.351        7.106       12.270      205.946       50.500      150.561        0.046        0.020       22.447       12.391        0.305      330.960       -1.333      863.756
12/18/2013  03:08:00      -32.089       -5.236       -5.281       13.192        5.762        9.232      174.041       33.205       85.227        0.069        0.015       32.514        7.376        0.051      330.878       -1.467      863.782
12/18/2013  03:09:00        1.983       -5.465        6.151        6.432       10.262        7.811       41.365      105.315       61.018        0.014        0.010        5.814        2.466        0.180      331.040       -1.201      863.757
12/18/2013  03:10:00      -44.817      -30.114       -6.017       28.790       13.886       11.942      828.874      192.827      142.614        0.206        0.058       53.994        9.374        0.030      331.016       -1.242      863.781
12/18/2013  03:11:00      -89.646      -28.384       -7.954       19.539       16.091       10.428      381.765      258.906      108.745        0.483        0.037       94.032        7.916        0.007      330.857       -1.499      863.779
12/18/2013  03:12:00      -80.294       11.823       -9.087       23.474       14.944       10.252      551.026      223.317      105.104        0.377        0.044       81.160       11.425        0.020      330.812       -1.576      863.732
12/18/2013  03:13:00      -66.744      -11.290       -7.771       19.983       16.055        9.692      399.309      257.752       93.928        0.270        0.038       67.692       10.136        0.022      330.827       -1.551      863.696
12/18/2013  03:14:00      -94.004      -32.825      -15.780       13.483       17.552        8.485      181.783      308.065       71.997        0.536        0.028       99.571        4.847        0.002      330.762       -1.658      863.708
12/18/2013  03:15:00      -49.693       -9.950       -8.945       11.929       13.171        7.793      142.307      173.472       60.737        0.151        0.019       50.680        6.328        0.016      330.757       -1.667      863.680
12/18/2013  03:16:00      -81.779      -21.751      -12.455       17.025       20.563        8.623      289.846      422.849       74.355        0.405        0.039       84.623        8.792        0.011      330.859       -1.500      863.650
12/18/2013  03:17:00     -126.779      -50.989      -18.311       21.489       23.733       14.074      461.791      563.235      198.066        1.012        0.061      136.648        2.296        0.000      330.663       -1.819      863.675
12/18/2013  03:18:00      -53.869       -7.624       -1.849       31.015       20.484       10.657      961.951      419.575      113.563        0.223        0.075       54.406        7.314        0.018      330.667       -1.814      863.655
12/18/2013  03:19:00      -41.077       -3.615       -7.144       16.922       16.525        9.737      286.341      273.092       94.815        0.120        0.033       41.235        7.038        0.029      330.711       -1.742      863.635
12/18/2013  03:20:00      -72.078      -40.442      -15.200       24.481       25.448       11.948      599.336      647.624      142.747        0.423        0.069       82.649        9.413        0.013      330.755       -1.668      863.650
12/18/2013  03:21:00     -128.801      -47.973       -7.126       49.258       38.219       19.505     2426.397     1460.668      380.426        1.160        0.213      137.445       15.330        0.012      330.689       -1.776      863.686
12/18/2013  03:22:00      -65.094        1.718       -2.778       32.724       19.531       16.623     1070.867      381.467      276.331        0.299        0.086       65.117       17.274        0.070      330.642       -1.854      863.648
12/18/2013  03:23:00      -93.697      -13.451       -8.710       44.658       19.011       15.941     1994.376      361.424      254.116        0.582        0.130       94.658       19.425        0.042      330.647       -1.845      863.607
12/18/2013  03:24:00     -120.723      -29.056      -14.313       50.352       25.936       18.575     2535.289      672.666      345.028        0.959        0.178      124.170       17.844        0.021      330.710       -1.743      863.641
12/18/2013  03:25:00      -48.842        3.603       -6.431       34.297       23.433       19.526     1176.275      549.125      381.274        0.227        0.105       48.975       18.285        0.139      330.659       -1.827      863.595
12/18/2013  03:26:00     -105.975      -16.933       -5.500       43.498       37.361       24.202     1892.082     1395.831      585.743        0.771        0.194      107.319       22.104        0.042      330.638       -1.861      863.568
12/18/2013  03:27:00      -80.829      -39.401       -0.751       33.682       35.698       23.534     1134.485     1274.372      553.849        0.552        0.148       89.921       20.382        0.051      330.625       -1.882      863.558
12/18/2013  03:28:00      -87.516       17.399       -9.639       44.704       32.238       22.355     1998.481     1039.320      499.760        0.580        0.177       89.229       22.438        0.063      330.645       -1.850      863.496
12/18/2013  03:29:00      -88.856       28.150       -8.727       25.999       38.253       19.762      675.939     1463.264      390.545        0.565        0.126       93.208       10.368        0.012      330.824       -1.555      863.464
12/18/2013  03:30:00     -109.383      -26.102      -10.728       41.394       37.170       18.530     1713.424     1381.594      343.351        0.810        0.172      112.454       12.086        0.012      330.784       -1.622      863.483
12/18/2013  03:31:00     -136.298      -30.302      -17.249       31.985       37.686       25.616     1023.041     1420.242      656.198        1.145        0.155      139.626       13.896        0.010      330.674       -1.802      863.505
12/18/2013  03:32:00     -129.183      -63.539      -10.903       40.868       42.104       24.742     1670.186     1772.743      612.189        1.245        0.203      143.964       23.133        0.026      330.617       -1.896      863.507
12/18/2013  03:33:00     -163.497      -17.657      -15.260       50.036       49.752       35.674     2503.555     2475.272     1272.662        1.676        0.313      164.448       32.042        0.038      330.597       -1.929      863.508
12/18/2013  03:34:00     -157.650       40.976      -16.961       41.928       43.784       26.487     1757.983     1917.010      701.540        1.560        0.219      162.888       18.399        0.013      330.643       -1.853      863.469
12/18/2013  03:35:00     -165.210       32.833      -16.611       26.953       36.877       18.407      726.488     1359.949      338.830        1.554        0.121      168.441       11.702        0.005      330.815       -1.570      863.434
12/18/2013  03:36:00     -155.569      -29.601      -23.831       45.640       31.534       25.127     2082.989      994.401      631.365        1.468        0.185      158.360       21.848        0.019      330.712       -1.739      863.439
12/18/2013  03:37:00     -119.691       10.923      -12.133       42.812       36.177       21.824     1832.851     1308.795      476.296        0.910        0.181      120.188       19.633        0.027      330.668       -1.812      863.413
12/18/2013  03:38:00     -139.119       10.733      -13.908       43.519       35.348       20.881     1893.932     1249.489      436.031        1.162        0.179      139.532       17.303        0.015      330.771       -1.643      863.418
12/18/2013  03:39:00     -121.176       -0.234      -17.266       35.684       39.828       20.264     1273.363     1586.265      410.642        0.913        0.164      121.176       17.756        0.021      330.734       -1.704      863.424
12/18/2013  03:40:00     -103.301      -42.042       -0.507       40.888       37.659       23.090     1671.813     1418.217      533.133        0.803        0.181      111.529       24.531        0.048      330.695       -1.767      863.440
12/18/2013  03:41:00      -75.178      -19.956        2.475       38.896       37.141       19.764     1512.862     1379.429      390.630        0.467        0.164       77.781       20.355        0.068      330.673       -1.802      863.412
12/18/2013  03:42:00      -84.103      -16.467       -6.832       27.186       37.156       18.821      739.052     1380.578      354.241        0.493        0.124       85.700       14.314        0.028      330.635       -1.865      863.362
12/18/2013  03:43:00      -51.354       -7.977        0.957       31.886       26.090       15.596     1016.696      680.682      243.232        0.232        0.097       51.970       15.752        0.092      330.728       -1.712      863.364
12/18/2013  03:44:00      -97.445      -23.261      -11.936       34.166       34.018       16.840     1167.295     1157.245      283.583        0.639        0.130      100.182       13.394        0.018      330.735       -1.702      863.347
12/18/2013  03:45:00      -82.895      -37.092       -2.746       30.653       22.684       15.100      939.583      514.586      227.995        0.497        0.084       90.815        9.423        0.011      330.809       -1.579      863.336
12/18/2013  03:46:00     -165.257      -34.742       -7.179       35.136       30.258       21.400     1234.557      915.556      457.963        1.559        0.130      168.870       18.980        0.013      330.732       -1.707      863.374
12/18/2013  03:47:00     -111.769       -6.714       -3.604       47.535       26.004       18.092     2259.565      676.234      327.330        0.791        0.163      111.970       17.260        0.024      330.781       -1.626      863.346
12/18/2013  03:48:00      -59.372       22.903        2.906       34.407       14.814       18.439     1183.849      219.450      340.002        0.290        0.087       63.636       14.098        0.049      330.879       -1.466      863.236
12/18/2013  03:49:00     -123.245      -31.550       -7.725       50.190       52.206       19.805     2519.076     2725.514      392.254        1.094        0.282      127.220       16.389        0.017      330.979       -1.303      863.239
12/18/2013  03:50:00     -141.861      -91.455       -1.377       47.580       41.394       26.895     2263.845     1713.470      723.365        1.659        0.235      168.785       18.630        0.012      330.939       -1.366      863.339
12/18/2013  03:51:00      -58.271      -22.737        0.945       40.364       24.342       14.966     1629.284      592.512      223.985        0.318        0.122       62.550       16.705        0.071      330.958       -1.335      863.352
12/18/2013  03:52:00      -70.187       16.170       -1.988       24.743       14.105       11.220      612.197      198.963      125.895        0.306        0.047       72.025       10.986        0.023      330.983       -1.295      863.279
12/18/2013  03:53:00     -111.462       18.808      -12.392       22.150       16.940       10.156      490.637      286.950      103.148        0.691        0.044      113.037        5.128        0.002      330.958       -1.336      863.241
12/18/2013  03:54:00      -61.661      -52.511        3.297       35.693       29.289       19.782     1273.960      857.825      391.324        0.455        0.126       80.990       18.754        0.054      331.048       -1.189      863.305
12/18/2013  03:55:00     -121.644       -6.644      -12.480       24.986       31.961       16.165      624.319     1021.475      261.308        0.845        0.095      121.825       13.201        0.012      330.997       -1.274      863.376
12/18/2013  03:56:00      -85.571       22.471       -5.049       23.335       29.344       17.686      544.541      861.086      312.785        0.479        0.086       88.472       15.119        0.029      330.876       -1.468      863.333
12/18/2013  03:57:00      -96.991       -0.798       -3.872       56.334       41.353       22.884     3173.544     1710.097      523.690        0.741        0.270       96.994       27.090        0.078      330.852       -1.509      863.301
12/18/2013  03:58:00      -41.318      -47.598        5.488       59.369       23.371       17.987     3524.680      546.181      323.541        0.420        0.220       63.030       18.979        0.091      330.904       -1.424      863.340
12/18/2013  03:59:00      -60.559       -1.137       -2.713       32.214       17.974       13.218     1037.718      323.073      174.705        0.261        0.077       60.570        7.163        0.014      330.862       -1.491      863.298
12/18/2013  04:00:00     -106.823       -4.385      -14.297       17.975       20.513       14.952      323.110      420.783      223.570        0.630        0.048      106.913       11.063        0.011      330.824       -1.556      863.252
12/18/2013  04:01:00      -84.072      -37.134        3.319       26.905       24.174       15.700      723.903      584.389      246.495        0.501        0.078       91.908       16.374        0.032      330.844       -1.524      863.243
12/18/2013  04:02:00      -65.274       -1.152       -2.456       15.877       23.844       10.924      252.080      568.514      119.331        0.260        0.047       65.285        7.724        0.014      330.852       -1.509      863.192
12/18/2013  04:03:00      -86.613        8.934       -8.410       18.098       17.416       11.331      327.539      303.313      128.391        0.421        0.038       87.072        6.584        0.006      330.865       -1.487      863.172
12/18/2013  04:04:00      -35.681      -48.956       -0.152       45.653       16.887       16.044     2084.188      285.167      257.408        0.315        0.131       60.579       16.505        0.074      330.959       -1.334      863.188
12/18/2013  04:05:00       20.266      -39.434       11.029       13.351       12.877       13.536      178.241      165.822      183.228        0.131        0.026       44.337        9.269        0.044      330.971       -1.315      863.183
12/18/2013  04:06:00       13.364       -8.526       21.079       11.961       12.017       10.092      143.069      144.400      101.842        0.054        0.019       15.852        8.260        0.272      331.046       -1.192      863.186
12/18/2013  04:07:00       41.433       30.724       10.923       36.443       12.645       20.505     1328.128      159.895      420.448        0.234        0.095       51.581       25.004        0.235      330.921       -1.397      863.136
12/18/2013  04:08:00       28.902       32.248       -4.043       18.333       22.634       15.254      336.090      512.296      232.699        0.149        0.054       43.304       15.939        0.135      330.811       -1.577      863.084
12/18/2013  04:09:00       11.216       69.236      -11.401       16.303       15.864       11.226      265.784      251.655      126.032        0.285        0.032       70.139        8.004        0.013      330.692       -1.773      863.067
12/18/2013  04:10:00       -2.072       68.898       -1.142        9.775       11.805        7.663       95.545      139.369       58.717        0.252        0.015       68.929        6.260        0.008      330.788       -1.616      863.058
12/18/2013  04:11:00       12.300       56.215        2.502       11.148       27.156       16.328      124.288      737.449      266.613        0.222        0.056       57.545       17.463        0.092      330.709       -1.745      863.044
12/18/2013  04:12:00       57.004       44.565       -2.604       25.606       18.105       11.587      655.667      327.798      134.252        0.318        0.056       72.356        9.398        0.017      330.655       -1.833      863.008
12/18/2013  04:13:00      132.503       62.287       -4.757       26.762       20.053       15.227      716.220      402.125      231.852        1.140        0.068      146.413       10.711        0.005      330.578       -1.960      862.974
12/18/2013  04:14:00       32.621       33.911        9.598       36.175       21.345       14.731     1308.637      455.606      217.016        0.214        0.099       47.054        6.141        0.017      330.572       -1.968      863.011
12/18/2013  04:15:00        1.462        4.774       -1.917        9.772        7.563        8.230       95.500       57.197       67.735        0.012        0.011        4.993        6.447        1.667      330.583       -1.950      863.062
12/18/2013  04:16:00       13.749       19.015        8.748        8.700       11.147        8.875       75.694      124.248       78.759        0.045        0.014       23.465        6.282        0.072      330.589       -1.942      863.042
12/18/2013  04:17:00       23.379       36.640       28.297       20.896       15.005       11.943      436.638      225.147      142.641        0.175        0.040       43.463        9.118        0.044      330.596       -1.929      863.002
12/18/2013  04:18:00       26.681       21.650       11.801       18.579       14.804       11.830      345.179      219.172      139.945        0.101        0.035       34.360        5.050        0.022      330.578       -1.959      862.977
12/18/2013  04:19:00      -17.749        5.591       -2.169       17.215        7.549        7.592      296.368       56.983       57.633        0.038        0.021       18.609        8.684        0.218      330.664       -1.817      862.974
12/18/2013  04:20:00       -8.509       10.179       10.918       19.426        8.659       11.592      377.362       74.978      134.371        0.044        0.029       13.267       13.730        1.071      330.738       -1.697      862.948
12/18/2013  04:21:00       48.287       33.252       11.814       15.570       13.286       11.138      242.423      176.524      124.046        0.206        0.027       58.628        3.957        0.005      330.728       -1.715      862.917
12/18/2013  04:22:00       29.007       43.631       35.309       31.207       31.152       21.254      973.855      970.427      451.729        0.319        0.120       52.393        6.071        0.013      330.718       -1.731      862.943
12/18/2013  04:23:00       -5.599      -19.644        6.558       14.066       12.909       17.283      197.848      166.639      298.714        0.056        0.033       20.426        6.187        0.092      330.874       -1.473      862.995
12/18/2013  04:24:00      -11.499      -31.652       -2.774       18.268       22.657       13.154      333.721      513.350      173.021        0.108        0.051       33.676        5.771        0.029      330.897       -1.435      863.000
12/18/2013  04:25:00      -24.527       -6.725        2.130       40.375       27.829       16.112     1630.180      774.458      259.593        0.166        0.133       25.432       18.042        0.503      330.911       -1.412      862.984
12/18/2013  04:26:00       33.975       38.441       17.191       16.640       17.459       14.747      276.893      304.827      217.473        0.186        0.040       51.303       11.413        0.049      330.904       -1.426      862.896
12/18/2013  04:27:00       68.778       27.793       11.074       30.014       28.741       21.260      900.834      826.044      451.976        0.390        0.109       74.181       14.874        0.040      330.883       -1.459      862.829
12/18/2013  04:28:00       -0.595       27.304       49.770       15.580       24.289       14.245      242.741      589.959      202.906        0.213        0.052       27.310       10.337        0.143      330.893       -1.441      862.876
12/18/2013  04:29:00       29.474       48.740       41.195       26.424       15.929       16.408      698.206      253.719      269.208        0.308        0.061       56.959       17.920        0.099      330.844       -1.521      862.859
12/18/2013  04:30:00       44.252       35.911       14.965       21.783       17.013       25.328      474.518      289.439      641.519        0.244        0.070       56.990       15.525        0.074      330.846       -1.518      862.814
12/18/2013  04:31:00      -15.020       -6.532       -3.856       13.990       13.926       10.838      195.720      193.931      117.454        0.040        0.025       16.379        7.968        0.237      330.830       -1.547      862.833
12/18/2013  04:32:00      -14.722        4.266        9.418       21.356       11.024       11.976      456.068      121.523      143.417        0.052        0.036       15.328       14.192        0.857      330.893       -1.443      862.863
12/18/2013  04:33:00       24.188       30.073       19.083       12.215       12.366       13.869      149.208      152.927      192.342        0.117        0.025       38.593       10.487        0.074      330.890       -1.446      862.851
12/18/2013  04:34:00      -42.176       28.853       -6.760       21.131       17.919       12.462      446.533      321.097      155.307        0.179        0.046       51.101       12.246        0.057      330.802       -1.594      862.858
12/18/2013  04:35:00      -35.647       49.269       -0.754       37.016       26.295       21.573     1370.208      691.419      465.381        0.311        0.126       60.812       25.658        0.178      330.811       -1.578      862.810
12/18/2013  04:36:00       30.232       86.563      -10.030       24.279       34.396       21.063      589.480     1183.083      443.664        0.536        0.111       91.691       21.911        0.057      330.862       -1.494      862.700
12/18/2013  04:37:00        5.442      109.447      -23.202       27.124       21.558       14.199      735.726      464.733      201.617        0.697        0.070      109.582       10.862        0.010      330.701       -1.757      862.687
12/18/2013  04:38:00      -58.658       52.738       -9.682       30.381       34.294       24.975      922.992     1176.070      623.745        0.452        0.136       78.880       21.690        0.076      330.782       -1.625      862.729
12/18/2013  04:39:00      -31.580        8.196       -0.965       18.511       11.538       12.239      342.647      133.130      149.800        0.085        0.031       32.626       11.457        0.123      330.732       -1.707      862.706
12/18/2013  04:40:00       17.799       28.240        0.946       27.396       22.244       15.214      750.534      494.808      231.452        0.130        0.074       33.381        6.715        0.040      330.880       -1.463      862.610
12/18/2013  04:41:00       11.218       55.130       -6.582       25.579       28.225       23.792      654.309      796.652      566.058        0.261        0.101       56.260       21.339        0.144      330.747       -1.683      862.569
12/18/2013  04:42:00        8.252       36.731       -8.750       14.827       14.056        9.176      219.826      197.564       84.194        0.100        0.025       37.646       10.147        0.073      330.726       -1.719      862.624
12/18/2013  04:43:00       21.536       20.880        3.546       11.981       14.083       11.698      143.541      198.320      136.840        0.070        0.024       29.996        9.274        0.096      330.805       -1.590      862.661
12/18/2013  04:44:00       33.286       38.912       -0.136       23.076       14.212       10.361      532.495      201.994      107.349        0.173        0.042       51.206        7.486        0.021      330.784       -1.621      862.633
12/18/2013  04:45:00       26.890       51.428      -12.475       13.625       14.805        8.006      185.647      219.202       64.092        0.200        0.023       58.033        5.198        0.008      330.714       -1.737      862.568
12/18/2013  04:46:00       -0.437       32.267       -9.577        6.394       20.739        4.222       40.883      430.095       17.826        0.081        0.024       32.270        5.886        0.033      330.715       -1.736      862.578
12/18/2013  04:47:00        4.232        6.669       11.710       10.867       10.421       19.976      118.083      108.600      399.034        0.041        0.031        7.898       12.044        2.325      330.786       -1.619      862.613
12/18/2013  04:48:00       17.773       45.676       39.033       26.299       16.416       24.421      691.637      269.473      596.409        0.274        0.078       49.012       22.616        0.213      330.762       -1.656      862.585
12/18/2013  04:49:00        5.285       14.875        2.153       11.739        9.654        7.953      137.812       93.202       63.250        0.027        0.015       15.786        7.828        0.246      330.738       -1.697      862.566
12/18/2013  04:50:00       -4.410        2.219        6.029        6.059        3.966        6.940       36.714       15.728       48.161        0.008        0.005        4.936        4.873        0.975      330.858       -1.501      862.603
12/18/2013  04:51:00       -3.123       -0.449       13.021        8.819        7.488       10.191       77.775       56.076      103.863        0.021        0.012        3.155        4.906        2.419      331.000       -1.268      862.632
12/18/2013  04:52:00       -6.591        0.553       13.819       21.647        9.547       13.802      468.583       91.140      190.505        0.049        0.038        6.614       12.716        3.697      331.018       -1.238      862.665
12/18/2013  04:53:00      -24.355       13.444        5.789       19.073       13.604       16.640      363.794      185.066      276.886        0.082        0.041       27.820       13.261        0.227      330.993       -1.279      862.659
12/18/2013  04:54:00       41.247       44.833       12.807       20.843       20.283       19.220      434.448      411.393      369.402        0.255        0.061       60.920       19.373        0.101      330.943       -1.361      862.576
12/18/2013  04:55:00       77.633       42.143       16.867       41.032       24.268       26.635     1683.596      588.948      709.427        0.553        0.149       88.334       24.841        0.079      330.934       -1.374      862.506
12/18/2013  04:56:00       16.391       56.694       69.447       22.152       27.482       12.927      490.703      755.276      167.107        0.486        0.071       59.016       12.950        0.048      330.947       -1.355      862.537
12/18/2013  04:57:00       13.462       17.795       47.495       21.515       21.205       14.083      462.905      449.665      198.345        0.193        0.056       22.314       14.804        0.440      331.036       -1.209      862.584
12/18/2013  04:58:00       17.267       37.031       43.582       21.684       35.648       16.926      470.210     1270.767      286.495        0.280        0.101       40.859       15.845        0.150      330.987       -1.290      862.590
12/18/2013  04:59:00       93.346       61.176       41.510       40.249       31.103       40.535     1619.982      967.409     1643.063        0.920        0.212      111.607       26.517        0.056      330.871       -1.479      862.599
12/18/2013  05:00:00       -1.426       37.553       46.137       19.374       28.464       16.560      375.350      810.180      274.222        0.250        0.073       37.580       14.121        0.141      330.882       -1.461      862.635
12/18/2013  05:01:00       53.700       65.039       10.676       25.167       28.270       26.379      633.376      799.174      695.873        0.468        0.106       84.343       23.923        0.080      330.784       -1.625      862.579
12/18/2013  05:02:00       88.897       68.719       16.879       39.814       33.335       36.516     1585.126     1111.190     1333.396        0.847        0.201      112.361       28.402        0.064      330.786       -1.618      862.536
12/18/2013  05:03:00       58.036       90.656       77.527       42.273       31.268       27.436     1787.041      977.701      752.713        1.056        0.176      107.642       22.587        0.044      330.783       -1.624      862.576
12/18/2013  05:04:00       83.188       69.326       29.084       58.374       35.297       35.260     3407.546     1245.862     1243.260        0.923        0.295      108.288       32.308        0.089      330.785       -1.620      862.585
12/18/2013  05:05:00       -3.981       -9.524       26.999       14.078       24.237       21.085      198.191      587.443      444.575        0.103        0.062       10.322       15.399        2.226      330.938       -1.369      862.617
12/18/2013  05:06:00       40.221       30.397       40.276       28.867       42.416       19.746      833.306     1799.104      389.916        0.359        0.151       50.415       15.993        0.101      330.903       -1.427      862.597
12/18/2013  05:07:00       75.271       50.706        6.935       27.106       25.959       22.878      734.738      673.854      523.381        0.511        0.097       90.757       11.972        0.017      330.782       -1.628      862.534
12/18/2013  05:08:00       48.569       45.092       43.466       26.612       21.145       23.246      708.222      447.091      540.369        0.399        0.085       66.274       11.028        0.028      330.816       -1.570      862.543
12/18/2013  05:09:00       41.613       48.667       36.003       22.854       11.238       15.500      522.291      126.282      240.235        0.314        0.044       64.032       14.962        0.055      330.732       -1.708      862.552
12/18/2013  05:10:00       31.797       57.597       -2.495       21.657       19.568       16.789      469.017      382.909      281.887        0.273        0.057       65.791       16.329        0.062      330.705       -1.751      862.479
12/18/2013  05:11:00       49.748       68.907       -5.276       40.500       31.133       18.095     1640.245      969.237      327.425        0.509        0.147       84.988       13.963        0.027      330.742       -1.690      862.424
12/18/2013  05:12:00      119.289       75.364       26.598       32.083       22.894       27.544     1029.305      524.155      758.698        1.146        0.116      141.101       24.230        0.029      330.738       -1.697      862.394
12/18/2013  05:13:00       56.658       54.307       40.543       36.475       24.825       24.511     1330.427      616.256      600.787        0.517        0.127       78.482        7.754        0.010      330.787       -1.618      862.384
12/18/2013  05:14:00       80.803       63.357        1.016       32.620       24.443       17.589     1064.078      597.440      309.365        0.626        0.099      102.680        8.679        0.007      330.634       -1.868      862.357
12/18/2013  05:15:00       16.617       28.203        2.774       31.688       17.514       17.855     1004.101      306.740      318.792        0.135        0.081       32.735       12.628        0.149      330.680       -1.791      862.352
12/18/2013  05:16:00       -4.853       47.698       -9.389       10.099        8.515        6.980      101.999       72.509       48.725        0.130        0.011       47.944        5.365        0.013      330.702       -1.756      862.362
12/18/2013  05:17:00      -60.458       10.555       -4.341       27.671       16.610       11.155      765.685      275.905      124.441        0.248        0.058       61.373       14.061        0.052      330.760       -1.661      862.390
12/18/2013  05:18:00      -56.556        2.496       -6.744       22.949       15.477        9.525      526.636      239.528       90.726        0.205        0.043       56.611        7.787        0.019      330.796       -1.603      862.397
12/18/2013  05:19:00      -27.401      -14.113        1.555       21.032       10.528       10.157      442.325      110.829      103.162        0.080        0.033       30.821        9.772        0.101      330.861       -1.494      862.388
12/18/2013  05:20:00        7.105       -0.349       18.199       20.510       12.676       11.479      420.647      160.673      131.769        0.055        0.036        7.113       15.144        4.532      330.943       -1.359      862.387
12/18/2013  05:21:00       13.669       33.153       25.429       17.135       14.430       12.348      293.614      208.219      152.476        0.129        0.033       35.860       10.152        0.080      330.904       -1.425      862.404
12/18/2013  05:22:00       -3.497       24.385        7.239        5.787        9.805       12.891       33.486       96.137      166.172        0.048        0.015       24.635        7.447        0.091      330.870       -1.478      862.409
12/18/2013  05:23:00      -36.515       20.216        2.145       28.992        9.646        8.174      840.512       93.040       66.811        0.137        0.050       41.738        9.744        0.055      330.913       -1.408      862.385
12/18/2013  05:24:00      -97.993       37.985       -7.978       27.431       18.778       14.847      752.472      352.609      220.431        0.622        0.066      105.098       10.355        0.010      330.930       -1.383      862.344
12/18/2013  05:25:00     -116.492       29.599       -6.924       29.364       26.169       16.740      862.251      684.803      280.211        0.816        0.091      120.193       14.706        0.015      330.900       -1.431      862.320
12/18/2013  05:26:00     -134.519      -19.324      -12.037       38.167       20.922       21.185     1456.751      437.750      448.798        1.048        0.117      135.900       22.269        0.027      330.920       -1.398      862.332
12/18/2013  05:27:00     -169.186      -25.361      -18.345       37.611       33.221       21.779     1414.565     1103.635      474.342        1.630        0.150      171.076       17.648        0.011      330.868       -1.484      862.317
12/18/2013  05:28:00     -125.624       15.002      -11.204       37.951       30.147       21.150     1440.249      908.868      447.330        0.946        0.140      126.516       22.182        0.031      330.802       -1.593      862.271
12/18/2013  05:29:00      -64.112       -6.314       -4.694       19.643       17.997       14.861      385.857      323.888      220.847        0.255        0.047       64.422       11.304        0.031      330.790       -1.612      862.266
12/18/2013  05:30:00      -88.953       33.852       -8.685       13.683       14.832       11.962      187.229      220.002      143.092        0.484        0.028       95.177        5.710        0.004      330.899       -1.432      862.231
12/18/2013  05:31:00     -101.164       17.623      -15.685       22.071       17.309       14.322      487.121      299.605      205.117        0.589        0.050      102.687        7.262        0.005      330.936       -1.373      862.186
12/18/2013  05:32:00      -89.524       16.559       -8.212       36.960       26.832       14.793     1366.039      719.963      218.821        0.533        0.115       91.042       16.413        0.032      330.915       -1.405      862.156
12/18/2013  05:33:00     -173.513       -2.024      -21.416       45.416       29.473       16.316     2062.635      868.658      266.203        1.688        0.160      173.525       15.782        0.008      330.889       -1.448      862.156
12/18/2013  05:34:00     -147.745      -16.313      -14.524       48.694       33.269       24.260     2371.115     1106.799      588.527        1.319        0.203      148.643       25.617        0.030      330.856       -1.503      862.141
12/18/2013  05:35:00     -163.607        3.543      -21.358       32.567       25.281       16.593     1060.641      639.106      275.325        1.461        0.099      163.646        8.402        0.003      330.864       -1.489      862.131
12/18/2013  05:36:00     -143.160       23.963      -14.386       23.727       24.193       13.889      562.992      585.312      192.899        1.131        0.067      145.152        6.464        0.002      330.832       -1.541      862.100
12/18/2013  05:37:00     -116.793       53.667      -16.480       33.972       26.605       21.317     1154.127      707.842      454.410        0.955        0.116      128.533       17.249        0.018      330.981       -1.299      862.063
12/18/2013  05:38:00     -110.017        6.816       -9.600       37.058       47.228       22.029     1373.307     2230.496      485.285        0.817        0.204      110.228       20.820        0.036      331.027       -1.221      862.051
12/18/2013  05:39:00      -84.258      -22.077      -14.279       32.305       20.038       16.388     1043.590      401.502      268.554        0.475        0.086       87.102        7.248        0.007      330.999       -1.268      862.011
12/18/2013  05:40:00      -61.117       -2.862      -10.965       20.509       23.371       17.646      420.634      546.206      311.384        0.257        0.064       61.184        7.215        0.014      331.047       -1.190      861.959
12/18/2013  05:41:00      -87.287      -48.070       -3.654       30.842       28.873       20.267      951.257      833.635      410.760        0.607        0.110       99.648       16.140        0.026      330.997       -1.272      861.968
12/18/2013  05:42:00      -73.369      -27.578       -3.009       16.433       21.178       14.694      270.031      448.516      215.909        0.354        0.047       78.381        8.999        0.013      331.008       -1.256      861.984
12/18/2013  05:43:00      -40.436      -24.851       -4.517       28.577       29.963       12.124      816.626      897.753      146.983        0.207        0.093       47.462       11.098        0.055      331.096       -1.111      861.973
12/18/2013  05:44:00       -1.373      -35.946        4.143       28.374       15.982       19.132      805.079      255.430      366.031        0.137        0.071       35.972        4.278        0.014      331.186       -0.962      861.995
12/18/2013  05:45:00       -3.346        5.418       11.280        9.031       12.553        9.030       81.563      157.577       81.537        0.024        0.016        6.368        5.693        0.799      331.240       -0.873      861.978
12/18/2013  05:46:00        1.568        6.020       15.545       14.020        6.555       10.227      196.566       42.972      104.588        0.031        0.017        6.220       11.049        3.155      331.200       -0.939      861.944
12/18/2013  05:47:00      -38.261      -23.017       -4.972       18.999       12.171       10.218      360.967      148.142      104.409        0.132        0.031       44.651        6.052        0.018      331.226       -0.895      861.958
12/18/2013  05:48:00       -4.706      -28.833        7.510       16.790       21.940       10.796      281.905      481.356      116.561        0.089        0.044       29.214        6.245        0.046      331.333       -0.720      861.969
12/18/2013  05:49:00      -45.528      -31.737        0.254       11.475       11.305        6.151      131.680      127.796       37.835        0.169        0.015       55.498        4.901        0.008      331.372       -0.654      861.969
12/18/2013  05:50:00      -37.218      -14.623        3.169       11.466       19.159        7.461      131.462      367.056       55.669        0.108        0.028       39.988        8.770        0.048      331.317       -0.746      861.986
12/18/2013  05:51:00       18.111       46.067       10.277       16.022       27.603       16.103      256.706      761.948      259.320        0.192        0.064       49.499        9.633        0.038      331.330       -0.723      861.942
12/18/2013  05:52:00       10.180       30.905       50.464       36.437       35.917       26.575     1327.662     1290.053      706.223        0.346        0.166       32.538       24.786        0.580      331.315       -0.750      861.877
12/18/2013  05:53:00        7.524      -47.042       -2.826       28.707       37.493       21.096      824.077     1405.726      445.057        0.248        0.134       47.640       18.240        0.147      331.374       -0.648      861.966
12/18/2013  05:54:00       10.227       -9.966        7.719       23.879       31.521       27.665      570.183      993.581      765.370        0.130        0.116       14.280       24.748        3.003      331.411       -0.591      861.969
12/18/2013  05:55:00       -2.358        4.757       25.829       14.341       17.407       10.392      205.672      302.998      107.990        0.066        0.031        5.309        5.529        1.085      331.430       -0.561      861.946
12/18/2013  05:56:00       -3.755       43.192       67.556       20.745       28.641       25.581      430.339      820.295      654.397        0.417        0.095       43.355       22.984        0.281      331.368       -0.661      861.863
12/18/2013  05:57:00        3.021        9.746       37.819       16.626       45.609       27.511      276.440     2080.221      756.880        0.232        0.156       10.204       30.194        8.756      331.349       -0.693      861.829
12/18/2013  05:58:00       20.664      -44.283      -10.667       18.737       24.930       14.748      351.061      621.524      217.512        0.185        0.060       48.867        8.881        0.033      331.377       -0.647      861.890
12/18/2013  05:59:00       -4.350      -11.835        7.907       15.932       27.578       17.191      253.838      760.538      295.545        0.077        0.065       12.610       14.930        1.402      331.468       -0.498      861.906
12/18/2013  06:00:00        1.053       25.630       18.321       17.270       13.822        8.244      298.263      191.042       67.970        0.078        0.028       25.652        8.097        0.100      331.361       -0.672      861.915
12/18/2013  06:01:00      -10.538        2.290       10.397        7.827        8.392        6.734       61.261       70.421       45.347        0.020        0.009       10.784        3.635        0.114      331.331       -0.720      861.938
12/18/2013  06:02:00      -13.282        8.093       21.152       12.530       10.689        9.682      157.008      114.246       93.737        0.053        0.018       15.554        9.285        0.356      331.364       -0.668      861.937
12/18/2013  06:03:00      -29.709        2.558        3.813       17.675       17.084        8.011      312.399      291.865       64.178        0.079        0.033       29.819        8.020        0.072      331.374       -0.649      861.951
12/18/2013  06:04:00       37.510       60.802       16.828       27.970       31.406       23.100      782.299      986.344      533.629        0.384        0.115       71.442       22.279        0.097      331.215       -0.915      861.893
12/18/2013  06:05:00       27.058      106.144      -25.021       23.143       39.026       20.431      535.590     1523.007      417.433        0.755        0.124      109.539       25.290        0.053      331.017       -1.240      861.828
12/18/2013  06:06:00       39.920       37.955       15.181       25.867       19.079       15.655      669.119      364.013      245.083        0.227        0.064       55.084       15.862        0.083      331.056       -1.176      861.847
12/18/2013  06:07:00       48.324       50.895        7.319       25.172       21.188       13.856      633.648      448.927      191.993        0.313        0.064       70.182        7.515        0.011      330.926       -1.389      861.797
12/18/2013  06:08:00       21.518       74.441       -9.285       10.887       25.009       10.289      118.529      625.430      105.860        0.347        0.042       77.488       10.853        0.020      330.905       -1.421      861.772
12/18/2013  06:09:00       28.941       45.197       -5.016       17.194       36.571       17.222      295.638     1337.464      296.594        0.242        0.096       53.669       15.145        0.080      330.938       -1.369      861.764
12/18/2013  06:10:00        1.437       -7.533       -6.960       10.264        9.808       10.324      105.360       96.201      106.582        0.021        0.015        7.669        5.030        0.430      331.034       -1.211      861.826
12/18/2013  06:11:00       46.609       46.752       16.701       22.612       16.290       18.415      511.290      265.377      339.124        0.288        0.056       66.016        7.002        0.011      330.971       -1.313      861.768
12/18/2013  06:12:00       38.760       32.482       -6.536       37.326       20.638       14.887     1393.230      425.931      221.625        0.232        0.102       50.571        7.796        0.024      330.886       -1.455      861.754
12/18/2013  06:13:00       -3.261      -46.636       -1.625       17.716       31.729       15.177      313.853     1006.761      230.335        0.187        0.078       46.750       10.337        0.049      331.034       -1.211      861.862
12/18/2013  06:14:00      -20.092       33.036        2.984       24.373       18.307       13.934      594.049      335.162      194.170        0.131        0.056       38.666       16.022        0.172      331.024       -1.227      861.872
12/18/2013  06:15:00        8.092       33.916        0.055       14.017       17.365        9.752      196.488      301.530       95.111        0.090        0.030       34.868       10.512        0.091      331.027       -1.223      861.820
12/18/2013  06:16:00       22.713       80.226      -14.529       14.341       12.177       11.046      205.675      148.271      122.004        0.382        0.024       83.379        2.812        0.001      330.927       -1.387      861.733
12/18/2013  06:17:00      -34.831       57.271      -15.773       24.636       37.932       11.235      606.948     1438.851      126.226        0.346        0.109       67.031       13.969        0.043      331.009       -1.252      861.676
12/18/2013  06:18:00      -55.652       33.930      -13.152       21.057       24.236       14.201      443.399      587.386      201.663        0.283        0.062       65.180        8.086        0.015      330.957       -1.337      861.673
12/18/2013  06:19:00      -18.567       -8.988        8.850       15.352        9.326        9.369      235.682       86.968       87.775        0.046        0.021       20.628        9.374        0.206      330.996       -1.273      861.657
12/18/2013  06:20:00      -64.090      -22.492       -4.672       20.500       13.365       12.220      420.251      178.613      149.324        0.269        0.037       67.922       13.168        0.038      331.042       -1.199      861.634
12/18/2013  06:21:00      -57.462      -13.739       -5.321       38.116       17.639       10.544     1452.861      311.143      111.166        0.270        0.094       59.081       13.800        0.055      330.972       -1.313      861.609
12/18/2013  06:22:00     -150.817      -13.285      -13.753       34.160       27.005       20.738     1166.915      729.297      430.073        1.272        0.116      151.401       19.909        0.017      330.901       -1.427      861.635
12/18/2013  06:23:00     -145.605      -24.047      -10.430       51.158       28.230       23.314     2617.172      796.915      543.553        1.292        0.198      147.577       24.402        0.027      330.890       -1.447      861.625
12/18/2013  06:24:00      -79.771      -49.881       -3.179       24.491       27.645       19.223      599.831      764.233      369.513        0.530        0.087       94.083       15.264        0.026      330.923       -1.394      861.606
12/18/2013  06:25:00      -89.563      -37.995       -5.531       51.354       29.355       24.259     2637.228      861.718      588.478        0.679        0.204       97.289       24.500        0.063      331.011       -1.249      861.637
12/18/2013  06:26:00      -68.962      -22.239        2.351       48.602       33.681       13.061     2362.167     1134.403      170.583        0.446        0.183       72.460       20.511        0.080      331.016       -1.240      861.571
12/18/2013  06:27:00     -117.632       28.730      -12.884       59.213       17.277       13.403     3506.227      298.507      179.644        0.941        0.199      121.089       16.127        0.018      331.002       -1.264      861.546
12/18/2013  06:28:00     -186.838      -72.555      -15.149       35.262       34.307       17.811     1243.422     1176.940      317.241        2.157        0.137      200.431       15.114        0.006      330.992       -1.281      861.630
12/18/2013  06:29:00      -78.843      -62.596       -2.274       39.674       39.143       21.376     1573.993     1532.193      456.929        0.685        0.178      100.670       18.922        0.035      330.960       -1.334      861.640
12/18/2013  06:30:00      -27.670       -4.119        7.343       23.192       15.833       15.283      537.892      250.681      233.572        0.093        0.051       27.975       17.142        0.376      331.152       -1.019      861.601
12/18/2013  06:31:00      -59.448       26.593       -1.716       20.575       16.658       17.686      423.329      277.479      312.788        0.263        0.051       65.125       15.651        0.058      331.019       -1.235      861.531
12/18/2013  06:32:00      -80.882      -26.411       -5.021       23.992       34.566       13.266      575.603     1194.825      175.995        0.461        0.097       85.085        9.270        0.012      331.044       -1.195      861.518
12/18/2013  06:33:00      -38.767      -16.715        6.325       30.825       19.507       17.021      950.178      380.520      289.713        0.172        0.081       42.217       17.808        0.178      331.076       -1.143      861.538
12/18/2013  06:34:00      -44.457      -23.904       -3.627       19.310        9.110       10.475      372.882       82.990      109.736        0.156        0.028       50.476       12.113        0.058      331.077       -1.141      861.498
12/18/2013  06:35:00      -97.576      -13.950       -7.799       27.599       16.634       15.151      761.719      276.695      229.557        0.552        0.063       98.568       15.730        0.025      331.054       -1.179      861.477
12/18/2013  06:36:00      -79.324      -28.478       -2.405       25.367       26.347       13.708      643.495      694.147      187.920        0.432        0.076       84.282       12.865        0.023      330.987       -1.290      861.485
12/18/2013  06:37:00      -96.005      -25.317       -5.631       34.520       17.633       10.635     1191.615      310.937      113.113        0.575        0.081       99.287        8.597        0.007      331.046       -1.192      861.497
12/18/2013  06:38:00     -156.921      -92.169       -7.247       41.166       32.287       24.304     1694.677     1042.466      590.708        1.825        0.166      181.987       17.011        0.009      331.014       -1.245      861.532
12/18/2013  06:39:00      -74.879      -18.493       -3.723       32.948       27.106       14.054     1085.578      734.758      197.506        0.399        0.101       77.129        8.751        0.013      331.072       -1.148      861.492
12/18/2013  06:40:00      -61.698       -4.407       -0.743       23.776       17.390       13.797      565.296      302.421      190.355        0.244        0.053       61.856       13.236        0.046      330.968       -1.320      861.458
12/18/2013  06:41:00     -111.944        7.714       -8.880       19.935       20.902       14.210      397.399      436.886      201.937        0.685        0.052      112.209        9.710        0.007      330.948       -1.352      861.442
12/18/2013  06:42:00      -93.819        4.567      -10.087       18.881       20.920       11.766      356.495      437.626      138.435        0.493        0.047       93.930       10.881        0.013      330.978       -1.302      861.427
12/18/2013  06:43:00      -64.270        3.394       -3.399       41.747       14.227       10.889     1742.772      202.403      118.572        0.311        0.103       64.359       15.199        0.056      330.981       -1.298      861.395
12/18/2013  06:44:00      -42.026        3.079       -1.804       39.351       12.613       10.450     1548.540      159.098      109.212        0.180        0.091       42.138       16.571        0.155      330.994       -1.278      861.378
12/18/2013  06:45:00     -159.246       -2.065      -14.635       51.917       41.347       23.287     2695.422     1709.546      542.264        1.526        0.247      159.260       22.354        0.020      331.002       -1.263      861.390
12/18/2013  06:46:00     -113.815       -1.002       -6.521       50.991       37.298       28.574     2600.083     1391.124      816.451        0.890        0.240      113.820       28.223        0.061      330.862       -1.493      861.415
12/18/2013  06:47:00      -96.267      -37.846       -8.028       21.559       25.474       16.734      464.808      648.903      280.017        0.608        0.070      103.439        4.443        0.002      330.980       -1.299      861.478
12/18/2013  06:48:00     -133.286      -52.794      -15.116       40.642       36.911       16.945     1651.789     1362.419      287.119        1.204        0.165      143.361       10.775        0.006      330.989       -1.286      861.509
12/18/2013  06:49:00       17.487       56.751       -0.659       31.694       29.683       25.733     1004.512      881.090      662.189        0.304        0.127       59.384       20.564        0.120      331.018       -1.239      861.365
12/18/2013  06:50:00     -156.797      -49.672      -18.353       77.069       49.472       14.205     5939.604     2447.507      201.778        1.799        0.429      164.477       14.541        0.008      331.047       -1.192      861.468
12/18/2013  06:51:00      -41.342      -20.811       24.881       69.069       51.139       30.643     4770.547     2615.215      939.016        0.554        0.416       46.285       42.946        0.861      331.123       -1.064      861.549
12/18/2013  06:52:00       36.010       50.299       21.077       23.120       26.122       22.110      534.554      682.355      488.860        0.299        0.085       61.860       13.898        0.050      331.106       -1.093      861.390
12/18/2013  06:53:00      -15.173       52.271       -2.657       28.308       19.441       17.577      801.331      377.948      308.948        0.223        0.074       54.428       12.897        0.056      331.068       -1.154      861.341
12/18/2013  06:54:00      -93.936        0.298      -15.442       32.201       33.379       17.238     1036.914     1114.128      297.136        0.575        0.122       93.936       12.978        0.019      331.162       -1.002      861.420
12/18/2013  06:55:00      -22.926      -27.420        6.986       47.541       28.397       26.516     2260.167      806.375      703.087        0.255        0.188       35.741       22.126        0.383      331.211       -0.920      861.518
12/18/2013  06:56:00       42.186       30.153        2.384       26.348       27.608       21.105      694.192      762.214      445.422        0.230        0.095       51.855       13.205        0.065      331.244       -0.865      861.429
12/18/2013  06:57:00       48.656       58.984       -5.252       16.184       16.176       16.536      261.908      261.658      273.437        0.334        0.040       76.463        8.354        0.012      331.229       -0.889      861.374
12/18/2013  06:58:00       22.280       24.531       23.070       22.106       18.899       10.967      488.691      357.184      120.277        0.130        0.048       33.139        4.132        0.016      331.293       -0.785      861.440
12/18/2013  06:59:00        6.947       33.484       31.970       15.872       18.709       17.954      251.930      350.029      322.346        0.156        0.046       34.197        8.452        0.061      331.291       -0.789      861.486
12/18/2013  07:00:00       13.712       28.906        2.138       23.890       14.214        7.377      570.730      202.039       54.426        0.093        0.041       31.993        8.070        0.064      331.270       -0.820      861.448
12/18/2013  07:01:00       87.693       49.360        2.407       12.932       15.800       15.532      167.243      249.645      241.240        0.540        0.033      100.631        7.293        0.005      331.182       -0.968      861.397
12/18/2013  07:02:00       15.896       39.078        7.345       28.756       21.405       16.029      826.909      458.188      256.941        0.169        0.077       42.187        8.876        0.044      331.171       -0.986      861.419
12/18/2013  07:03:00      -14.441        4.858        1.468       13.318        7.455        7.921      177.371       55.577       62.740        0.026        0.015       15.236        8.311        0.298      331.223       -0.900      861.464
12/18/2013  07:04:00       23.750       11.340        1.498       13.985       10.076        9.207      195.593      101.535       84.769        0.054        0.019       26.318        6.068        0.053      331.214       -0.914      861.457
12/18/2013  07:05:00       51.791       31.517        6.659       14.603        7.651       13.895      213.245       58.545      193.057        0.209        0.023       60.627       11.015        0.033      331.141       -1.038      861.414
12/18/2013  07:06:00        2.439       44.530      -10.141       11.655       11.714        5.870      135.843      137.228       34.457        0.120        0.015       44.597        3.758        0.007      331.161       -1.003      861.371
12/18/2013  07:07:00        4.625       82.883       -8.389       11.697       12.821        5.798      136.817      164.390       33.617        0.365        0.017       83.012        4.330        0.003      331.256       -0.845      861.360
12/18/2013  07:08:00       27.662       15.661       -6.376       15.794       19.747       11.281      249.439      389.946      127.269        0.091        0.038       31.788       10.360        0.106      331.281       -0.805      861.395
12/18/2013  07:09:00       17.392       15.735       20.766       16.417       27.649       20.219      269.503      764.469      408.813        0.121        0.072       23.454       17.708        0.570      331.362       -0.671      861.408
12/18/2013  07:10:00       10.375       33.494       28.317       18.569       21.225       14.146      344.789      450.488      200.098        0.151        0.050       35.064       11.779        0.113      331.312       -0.754      861.362
12/18/2013  07:11:00        8.750        5.441        7.194        8.655        6.099        9.952       74.906       37.195       99.040        0.018        0.011       10.304        6.297        0.374      331.365       -0.667      861.332
12/18/2013  07:12:00       44.655       27.495       16.772       14.511        8.600        6.680      210.571       73.952       44.628        0.168        0.016       52.441        5.452        0.011      331.327       -0.729      861.266
12/18/2013  07:13:00       32.060       -7.292        0.287       29.939       41.247       17.273      896.361     1701.285      298.352        0.199        0.145       32.879       18.557        0.319      331.403       -0.604      861.256
12/18/2013  07:14:00      -26.504      -32.132       -0.077       39.922       29.070       12.997     1593.803      845.066      168.921        0.217        0.130       41.652       11.207        0.072      331.433       -0.556      861.362
12/18/2013  07:15:00      -41.845      -11.106        6.626       37.779       22.206       14.314     1427.217      493.095      204.894        0.202        0.106       43.294       14.074        0.106      331.454       -0.520      861.343
12/18/2013  07:16:00      -18.160       15.669       -4.215       15.406       13.444        7.883      237.330      180.749       62.147        0.054        0.024       23.985        4.235        0.031      331.462       -0.508      861.304
12/18/2013  07:17:00      -23.932       24.347        4.142       29.314       16.253       15.965      859.337      264.154      254.870        0.128        0.069       34.139       16.968        0.247      331.442       -0.543      861.303
12/18/2013  07:18:00       60.364       33.799        6.643       26.934       20.247       11.569      725.422      409.961      133.836        0.305        0.063       69.182       14.484        0.044      331.445       -0.537      861.294
12/18/2013  07:19:00       66.087       36.942       11.688       29.475       14.492       15.674      868.766      210.027      245.680        0.360        0.066       75.711       14.467        0.037      331.392       -0.621      861.249
12/18/2013  07:20:00       -9.673       14.021       -3.191       21.569       12.571       16.142      465.219      158.028      260.549        0.059        0.044       17.034        8.651        0.258      331.370       -0.658      861.269
12/18/2013  07:21:00      -48.286       -5.940       -9.700       27.988       13.610        9.751      783.302      185.219       95.087        0.176        0.053       48.650       10.304        0.045      331.302       -0.768      861.341
12/18/2013  07:22:00      -43.954      -32.920       -3.011       40.614       24.486       15.220     1649.471      599.568      231.642        0.275        0.124       54.915       13.435        0.060      331.385       -0.633      861.400
12/18/2013  07:23:00      -20.221       -6.252        2.401       27.353       19.930       11.984      748.170      397.188      143.623        0.087        0.064       21.166        5.788        0.075      331.455       -0.519      861.319
12/18/2013  07:24:00       14.479       74.306       -4.534       21.034       37.891       19.374      442.414     1435.720      375.348        0.400        0.113       75.703       21.833        0.083      331.357       -0.679      861.187
12/18/2013  07:25:00       -9.017       82.502      -13.681       18.222       23.939       11.988      332.026      573.054      143.704        0.406        0.052       82.994        9.684        0.014      331.334       -0.718      861.168
12/18/2013  07:26:00      -23.758       -9.676        1.458       22.982       18.446       15.064      528.178      340.246      226.935        0.088        0.055       25.653       13.244        0.267      331.363       -0.669      861.245
12/18/2013  07:27:00      -47.504      -21.097       -7.402       12.601       20.497        8.386      158.774      420.128       70.317        0.170        0.032       51.978        8.040        0.024      331.298       -0.777      861.279
12/18/2013  07:28:00      -11.167      -19.622       -6.524       20.895       14.289       12.342      436.604      204.181      152.321        0.067        0.040       22.577        7.277        0.104      331.378       -0.646      861.292
12/18/2013  07:29:00       15.018       16.570        3.047       13.725       10.526       16.597      188.381      110.803      275.445        0.054        0.029       22.363        5.330        0.057      331.385       -0.632      861.295
12/18/2013  07:30:00       -0.982       30.537       -3.639        9.986       10.121        9.880       99.722      102.427       97.619        0.062        0.015       30.553        6.768        0.049      331.323       -0.736      861.291
12/18/2013  07:31:00        9.173       30.838       -6.513        7.965        5.285        3.768       63.440       27.936       14.199        0.059        0.005       32.173        2.106        0.004      331.343       -0.708      861.302
12/18/2013  07:32:00       25.809       22.833        5.173       15.687        8.165        6.772      246.080       66.663       45.860        0.079        0.018       34.459        6.428        0.035      331.331       -0.725      861.300
12/18/2013  07:33:00       88.197       53.766        6.511       23.927       23.842       21.890      572.490      568.450      479.163        0.617        0.081      103.294       14.914        0.021      331.316       -0.747      861.267
12/18/2013  07:34:00       62.943       52.029       37.919       33.612       29.292       30.521     1129.760      858.049      931.511        0.551        0.146       81.663       24.035        0.087      331.273       -0.817      861.273
12/18/2013  07:35:00      -17.934        6.921       -4.702       24.212       13.693       11.017      586.230      187.507      121.365        0.064        0.045       19.223        8.714        0.206      331.260       -0.838      861.317
12/18/2013  07:36:00      -22.892       10.809        7.867       27.969       14.188       13.414      782.285      201.310      179.933        0.093        0.058       25.316       16.189        0.409      331.342       -0.704      861.335
12/18/2013  07:37:00       70.209       63.163       13.195       21.138       18.042       21.943      446.815      325.520      481.507        0.517        0.063       94.440       14.072        0.022      331.275       -0.813      861.254
12/18/2013  07:38:00       53.246       34.900       -6.965       32.494       34.614       25.783     1055.836     1198.119      664.741        0.351        0.146       63.664       26.861        0.178      331.295       -0.781      861.187
12/18/2013  07:39:00       -5.131      -15.088       17.650       13.770       31.021       17.732      189.604      962.285      314.428        0.102        0.073       15.937       19.986        1.573      331.475       -0.486      861.262
12/18/2013  07:40:00       32.330       38.724       24.446       24.322       14.054       10.305      591.583      197.517      106.202        0.202        0.045       50.445       13.252        0.069      331.361       -0.674      861.281
12/18/2013  07:41:00       70.838       53.816        1.699       32.065       22.374       22.563     1028.183      500.579      509.076        0.498        0.102       88.962       12.777        0.021      331.329       -0.727      861.199
12/18/2013  07:42:00       92.686       47.108       -6.203       34.908       27.638       21.664     1218.543      763.886      469.331        0.665        0.123      103.970        9.340        0.008      331.314       -0.752      861.198
12/18/2013  07:43:00        9.806       27.968        1.992       12.270       13.814       10.945      150.562      190.832      119.785        0.067        0.023       29.638        3.130        0.011      331.310       -0.757      861.245
12/18/2013  07:44:00       87.057       52.014       11.473       27.247       18.089       16.760      742.408      327.212      280.899        0.588        0.068      101.412        7.972        0.006      331.248       -0.856      861.232
12/18/2013  07:45:00       37.604       66.866       54.607       30.541       27.288       24.109      932.770      744.619      581.260        0.556        0.113       76.715       14.147        0.034      331.293       -0.785      861.249
12/18/2013  07:46:00       31.652       39.410       26.888       10.440       14.664       10.448      108.984      215.019      109.151        0.186        0.022       50.547        8.090        0.026      331.210       -0.921      861.295
12/18/2013  07:47:00       38.879       35.855        1.648       17.243       15.657        9.493      297.336      245.152       90.114        0.172        0.032       52.888        7.910        0.022      331.238       -0.874      861.322
12/18/2013  07:48:00       43.072       36.073       14.013       16.292       14.967       19.011      265.415      223.998      361.402        0.210        0.043       56.182       11.226        0.040      331.274       -0.816      861.321
12/18/2013  07:49:00       25.893       31.635       -4.493       12.739        9.713        8.694      162.292       94.336       75.586        0.101        0.017       40.881        7.832        0.037      331.258       -0.843      861.295
12/18/2013  07:50:00       27.292       24.654       -8.544        9.976       14.540        6.308       99.530      211.412       39.796        0.089        0.018       36.778        4.169        0.013      331.275       -0.813      861.290
12/18/2013  07:51:00       27.674       35.813       -3.727        8.107       10.421        8.685       65.726      108.600       75.437        0.116        0.012       45.260        4.121        0.008      331.311       -0.757      861.285
12/18/2013  07:52:00       24.928      107.481      -17.905       15.905       27.061       15.774      252.983      732.321      248.815        0.686        0.062      110.334       17.688        0.026      331.324       -0.733      861.191
12/18/2013  07:53:00       -7.023       82.554      -15.188       12.420       38.142       19.437      154.260     1454.797      377.807        0.454        0.099       82.852       25.329        0.093      331.434       -0.554      861.197
12/18/2013  07:54:00       15.368      -31.278       -7.220       24.038       24.924       22.162      577.834      621.229      491.142        0.148        0.085       34.850       17.811        0.261      331.583       -0.308      861.280
12/18/2013  07:55:00        6.624       45.375       -6.265       14.231       27.139       17.256      202.516      736.519      297.782        0.169        0.062       45.856       11.405        0.062      331.508       -0.432      861.230
12/18/2013  07:56:00      -38.494       87.555      -15.333       28.137       31.171       20.413      791.702      971.604      416.693        0.578        0.109       95.643       20.974        0.048      331.496       -0.450      861.140
12/18/2013  07:57:00       21.346       48.504        0.300       41.159       27.009       19.702     1694.059      729.464      388.181        0.281        0.141       52.993       14.488        0.075      331.599       -0.282      861.100
12/18/2013  07:58:00       52.747       50.543        9.002       33.920       26.207       27.006     1150.545      686.832      729.348        0.399        0.128       73.054       19.777        0.073      331.539       -0.381      861.104
12/18/2013  07:59:00       21.595       27.673        4.736       21.450       16.069       20.849      460.120      258.217      434.686        0.120        0.058       35.102       11.491        0.107      331.443       -0.539      861.166
12/18/2013  08:00:00       37.199       43.584        5.051       16.644       11.789       11.139      277.014      138.976      124.075        0.192        0.027       57.300       10.181        0.032      331.382       -0.636      861.175
12/18/2013  08:01:00       74.597       58.537        6.753       29.972       17.753       19.539      898.308      315.167      381.778        0.532        0.080       94.823        7.125        0.006      331.416       -0.582      861.110
12/18/2013  08:02:00       58.951       33.917       12.811       29.673       18.401       27.745      880.488      338.589      769.780        0.339        0.099       68.012       15.074        0.049      331.401       -0.608      861.112
12/18/2013  08:03:00       22.236       14.180        2.438       14.871       13.432       13.209      221.140      180.415      174.476        0.064        0.029       26.372        5.865        0.049      331.417       -0.580      861.096
12/18/2013  08:04:00       31.906       21.620        4.215       14.336       14.370       10.828      205.515      206.484      117.245        0.102        0.026       38.542       10.092        0.069      331.452       -0.525      861.067
12/18/2013  08:05:00        7.386       32.255        6.567        6.155        9.517        7.334       37.886       90.566       53.783        0.066        0.009       33.090        7.032        0.045      331.477       -0.482      861.083
12/18/2013  08:06:00       15.254       37.031       -2.254        8.478       16.844       10.937       71.880      283.713      119.610        0.104        0.024       40.050        9.721        0.059      331.481       -0.478      861.080
12/18/2013  08:07:00       43.604       39.438        3.864       17.392       12.007       14.837      302.470      144.177      220.126        0.207        0.033       58.793       12.633        0.046      331.504       -0.440      861.087
12/18/2013  08:08:00       -5.567      -18.523       -0.748       22.867       28.640       18.641      522.917      820.264      347.501        0.103        0.085       19.341       18.747        0.940      331.607       -0.269      861.130
12/18/2013  08:09:00     -101.676      -47.671       -7.059       30.975       35.902       16.155      959.454     1288.974      260.997        0.758        0.125      112.296        9.740        0.008      331.653       -0.192      861.181
12/18/2013  08:10:00       -4.828      -48.546       -3.505       27.753       20.165       17.571      770.202      406.611      308.725        0.194        0.074       48.786        8.010        0.027      331.763       -0.012      861.193
12/18/2013  08:11:00        0.643       47.849       59.420       19.241       36.885       33.096      370.227     1360.531     1095.367        0.432        0.141       47.853       30.105        0.396      331.765       -0.008      861.190
12/18/2013  08:12:00       13.909       35.610       37.511       23.150       39.435       36.717      535.929     1555.134     1348.170        0.315        0.172       38.230       31.695        0.687      331.749       -0.034      861.192
12/18/2013  08:13:00       51.183       34.224        1.963       23.981       21.351       20.348      575.065      455.858      414.059        0.262        0.072       61.571       19.310        0.098      331.633       -0.226      861.171
12/18/2013  08:14:00       49.689       33.887       11.326       27.158       15.762       23.570      737.577      248.452      555.524        0.264        0.077       60.145       16.697        0.077      331.638       -0.219      861.172
12/18/2013  08:15:00       -1.243       41.887       50.486       27.363       33.890       22.412      748.753     1148.534      502.288        0.335        0.120       41.905       22.843        0.297      331.696       -0.123      861.195
12/18/2013  08:16:00       82.479       42.558       12.528       27.139       23.310       24.190      736.507      543.343      585.164        0.532        0.093       92.812       16.119        0.030      331.602       -0.277      861.161
12/18/2013  08:17:00       74.604       49.575       20.422       43.518       26.367       33.716     1893.776      695.222     1136.790        0.608        0.186       89.574       31.168        0.121      331.586       -0.303      861.127
12/18/2013  08:18:00        8.888        1.612       33.036       21.239       41.128       27.591      451.086     1691.521      761.287        0.204        0.145        9.033       28.892       10.230      331.675       -0.157      861.191
12/18/2013  08:19:00       23.567      -18.428       34.056       29.594       64.512       42.227      875.779     4161.745     1783.120        0.444        0.341       29.916       37.866        1.602      331.731       -0.064      861.217
12/18/2013  08:20:00       20.156       97.368      114.718       54.725       39.136       29.489     2994.788     1531.605      869.624        1.422        0.270       99.433       30.234        0.092      331.646       -0.205      861.136
12/18/2013  08:21:00       44.641      119.269      104.389       37.319       37.611       29.084     1392.730     1414.567      845.867        1.538        0.183      127.349       16.369        0.017      331.619       -0.249      861.029
12/18/2013  08:22:00       19.439       56.759       77.141       27.166       36.241       18.918      737.980     1313.387      357.878        0.598        0.120       59.996       24.033        0.160      331.564       -0.340      860.998
12/18/2013  08:23:00       82.203      -58.434       17.268       36.536       39.622       27.057     1334.864     1569.867      732.094        0.705        0.182      100.856       25.957        0.066      331.661       -0.178      861.012
12/18/2013  08:24:00       63.064        9.225       40.016       36.764       55.476       28.007     1351.577     3077.618      784.385        0.544        0.261       63.735       34.227        0.288      331.629       -0.232      861.009
12/18/2013  08:25:00       22.494       38.469       62.249       32.730       39.737       33.218     1071.248     1578.994     1103.433        0.481        0.188       44.563       28.911        0.421      331.746       -0.038      861.003
12/18/2013  08:26:00       26.904       43.130       53.272       33.298       44.095       40.964     1108.744     1944.326     1678.045        0.508        0.237       50.833       34.267        0.454      331.749       -0.037      861.037
12/18/2013  08:27:00       26.855       35.822       40.006       24.673       25.541       20.596      608.780      652.368      424.208        0.264        0.084       44.771       10.805        0.058      331.735       -0.057      861.078
12/18/2013  08:28:00       62.608       43.358        8.921       26.053       23.137       21.811      678.780      535.316      475.723        0.378        0.084       76.155       17.796        0.055      331.671       -0.163      861.070
12/18/2013  08:29:00      132.041       78.046        0.355       38.963       32.364       26.859     1518.094     1047.427      721.408        1.341        0.164      153.382        9.604        0.004      331.563       -0.341      861.026
12/18/2013  08:30:00      113.775       77.715      -10.365       40.423       34.244       23.989     1634.012     1172.671      575.491        1.124        0.169      137.783       19.334        0.020      331.485       -0.472      861.014
12/18/2013  08:31:00      105.950       63.386        8.761       40.273       34.150       24.755     1621.909     1166.190      612.834        0.936        0.170      123.463       15.181        0.015      331.542       -0.376      861.032
12/18/2013  08:32:00      149.063       94.159       39.065       26.336       22.528       23.647      693.584      507.515      559.188        1.719        0.088      176.311       13.533        0.006      331.491       -0.461      861.026
12/18/2013  08:33:00      106.705       56.590       22.864       37.722       27.887       29.170     1422.918      777.669      850.863        0.908        0.153      120.782       17.411        0.021      331.514       -0.422      861.000
12/18/2013  08:34:00       46.311       46.994        4.069       30.192       22.074       15.939      911.533      487.267      254.042        0.301        0.083       65.978       15.864        0.058      331.429       -0.563      861.010
12/18/2013  08:35:00       74.705       48.898        3.898       27.131       19.871       17.614      736.067      394.856      310.269        0.471        0.072       89.285       12.737        0.020      331.449       -0.530      861.036
12/18/2013  08:36:00       55.619       29.107        8.186       36.867       24.452       18.720     1359.194      597.903      350.457        0.316        0.115       62.775       12.151        0.037      331.512       -0.426      861.054
12/18/2013  08:37:00       26.191       71.582       -7.287       12.994       20.256       15.265      168.834      410.290      233.017        0.334        0.041       76.223        9.816        0.017      331.486       -0.470      861.044
12/18/2013  08:38:00       84.134       66.250       -0.720       39.094       23.706       19.677     1528.320      561.955      387.168        0.697        0.124      107.087       20.899        0.038      331.519       -0.414      861.036
12/18/2013  08:39:00       55.901       54.837       37.055       35.982       28.001       24.750     1294.678      784.072      612.542        0.510        0.135       78.307       15.882        0.041      331.611       -0.262      861.057
12/18/2013  08:40:00       57.881       36.374       20.775       28.569       22.343       20.462      816.202      499.207      418.706        0.342        0.087       68.362        9.998        0.021      331.594       -0.288      861.082
12/18/2013  08:41:00       74.976       30.047        9.827       30.050       21.632       18.191      902.999      467.929      330.904        0.416        0.085       80.772       15.787        0.038      331.623       -0.241      861.093
12/18/2013  08:42:00      118.495       71.178       28.790       26.519       26.363       31.816      703.264      694.991     1012.273        1.117        0.121      138.229       15.379        0.012      331.630       -0.231      861.086
12/18/2013  08:43:00       79.279       63.557       17.233       30.846       25.417       28.704      951.501      646.017      823.934        0.652        0.121      101.611       17.621        0.030      331.599       -0.282      861.111
12/18/2013  08:44:00       77.904       63.016       10.502       21.710       16.931       19.983      471.317      286.669      399.338        0.565        0.058      100.201       11.511        0.013      331.565       -0.337      861.136
12/18/2013  08:45:00       50.916       39.108       -6.949       25.685       22.504       20.305      659.739      506.425      412.296        0.287        0.079       64.202       16.968        0.070      331.595       -0.287      861.142
12/18/2013  08:46:00       36.024       52.913        0.872       12.424       21.687       18.298      154.348      470.328      334.807        0.253        0.048       64.012       13.274        0.043      331.620       -0.246      861.145
12/18/2013  08:47:00       43.923       33.811       -7.913       12.209       14.221        9.142      149.057      202.229       83.585        0.178        0.022       55.430        7.950        0.021      331.600       -0.280      861.180
12/18/2013  08:48:00       24.964       31.237        4.737       12.065       13.509       13.589      145.557      182.484      184.655        0.107        0.026       39.987        9.783        0.060      331.632       -0.226      861.207
12/18/2013  08:49:00       -9.881       77.161       -8.675       25.117       23.259       13.820      630.870      540.968      191.006        0.374        0.068       77.792       10.735        0.019      331.676       -0.156      861.147
12/18/2013  08:50:00      -54.869       55.417      -10.511       31.593       28.461       17.108      998.087      810.041      292.682        0.415        0.105       77.985       15.709        0.041      331.771        0.001      861.122
12/18/2013  08:51:00      -31.726       30.893        5.914       26.849       28.970       16.598      720.846      839.240      275.494        0.192        0.092       44.283       18.362        0.172      331.758       -0.021      861.154
12/18/2013  08:52:00      -32.741        5.710        6.925       15.671       15.113       12.381      245.573      228.393      153.288        0.089        0.031       33.235       10.683        0.103      331.820        0.081      861.209
12/18/2013  08:53:00      -35.830      -30.892       -2.554       18.252       32.237       13.379      333.140     1039.220      179.000        0.190        0.078       47.309       12.745        0.073      331.854        0.137      861.248
12/18/2013  08:54:00      -17.242      -26.160      -10.010       17.674       17.187       11.834      312.378      295.377      140.038        0.091        0.037       31.331       10.068        0.103      331.895        0.204      861.239
12/18/2013  08:55:00       32.765       26.046        4.904       27.158       17.056       18.843      737.580      290.904      355.061        0.158        0.069       41.856       12.869        0.095      331.893        0.200      861.155
12/18/2013  08:56:00       14.669      -12.120        3.374       25.272       26.588       18.726      638.686      706.898      350.673        0.103        0.085       19.028        9.010        0.224      331.917        0.243      861.201
12/18/2013  08:57:00        6.659       39.790        1.821       21.600       20.464       10.805      466.544      418.779      116.748        0.132        0.050       40.344       11.199        0.077      331.837        0.109      861.200
12/18/2013  08:58:00      -10.403      105.803      -20.239       15.190       28.133       10.769      230.734      791.477      115.966        0.642        0.057      106.313       12.794        0.014      331.766       -0.008      861.135
12/18/2013  08:59:00       -4.678       39.648        7.408       18.513       38.340       19.307      342.728     1469.949      372.754        0.192        0.109       39.923       20.335        0.259      331.876        0.174      861.157
12/18/2013  09:00:00        0.243       32.876       -5.466       16.094       18.085       14.755      259.001      327.077      217.724        0.096        0.040       32.877       14.673        0.199      331.802        0.050      861.206
12/18/2013  09:01:00      -42.729        3.245       -4.588       22.828       15.408       12.401      521.106      237.412      153.794        0.138        0.046       42.852        6.125        0.020      331.840        0.114      861.219
12/18/2013  09:02:00      -11.736       20.372       -8.397       19.464       16.934       13.777      378.851      286.777      189.799        0.074        0.043       23.511        8.589        0.133      331.858        0.145      861.187
12/18/2013  09:03:00       30.639       16.624       -1.989       11.046       21.793       16.097      122.009      474.920      259.114        0.104        0.043       34.859        9.436        0.073      331.862        0.150      861.175
12/18/2013  09:04:00      -16.019       13.070       -2.654       33.970       19.399        9.868     1153.965      376.330       97.368        0.103        0.081       20.674        8.360        0.164      331.889        0.196      861.214
12/18/2013  09:05:00      -72.513      -11.596        0.184       20.475       20.565       14.062      419.215      422.900      197.728        0.322        0.052       73.434        7.057        0.009      331.960        0.311      861.212
12/18/2013  09:06:00      -40.603       15.587        0.460       29.880       24.137       13.502      892.796      582.611      182.301        0.177        0.083       43.492       11.345        0.068      331.946        0.290      861.151
12/18/2013  09:07:00       -8.834       -3.369       10.736       12.009        6.842       10.796      144.213       46.809      116.563        0.026        0.015        9.455        9.295        0.966      332.090        0.528      861.108
12/18/2013  09:08:00      -15.745       -0.977        5.204       26.072       16.123       12.689      679.757      259.945      161.015        0.069        0.055       15.775       13.139        0.694      332.026        0.422      861.133
12/18/2013  09:09:00        6.089       -8.520        6.981       16.091       16.645       11.533      258.932      277.053      133.011        0.041        0.033       10.472       10.054        0.922      332.065        0.486      861.121
12/18/2013  09:10:00      -31.787       -1.116        6.245       10.422        9.060        7.971      108.623       82.090       63.535        0.065        0.013       31.806        7.255        0.052      332.004        0.386      861.089
12/18/2013  09:11:00      -34.054      -17.902       -4.324       17.619       14.121       11.582      310.436      199.403      134.134        0.107        0.032       38.473        7.252        0.036      332.037        0.440      861.151
12/18/2013  09:12:00       14.034      -49.937        3.435       20.695       39.768       18.428      428.291     1581.526      339.600        0.253        0.117       51.872       24.541        0.224      332.145        0.617      861.189
12/18/2013  09:13:00       35.037       48.743       18.080       22.404        9.857       19.149      501.959       97.165      366.703        0.245        0.048       60.029        6.100        0.010      332.039        0.444      861.131
12/18/2013  09:14:00        6.766       75.620      -17.560       17.286       15.319        9.587      298.815      234.674       91.918        0.335        0.031       75.922        6.875        0.008      331.951        0.297      861.100
12/18/2013  09:15:00       34.261       30.740        0.938       20.974       18.355       17.775      439.894      336.903      315.958        0.161        0.055       46.031       12.441        0.073      332.031        0.431      861.128
12/18/2013  09:16:00       12.837       36.638       12.699       13.500       16.046       12.860      182.237      257.485      165.391        0.114        0.030       38.822        4.103        0.011      332.033        0.432      861.132
12/18/2013  09:17:00       -0.813       31.888        5.480       10.728       16.647       12.274      115.093      277.106      150.660        0.080        0.027       31.898       10.347        0.105      332.031        0.429      861.109
12/18/2013  09:18:00       40.384       71.769       59.219       30.615       41.800       39.770      937.288     1747.205     1581.652        0.728        0.213       82.351       34.361        0.174      332.089        0.526      861.098
12/18/2013  09:19:00       94.548      112.340       82.871       75.184       45.168       49.022     5652.634     2040.146     2403.202        1.926        0.505      146.832       54.671        0.139      332.005        0.387      861.063
12/18/2013  09:20:00       69.347       31.990       49.987       49.264       45.824       40.362     2426.924     2099.832     1629.102        0.724        0.308       76.370       32.268        0.179      331.988        0.359      861.058
12/18/2013  09:21:00       68.928       46.221       49.604       30.898       30.011       30.033      954.681      900.635      901.962        0.605        0.138       82.991       20.561        0.061      331.863        0.152      861.110
12/18/2013  09:22:00       65.039       53.579       39.669       39.871       29.037       34.865     1589.689      843.172     1215.599        0.616        0.182       84.266       20.766        0.061      331.911        0.233      861.184
12/18/2013  09:23:00       69.642       41.783       28.320       45.461       31.049       31.230     2066.726      964.045      975.340        0.570        0.200       81.215       14.295        0.031      332.022        0.414      861.153
12/18/2013  09:24:00       67.005       37.252        9.995       34.572       29.000       24.023     1195.193      841.023      577.106        0.429        0.131       76.664        9.353        0.015      331.933        0.266      861.107
12/18/2013  09:25:00       18.758       75.186      -11.053       26.288       30.577       15.981      691.039      934.968      255.379        0.400        0.094       77.491       17.845        0.053      331.844        0.121      861.137
12/18/2013  09:26:00       36.380       60.728       -7.184       23.986       33.319       19.981      575.317     1110.174      399.222        0.357        0.104       70.791       20.911        0.087      331.868        0.161      861.148
12/18/2013  09:27:00       76.872       49.303       -3.179       28.422       17.274       17.016      807.824      298.396      289.539        0.487        0.070       91.324       15.590        0.029      331.864        0.155      861.151
12/18/2013  09:28:00       39.322       14.562       -4.574       30.664       22.483       20.652      940.287      505.482      426.517        0.183        0.094       41.932       16.062        0.147      331.871        0.166      861.178
12/18/2013  09:29:00       -5.814       45.621       -5.236        7.441       34.092       11.575       55.363     1162.295      133.977        0.175        0.068       45.990       17.237        0.140      331.868        0.160      861.163
12/18/2013  09:30:00      -19.100       55.904       -0.386       21.562       35.274       19.605      464.915     1244.257      384.355        0.279        0.105       59.077        8.095        0.019      331.992        0.364      861.148
12/18/2013  09:31:00       -5.320        8.997        5.637       16.948       15.181       14.935      287.251      230.459      223.058        0.044        0.037       10.453       10.688        1.046      332.148        0.621      861.170
12/18/2013  09:32:00      -46.719       -8.320       -1.013       40.840       13.702       15.222     1667.943      187.748      231.711        0.217        0.104       47.454       20.083        0.179      332.045        0.454      861.219
12/18/2013  09:33:00      -92.690      -16.334      -12.786       24.791       12.663       13.382      614.578      160.346      179.082        0.499        0.048       94.119       14.538        0.024      332.006        0.390      861.229
12/18/2013  09:34:00      -22.378      -14.627       -1.678       19.704       15.825       11.426      388.253      250.437      130.546        0.074        0.038       26.734        8.569        0.103      332.078        0.508      861.168
12/18/2013  09:35:00       11.971       52.175       40.410       21.473       30.749       20.973      461.099      945.476      439.873        0.317        0.092       53.531        9.389        0.031      332.139        0.608      861.163
12/18/2013  09:36:00       36.875       53.186       50.571       36.278       26.987       25.166     1316.126      728.324      633.323        0.471        0.134       64.719       18.799        0.084      332.087        0.521      861.208
12/18/2013  09:37:00       39.292       -0.315       34.789       31.511       68.288       29.878      992.953     4663.303      892.683        0.465        0.327       39.293       33.629        0.732      332.120        0.576      861.185
12/18/2013  09:38:00       29.866       49.830       45.304       30.904       37.973       40.572      955.032     1441.922     1646.103        0.473        0.202       58.095       29.275        0.254      332.093        0.530      861.132
12/18/2013  09:39:00        9.148       48.380       77.315       26.775       30.027       19.826      716.877      901.606      393.053        0.521        0.101       49.237       19.277        0.153      332.103        0.547      861.104
12/18/2013  09:40:00       30.685       59.309       71.744       35.199       40.733       20.097     1238.937     1659.164      403.870        0.645        0.165       66.777       20.331        0.093      332.111        0.561      861.136
12/18/2013  09:41:00       -3.453       15.539       17.325       21.911       21.907       15.814      480.105      479.925      250.083        0.088        0.061       15.918       12.591        0.626      332.156        0.635      861.151
12/18/2013  09:42:00       16.920       21.862       22.784       34.325       24.696       14.526     1178.235      609.913      211.019        0.164        0.100       27.645        5.334        0.037      332.188        0.688      861.113
12/18/2013  09:43:00       87.107       63.876        8.214       15.925       20.117       16.645      253.615      404.705      277.068        0.634        0.047      108.018        7.663        0.005      331.919        0.246      861.060
12/18/2013  09:44:00       71.318       45.274        0.469       27.662       18.408       18.607      765.187      338.851      346.236        0.429        0.073       84.475       14.156        0.028      331.977        0.340      861.063
12/18/2013  09:45:00       31.974       24.760       33.979       25.678       16.675       17.238      659.362      278.045      297.151        0.201        0.062       40.440       10.282        0.065      332.058        0.475      861.089
12/18/2013  09:46:00       28.642       15.785       30.247       22.931       11.764        9.544      525.816      138.392       91.095        0.137        0.038       32.704        5.864        0.032      332.124        0.583      861.086
12/18/2013  09:47:00       66.984       64.331       41.624       49.573       45.171       37.047     2457.485     2040.414     1372.471        0.811        0.294       92.873       31.286        0.113      332.101        0.544      861.013
12/18/2013  09:48:00       62.090       48.523       45.592       34.907       29.307       29.162     1218.465      858.900      850.398        0.561        0.146       78.801       21.324        0.073      332.055        0.470      861.017
12/18/2013  09:49:00       47.790       18.693       20.712       32.277       34.113       29.231     1041.787     1163.681      854.452        0.306        0.153       51.316       23.550        0.211      332.140        0.609      861.015
12/18/2013  09:50:00       49.323       47.765       39.989       35.495       28.716       24.392     1259.921      824.633      594.961        0.450        0.134       68.660       14.247        0.043      332.169        0.657      860.973
12/18/2013  09:51:00       91.045       60.056       29.624       38.253       26.075       28.719     1463.292      679.880      824.797        0.787        0.148      109.069       18.923        0.030      332.109        0.556      860.959
12/18/2013  09:52:00       67.231       40.373       13.860       33.092       20.267       13.680     1095.087      410.733      187.141        0.402        0.085       78.422       11.019        0.020      332.044        0.450      860.962
12/18/2013  09:53:00       68.475       38.029        1.806       21.232       18.264       15.383      450.798      333.561      236.638        0.358        0.051       78.326       11.273        0.021      332.059        0.475      860.993
12/18/2013  09:54:00       67.109       40.221        2.335       26.329       16.741       19.198      693.222      280.256      368.557        0.373        0.067       78.239       14.273        0.033      332.088        0.523      860.980
12/18/2013  09:55:00       17.922       66.408      -10.295       26.016       24.078       15.189      676.819      579.757      230.700        0.316        0.074       68.784       11.424        0.028      332.064        0.486      860.970
12/18/2013  09:56:00        4.189       62.617       -9.710       11.458       18.122        9.776      131.294      328.415       95.572        0.229        0.028       62.757        9.725        0.024      332.056        0.469      861.005
12/18/2013  09:57:00      -15.736       64.278       -6.786       25.552       27.850       12.020      652.925      775.646      144.485        0.300        0.079       66.176       12.533        0.036      332.158        0.638      860.996
12/18/2013  09:58:00      -15.164       15.694        7.090       28.508       13.315       11.327      812.703      177.302      128.312        0.082        0.056       21.823        8.703        0.159      332.217        0.736      861.001
12/18/2013  09:59:00       33.199       22.038        5.633       16.344       16.609       11.671      267.114      275.870      136.216        0.115        0.034       39.848        7.732        0.038      332.219        0.739      860.998
12/18/2013  10:00:00       39.917       39.082        6.705       22.644       15.760       14.734      512.754      248.363      217.095        0.207        0.049       55.864        7.639        0.019      332.165        0.651      860.971
12/18/2013  10:01:00       12.158       26.439       30.157       16.403       21.152       13.620      269.070      447.395      185.499        0.133        0.045       29.100        9.684        0.111      332.277        0.835      860.933
12/18/2013  10:02:00       47.533       24.264       13.946       21.100       17.276       20.358      445.203      298.465      414.431        0.210        0.058       53.368        9.349        0.031      332.165        0.652      860.892
12/18/2013  10:03:00       60.890       49.699       27.906       29.947       32.552       25.707      896.834     1059.642      660.872        0.479        0.131       78.598       19.366        0.061      332.154        0.632      860.841
12/18/2013  10:04:00       32.071       45.660       33.089       30.242       27.656       16.691      914.582      764.851      278.583        0.308        0.098       55.798        9.131        0.027      332.189        0.690      860.821
12/18/2013  10:05:00       28.461       29.922       27.208       17.775       24.439       14.173      315.943      597.261      200.863        0.178        0.056       41.295        9.732        0.056      332.119        0.575      860.835
12/18/2013  10:06:00       71.851       56.513       19.406       30.747       16.662       16.924      945.403      277.623      286.433        0.512        0.075       91.413       15.915        0.030      332.065        0.487      860.773
12/18/2013  10:07:00       76.016       37.397       12.552       44.761       26.270       26.305     2003.561      690.110      691.951        0.536        0.169       84.717       28.952        0.117      332.150        0.626      860.678
12/18/2013  10:08:00       86.135       40.315        4.700       26.705       21.606       25.417      713.176      466.840      646.044        0.545        0.091       95.103       15.669        0.027      332.144        0.617      860.676
12/18/2013  10:09:00       40.707       33.426       21.588       25.869       26.182       21.186      669.209      685.518      448.860        0.252        0.090       52.672       14.825        0.079      332.197        0.704      860.735
12/18/2013  10:10:00       64.684       66.791        8.053       28.678       25.654       28.691      822.408      658.106      823.151        0.551        0.115       92.979       19.336        0.043      332.089        0.524      860.701
12/18/2013  10:11:00       42.588       38.126        5.746       24.076       35.534       26.178      579.656     1262.633      685.284        0.291        0.126       57.160       22.535        0.155      332.180        0.674      860.665
12/18/2013  10:12:00       39.084       25.311       21.634       13.924       15.091       14.333      193.887      227.752      205.430        0.163        0.031       46.564        9.467        0.041      332.188        0.690      860.700
12/18/2013  10:13:00       25.664       37.228        8.749       14.874       17.487       15.834      221.240      305.797      250.727        0.145        0.039       45.217       16.017        0.125      332.143        0.613      860.716
12/18/2013  10:14:00       70.365       62.910       51.840       32.429       29.850       26.945     1051.611      890.993      726.033        0.713        0.133       94.388       18.663        0.039      332.192        0.695      860.686
12/18/2013  10:15:00      136.058       52.202       27.532       49.319       45.076       43.293     2432.373     2031.834     1874.320        1.417        0.317      145.729       29.529        0.041      332.146        0.619      860.640
12/18/2013  10:16:00       84.572       58.512       42.110       49.499       30.570       21.537     2450.180      934.498      463.863        0.810        0.192      102.840       12.206        0.014      332.110        0.557      860.640
12/18/2013  10:17:00       76.546       77.761       65.241       33.877       23.216       25.226     1147.680      538.972      636.334        0.924        0.116      109.115       18.682        0.029      332.131        0.596      860.665
12/18/2013  10:18:00       11.667      -22.352       26.786       34.050       56.262       23.688     1159.387     3165.373      561.098        0.312        0.244       25.214       21.339        0.716      332.352        0.959      860.666
12/18/2013  10:19:00       73.957       22.305       33.561       46.094       32.093       26.296     2124.625     1029.987      691.477        0.547        0.192       77.247       18.375        0.057      332.270        0.823      860.622
12/18/2013  10:20:00      106.241       82.942       35.954       29.691       30.580       31.742      881.568      935.148     1007.563        1.114        0.141      134.783       13.949        0.011      332.176        0.669      860.605
12/18/2013  10:21:00       56.610       71.996       73.818       44.356       49.080       28.866     1967.453     2408.816      833.228        0.952        0.260       91.587       29.476        0.104      332.290        0.857      860.642
12/18/2013  10:22:00       54.965       45.122       36.944       33.792       29.087       23.544     1141.870      846.030      554.329        0.448        0.127       71.113       14.327        0.041      332.221        0.744      860.649
12/18/2013  10:23:00       98.938       44.755       11.756       29.347       26.388       24.694      861.222      696.348      609.775        0.705        0.108      108.590       12.960        0.014      332.085        0.521      860.647
12/18/2013  10:24:00       53.830       41.961       41.197       33.224       32.343       26.371     1103.854     1046.069      695.419        0.460        0.142       68.252       22.280        0.107      332.184        0.682      860.714
12/18/2013  10:25:00       47.413       55.988       55.144       35.161       29.695       21.201     1236.315      881.776      449.470        0.550        0.128       73.367       18.605        0.064      332.216        0.735      860.745
12/18/2013  10:26:00       86.308       54.563        7.871       28.197       19.414       22.144      795.067      376.902      490.366        0.607        0.083      102.109        9.638        0.009      332.173        0.663      860.706
12/18/2013  10:27:00       50.296       30.675       19.457       40.053       33.821       28.293     1604.272     1143.882      800.505        0.370        0.177       58.912        9.855        0.028      332.292        0.861      860.667
12/18/2013  10:28:00       36.211       89.270       88.553       43.006       33.706       22.413     1849.502     1136.092      502.351        1.030        0.174       96.334       20.207        0.044      332.320        0.905      860.659
12/18/2013  10:29:00       30.285       73.635       76.428       48.483       43.735       30.195     2350.616     1912.714      911.767        0.868        0.259       79.620       30.338        0.145      332.346        0.948      860.629
12/18/2013  10:30:00       76.655       66.528       43.352       34.360       27.084       27.741     1180.577      733.523      769.558        0.743        0.134      101.498       18.073        0.032      332.286        0.850      860.594
12/18/2013  10:31:00       46.460       20.621       11.279       29.557       21.489       16.982      873.612      461.783      288.375        0.217        0.081       50.830       16.996        0.112      332.303        0.879      860.593
12/18/2013  10:32:00       70.603       69.862       48.037       48.393       32.366       44.045     2341.913     1047.543     1939.990        0.875        0.266       99.325       37.134        0.140      332.359        0.970      860.556
12/18/2013  10:33:00      133.369       78.316       25.715       46.104       30.663       26.397     2125.612      940.242      696.795        1.417        0.188      154.664        1.530        0.000      332.269        0.822      860.475
12/18/2013  10:34:00       88.209       48.807       12.796       23.700       26.062       27.151      561.684      679.204      737.192        0.615        0.099      100.812       19.695        0.038      332.247        0.786      860.429
12/18/2013  10:35:00       31.206       36.553       -0.538       30.397       25.732       18.435      923.996      662.153      339.867        0.212        0.096       48.062       10.472        0.047      332.244        0.781      860.409
12/18/2013  10:36:00       30.734       31.994       -1.423       15.662       25.893       17.057      245.291      670.440      290.947        0.159        0.060       44.365       11.217        0.064      332.255        0.799      860.419
12/18/2013  10:37:00      -15.335        0.397        1.744       10.193       11.919        8.536      103.894      142.062       72.865        0.028        0.016       15.340        4.878        0.101      332.363        0.975      860.468
12/18/2013  10:38:00       -1.869       37.995       -2.631       21.262       19.370       11.960      452.075      375.216      143.033        0.121        0.049       38.041       14.261        0.141      332.228        0.755      860.422
12/18/2013  10:39:00       59.164       50.688       -5.507       23.244       25.037       20.568      540.266      626.846      423.024        0.384        0.080       77.908       16.403        0.044      332.283        0.846      860.287
12/18/2013  10:40:00       86.941       34.821        1.498       38.480       27.393       27.058     1480.729      750.370      732.157        0.587        0.148       93.654       17.350        0.034      332.331        0.924      860.227
12/18/2013  10:41:00       49.323       34.621       41.028       42.126       31.539       24.410     1774.581      994.699      595.871        0.434        0.168       60.260       12.537        0.043      332.394        1.028      860.250
12/18/2013  10:42:00       22.596       53.020       52.863       29.790       27.975       23.260      887.416      782.627      541.009        0.416        0.111       57.635       19.073        0.110      332.394        1.027      860.280
12/18/2013  10:43:00       29.831       44.165       54.009       47.136       37.423       26.989     2221.787     1400.506      728.404        0.505        0.218       53.296       19.555        0.135      332.466        1.147      860.260
12/18/2013  10:44:00       64.169       50.606       53.061       42.573       41.382       33.103     1812.433     1712.441     1095.837        0.706        0.231       81.723       28.178        0.119      332.402        1.039      860.206
12/18/2013  10:45:00       70.078       84.325       48.982       42.242       31.133       36.684     1784.404      969.292     1345.749        0.926        0.205      109.644       25.693        0.055      332.395        1.030      860.182
12/18/2013  10:46:00      124.749       74.418       10.560       38.967       29.339       27.173     1518.421      860.767      738.383        1.216        0.156      145.260       18.706        0.017      332.312        0.894      860.151
12/18/2013  10:47:00      159.568       80.073       15.038       32.972       30.389       26.645     1087.134      923.485      709.959        1.741        0.136      178.532       19.040        0.011      332.272        0.827      860.092
12/18/2013  10:48:00       62.243       55.965       46.211       33.673       29.059       28.344     1133.901      844.432      803.408        0.596        0.139       83.703       21.324        0.065      332.346        0.949      860.110
12/18/2013  10:49:00        7.788        8.182       24.670       22.428       15.265       13.183      503.020      233.033      173.797        0.082        0.045       11.296       11.686        1.070      332.528        1.249      860.191
12/18/2013  10:50:00       33.158       44.827       59.947       32.615       53.351       39.746     1063.755     2846.289     1579.728        0.610        0.274       55.758       39.889        0.512      332.467        1.149      860.203
12/18/2013  10:51:00      175.745      100.146       25.672       46.008       38.017       35.696     2116.694     1445.257     1274.181        2.320        0.242      202.276       22.619        0.013      332.386        1.013      860.023
12/18/2013  10:52:00      136.025       92.877       30.140       47.295       45.369       46.661     2236.782     2058.360     2177.281        1.725        0.324      164.709       20.970        0.016      332.436        1.097      859.953
12/18/2013  10:53:00       -7.678        3.034       16.649       36.903       35.983       17.305     1361.824     1294.745      299.461        0.165        0.148        8.256       18.839        5.208      332.507        1.215      860.075
12/18/2013  10:54:00       15.134       86.245        4.744       26.135       39.329       26.991      683.019     1546.763      728.495        0.532        0.148       87.562       26.952        0.095      332.353        0.961      860.051
12/18/2013  10:55:00       80.839      101.379       -8.298       54.667       45.919       32.853     2988.495     2108.512     1079.333        1.153        0.309      129.664       28.381        0.048      332.315        0.898      859.924
12/18/2013  10:56:00       63.430       52.436       54.626       55.604       45.228       36.927     3091.846     2045.552     1363.636        0.813        0.325       82.298       22.846        0.077      332.416        1.064      859.936
12/18/2013  10:57:00       27.901       53.608       61.824       29.996       29.368       16.902      899.764      862.456      285.680        0.476        0.102       60.434       17.147        0.081      332.446        1.111      859.979
12/18/2013  10:58:00       93.621       86.078       27.422       36.553       25.253       38.703     1336.088      637.727     1497.892        1.020        0.174      127.178       20.207        0.025      332.370        0.988      859.901
12/18/2013  10:59:00       92.704       43.851        8.642       42.977       37.610       27.855     1846.999     1414.476      775.877        0.731        0.202      102.552       16.695        0.027      332.391        1.023      859.853
12/18/2013  11:00:00       70.928       48.199       -2.571       30.892       17.244       20.714      954.307      297.359      429.063        0.452        0.084       85.755        9.931        0.013      332.334        0.929      859.880
12/18/2013  11:01:00       57.322       75.511       -2.166       27.331       37.036       26.968      746.986     1371.634      727.264        0.592        0.142       94.804       25.104        0.070      332.355        0.963      859.830
12/18/2013  11:02:00       39.082       29.077       -4.718       41.057       36.138       20.177     1685.695     1305.983      407.100        0.290        0.170       48.712       13.879        0.081      332.387        1.015      859.779
12/18/2013  11:03:00        2.358      -20.652        9.295       17.224       15.916       15.641      296.670      253.305      244.639        0.066        0.040       20.786        9.880        0.226      332.629        1.417      859.834
12/18/2013  11:04:00      -67.392       13.171       -4.936       18.275       20.434       14.415      333.979      417.555      207.792        0.285        0.048       68.667       11.764        0.029      332.449        1.118      859.872
12/18/2013  11:05:00      -54.434      -20.529        3.447       29.509       21.171       15.463      870.752      448.196      239.096        0.248        0.078       58.177       16.822        0.084      332.582        1.338      859.815
12/18/2013  11:06:00      -44.709       46.670        0.243       24.644       21.300       17.852      607.341      453.687      318.678        0.278        0.069       64.629       17.837        0.076      332.485        1.179      859.675
12/18/2013  11:07:00       -0.040       48.048        1.417       26.288       34.995       19.698      691.083     1224.683      388.009        0.231        0.115       48.048       18.020        0.141      332.611        1.387      859.534
12/18/2013  11:08:00       29.682       67.704       -9.893       24.147       31.405       22.461      583.057      986.299      504.486        0.382        0.104       73.925       11.403        0.024      332.562        1.306      859.505
12/18/2013  11:09:00      -99.611      -25.709      -15.190       56.720       41.028       25.157     3217.120     1683.306      632.862        0.817        0.277      102.875       15.581        0.023      332.621        1.403      859.605
12/18/2013  11:10:00      -92.825      -70.629       -1.998       68.679       45.370       26.198     4716.817     2058.397      686.360        1.053        0.373      116.640       30.304        0.068      332.702        1.536      859.637
12/18/2013  11:11:00      -30.076        3.053        1.544       23.045       15.945       17.173      531.074      254.238      294.919        0.100        0.054       30.231       15.630        0.267      332.687        1.511      859.484
12/18/2013  11:12:00      -74.616        5.484       -9.512       24.918       24.212       10.970      620.919      586.203      120.334        0.351        0.066       74.817        7.895        0.011      332.621        1.403      859.434
12/18/2013  11:13:00      -91.933      -35.554       -0.013       39.699       40.293       26.900     1576.035     1623.491      723.631        0.682        0.196       98.569       25.826        0.069      332.657        1.463      859.464
12/18/2013  11:14:00     -159.067       25.886      -14.289       36.609       32.218       17.190     1340.248     1038.013      295.484        1.442        0.134      161.160       12.129        0.006      332.648        1.446      859.409
12/18/2013  11:15:00     -137.596       18.708      -11.400       40.304       40.685       17.777     1624.429     1655.256      316.020        1.150        0.180      138.862       18.478        0.018      332.619        1.401      859.337
12/18/2013  11:16:00      -61.539      -22.849       -4.267       23.314       28.719       16.326      543.556      824.754      266.554        0.298        0.082       65.644       14.147        0.046      332.656        1.461      859.299
12/18/2013  11:17:00      -55.560       -6.910       -6.883       40.411       16.788       15.238     1633.037      281.838      232.192        0.266        0.107       55.988       20.420        0.133      332.605        1.375      859.312
12/18/2013  11:18:00       -7.736      -25.573       -7.999       33.924       10.865       15.847     1150.831      118.055      251.118        0.115        0.076       26.717       18.395        0.474      332.664        1.474      859.295
12/18/2013  11:19:00     -105.718      -17.870      -15.272       26.630       23.544       13.537      709.167      554.333      183.247        0.659        0.072      107.218       11.138        0.011      332.674        1.490      859.296
12/18/2013  11:20:00      -69.805      -64.981        5.214       35.578       46.986       21.952     1265.759     2207.673      481.874        0.654        0.198       95.369       19.076        0.040      332.841        1.767      859.314
12/18/2013  11:21:00      -70.394        2.295        0.594       26.486       28.616       11.871      701.485      818.861      140.928        0.331        0.083       70.431       11.447        0.026      332.771        1.651      859.267
12/18/2013  11:22:00      -50.528       44.716       -3.414       20.212       20.969       12.112      408.520      439.691      146.690        0.278        0.050       67.472        9.413        0.019      332.766        1.643      859.152
12/18/2013  11:23:00      -35.549       18.124       -0.798       11.647       13.124       12.108      135.655      172.236      146.601        0.102        0.023       39.902        6.042        0.023      332.884        1.838      859.118
12/18/2013  11:24:00      -37.597      -12.000       -3.090       13.981       17.010        7.235      195.454      289.354       52.351        0.105        0.027       39.466        5.942        0.023      332.933        1.918      859.118
12/18/2013  11:25:00       -1.856      -11.995       12.639       17.577       12.301       14.426      308.962      151.319      208.101        0.049        0.033       12.138       12.704        1.095      333.167        2.305      859.081
12/18/2013  11:26:00      -52.349      -11.197        1.791       29.156       19.052       11.314      850.085      362.961      128.012        0.210        0.067       53.533       12.217        0.052      332.979        1.995      859.028
12/18/2013  11:27:00      -86.461      -33.567       -0.582       41.124       40.932       20.916     1691.222     1675.414      437.492        0.620        0.190       92.748       11.326        0.015      332.916        1.891      859.008
12/18/2013  11:28:00      -95.081       -3.714      -13.705       29.919       33.458       18.156      895.173     1119.418      329.641        0.579        0.117       95.154       12.465        0.017      332.879        1.829      858.958
12/18/2013  11:29:00     -112.036       -8.425       -6.292       35.452       48.778       19.784     1256.879     2379.312      391.422        0.834        0.201      112.353       20.708        0.034      332.817        1.727      858.942
12/18/2013  11:30:00      -84.780       67.753      -18.777       21.398       21.820       16.102      457.885      476.093      259.272        0.666        0.060      108.528        9.708        0.008      332.738        1.596      858.905
12/18/2013  11:31:00      -69.919       22.688      -12.765       14.168       18.637       13.967      200.721      347.342      195.070        0.315        0.037       73.508        6.229        0.007      332.739        1.597      858.891
12/18/2013  11:32:00       -1.527       15.157        8.746       21.645       30.720       21.408      468.522      943.740      458.307        0.109        0.094       15.234       15.192        0.994      332.872        1.818      858.870
12/18/2013  11:33:00      -76.477       15.486      -14.994       57.418       31.227       13.590     3296.872      975.132      184.696        0.538        0.223       78.029       12.843        0.027      332.800        1.698      858.887
12/18/2013  11:34:00      -81.469       18.288      -10.941       26.551       26.005       16.650      704.971      676.245      277.239        0.437        0.083       83.497       14.729        0.031      332.866        1.809      858.862
12/18/2013  11:35:00      -62.688       60.557       -9.092       25.044       20.596       16.762      627.226      424.183      280.974        0.451        0.067       87.160       10.643        0.015      332.817        1.728      858.776
12/18/2013  11:36:00      -45.792       62.416      -10.483       27.543       38.788       19.516      758.637     1504.477      380.868        0.437        0.132       77.412        8.414        0.012      332.903        1.869      858.764
12/18/2013  11:37:00      -39.781       74.180       -8.064       15.292       24.743       13.362      233.839      612.195      178.541        0.409        0.051       84.173       12.074        0.021      332.777        1.661      858.760
12/18/2013  11:38:00      -13.489       18.824        0.757       16.285       18.107       14.476      265.211      327.869      209.550        0.067        0.040       23.158        8.238        0.127      332.955        1.955      858.728
12/18/2013  11:39:00      -75.212       17.566      -10.480       28.121       28.494        9.803      790.811      811.936       96.096        0.389        0.085       77.236        3.974        0.003      332.830        1.750      858.708
12/18/2013  11:40:00      -73.695        4.068      -12.159       15.977        7.457        8.101      255.263       55.609       65.632        0.299        0.019       73.807        8.125        0.012      332.807        1.711      858.690
12/18/2013  11:41:00      -36.499       -6.764       -6.053       13.640       18.965        9.268      186.055      359.687       85.888        0.102        0.032       37.121        9.619        0.067      332.882        1.836      858.661
12/18/2013  11:42:00       15.140       42.527       18.047       19.184       17.154       18.305      368.037      294.274      335.069        0.168        0.050       45.142       11.475        0.065      332.974        1.987      858.568
12/18/2013  11:43:00       47.999       64.835       -1.751       28.220       22.349       17.641      796.387      499.490      311.211        0.406        0.080       80.669       15.805        0.038      332.952        1.950      858.474
12/18/2013  11:44:00       51.833       39.638        2.703       23.994       15.562       18.359      575.721      242.180      337.053        0.271        0.058       65.252       13.070        0.040      332.971        1.980      858.426
12/18/2013  11:45:00       43.846       24.351       30.125       33.756       34.663       25.620     1139.452     1201.553      656.375        0.321        0.150       50.154       18.968        0.143      333.062        2.131      858.390
12/18/2013  11:46:00       73.885       36.131       34.296       36.849       29.659       30.384     1357.856      879.670      923.192        0.555        0.158       82.246       19.372        0.055      332.989        2.011      858.384
12/18/2013  11:47:00       69.681       45.547       32.024       39.005       25.882       30.079     1521.417      669.871      904.727        0.553        0.155       83.247       18.079        0.047      333.065        2.137      858.382
12/18/2013  11:48:00       77.105       40.496       12.819       41.790       28.070       27.459     1746.435      787.932      754.015        0.552        0.164       87.093       17.103        0.039      332.984        2.003      858.359
12/18/2013  11:49:00       41.485        1.368        2.648       17.860       18.233       17.355      318.990      332.448      301.193        0.134        0.048       41.508        8.140        0.038      332.928        1.910      858.355
12/18/2013  11:50:00       31.070       -6.368        1.374       19.121       25.984       14.134      365.622      675.169      199.779        0.112        0.062       31.716        9.296        0.086      332.996        2.022      858.404
12/18/2013  11:51:00       30.131       18.548       46.147       45.290       34.930       20.066     2051.201     1220.121      402.650        0.353        0.184       35.382       26.733        0.571      333.082        2.164      858.412
12/18/2013  11:52:00       30.684       54.669       50.711       25.557       25.687       23.845      653.181      659.830      568.561        0.419        0.094       62.691       17.214        0.075      333.046        2.105      858.295
12/18/2013  11:53:00       36.551       15.176        5.421       12.801       15.407       11.556      163.877      237.387      133.548        0.107        0.027       39.576       11.302        0.082      332.963        1.966      858.257
12/18/2013  11:54:00       60.857       25.817       11.281       26.348       24.839       18.999      694.196      616.968      360.966        0.308        0.084       66.107       12.234        0.034      333.056        2.122      858.211
12/18/2013  11:55:00       61.920       32.280       15.130       20.875       17.959       22.021      435.759      322.531      484.932        0.317        0.062       69.829       15.122        0.047      333.066        2.137      858.195
12/18/2013  11:56:00       71.305       32.925        8.151       28.693       26.207       19.285      823.276      686.809      371.893        0.406        0.094       78.539       11.727        0.022      333.042        2.099      858.161
12/18/2013  11:57:00      106.919       70.034        1.661       26.726       20.970       17.075      714.290      439.735      291.572        0.889        0.072      127.814        4.595        0.001      332.963        1.968      858.119
12/18/2013  11:58:00       46.803       31.278       -0.697       41.427       25.656       21.467     1716.223      658.223      460.846        0.300        0.142       56.292       19.038        0.114      333.004        2.034      858.110
12/18/2013  11:59:00       25.527       30.116        2.272       17.960       24.397       18.228      322.563      595.207      332.260        0.141        0.063       39.479       15.961        0.163      333.105        2.203      858.086
12/18/2013  12:00:00       24.863       48.482      -12.762       12.082       28.493       11.209      145.964      811.851      125.637        0.211        0.054       54.486       10.475        0.037      333.031        2.081      858.062
12/18/2013  12:01:00       16.441       31.381       -0.890       17.335       11.891       11.146      300.503      141.391      124.239        0.091        0.028       35.428       10.468        0.087      333.094        2.185      858.041
12/18/2013  12:02:00      -48.362       -7.416       -8.535       29.186       16.804       12.749      851.797      282.370      162.532        0.188        0.065       48.927        8.628        0.031      333.122        2.230      858.074
12/18/2013  12:03:00        9.456       41.465        8.528       38.820       30.536       20.504     1506.997      932.438      420.399        0.237        0.143       42.530       16.046        0.142      333.185        2.334      858.042
12/18/2013  12:04:00        9.167       66.288       78.818       32.921       42.893       23.325     1083.805     1839.791      544.069        0.708        0.173       66.919       23.877        0.127      333.281        2.493      857.978
12/18/2013  12:05:00       51.631       61.862       89.603       52.983       35.711       34.477     2807.175     1275.282     1188.692        0.990        0.264       80.577       20.291        0.063      333.261        2.461      857.894
12/18/2013  12:06:00       12.704       47.271       58.065       38.089       31.725       25.945     1450.739     1006.451      673.153        0.445        0.157       48.948       24.575        0.252      333.306        2.534      857.868
12/18/2013  12:07:00       86.461       56.437       23.782       27.859       34.066       31.279      776.107     1160.459      978.400        0.707        0.146      103.251       16.238        0.025      333.157        2.289      857.821
12/18/2013  12:08:00       80.537       42.675        6.253       33.092       30.490       20.186     1095.104      929.642      407.485        0.539        0.122       91.144       17.866        0.038      333.157        2.289      857.750
12/18/2013  12:09:00       59.652       33.417        2.283       43.279       40.066       25.574     1873.042     1605.308      654.050        0.441        0.207       68.374       20.535        0.090      333.201        2.360      857.745
12/18/2013  12:10:00      132.436       76.336        4.712       36.913       30.334       27.296     1362.539      920.164      745.068        1.321        0.151      152.861       19.945        0.017      333.105        2.203      857.705
12/18/2013  12:11:00       87.060       98.228       68.665       63.424       33.197       41.571     4022.631     1102.048     1728.181        1.440        0.343      131.256       33.390        0.065      333.209        2.373      857.663
12/18/2013  12:12:00       33.290       46.690       26.785       66.421       35.922       33.716     4411.766     1290.374     1136.766        0.542        0.342       57.342       15.755        0.075      333.270        2.473      857.669
12/18/2013  12:13:00       12.257      -15.718       -4.056       20.724       23.763       17.949      429.488      564.686      322.157        0.086        0.066       19.932       15.316        0.590      333.255        2.449      857.666
12/18/2013  12:14:00      125.991       81.234       26.447       44.676       25.477       30.894     1995.948      649.086      954.423        1.339        0.180      149.908       22.588        0.023      333.113        2.214      857.571
12/18/2013  12:15:00       86.786       80.139       46.603       42.545       38.952       44.206     1810.116     1517.268     1954.127        1.070        0.264      118.128       33.632        0.081      333.199        2.357      857.542
12/18/2013  12:16:00       37.602        5.327       45.584       34.499       57.930       25.946     1190.181     3355.851      673.173        0.437        0.261       37.977       29.329        0.596      333.244        2.429      857.546
12/18/2013  12:17:00       77.731       19.287       44.702       39.037       75.420       38.488     1523.913     5688.248     1481.360        0.855        0.435       80.089       40.264        0.253      333.224        2.398      857.530
12/18/2013  12:18:00       72.992       49.905       59.925       47.220       34.685       36.586     2229.738     1203.024     1338.540        0.809        0.239       88.421       18.292        0.043      333.178        2.322      857.466
12/18/2013  12:19:00       92.628       70.981       59.673       55.822       43.381       37.356     3116.074     1881.936     1395.449        1.179        0.320      116.697       34.579        0.088      333.131        2.245      857.428
12/18/2013  12:20:00       64.134       41.991       36.309       21.832       24.963       22.980      476.615      623.175      528.088        0.441        0.081       76.658       18.943        0.061      333.161        2.292      857.430
12/18/2013  12:21:00       35.582       33.976       12.191       18.331       20.520       17.906      336.029      421.074      320.639        0.182        0.054       49.198        6.619        0.018      333.224        2.397      857.401
12/18/2013  12:22:00       50.190       54.553       29.937       16.200       23.789       18.865      262.439      565.930      355.897        0.379        0.059       74.129        9.789        0.017      333.233        2.414      857.370
12/18/2013  12:23:00       97.280       54.029       39.133       45.583       23.603       31.356     2077.787      557.081      983.226        0.877        0.181      111.277       23.953        0.046      333.253        2.446      857.351
12/18/2013  12:24:00      107.484       32.535       24.429       58.686       40.122       39.477     3444.105     1609.769     1558.418        0.991        0.331      112.300       19.663        0.031      333.204        2.366      857.333
12/18/2013  12:25:00      114.146       65.174        3.948       43.404       38.247       41.825     1883.889     1462.817     1749.348        1.119        0.255      131.442       19.667        0.022      333.256        2.451      857.325
12/18/2013  12:26:00       87.723       22.328       14.812       57.380       47.715       31.741     3292.500     2276.758     1007.480        0.749        0.329       90.520       22.469        0.062      333.189        2.340      857.335
12/18/2013  12:27:00       28.686       14.444       14.673       20.118       19.827       18.889      404.735      393.126      356.779        0.120        0.058       32.117        8.990        0.078      333.298        2.522      857.342
12/18/2013  12:28:00       58.059       52.190       33.881       32.137       24.647       28.167     1032.761      607.496      793.357        0.484        0.122       78.068       17.765        0.052      333.323        2.561      857.296
12/18/2013  12:29:00       91.318       72.640       34.875       57.031       42.358       34.086     3252.483     1794.214     1161.848        1.052        0.310      116.686       21.066        0.033      333.367        2.636      857.255
12/18/2013  12:30:00       79.359       99.996       65.851       48.439       43.213       38.583     2346.302     1867.330     1488.681        1.317        0.285      127.660       28.285        0.049      333.288        2.505      857.182
12/18/2013  12:31:00       57.376       37.561       40.331       46.165       35.971       28.734     2131.195     1293.929      825.667        0.529        0.213       68.577       20.356        0.088      333.261        2.460      857.126
12/18/2013  12:32:00       43.671       29.481       -8.063       37.514       29.692       20.621     1407.327      881.608      425.245        0.278        0.136       52.691       11.509        0.048      333.371        2.642      857.113
12/18/2013  12:33:00       53.655        3.343       -2.232       38.563       56.502       19.914     1487.127     3192.525      396.548        0.398        0.254       53.759       18.781        0.122      333.415        2.714      857.148
12/18/2013  12:34:00       56.987      -32.199       16.801       33.179       42.733       26.327     1100.855     1826.071      693.109        0.409        0.181       65.454       28.452        0.189      333.326        2.568      857.190
12/18/2013  12:35:00       47.056       59.004       48.701       33.933       37.547       26.935     1151.428     1409.811      725.503        0.568        0.164       75.470       26.177        0.120      333.365        2.631      857.128
12/18/2013  12:36:00       17.623       64.691       20.659       28.072       31.724       26.969      788.052     1006.411      727.344        0.372        0.126       67.049       22.894        0.117      333.339        2.588      857.055
12/18/2013  12:37:00       25.086       33.745       11.545       16.511       18.682       16.291      272.598      349.006      265.401        0.139        0.044       42.048       13.162        0.098      333.292        2.509      857.029
12/18/2013  12:38:00       40.794       21.061        7.102       27.678       16.866       12.263      766.063      284.447      150.385        0.168        0.060       45.909        6.995        0.023      333.326        2.567      856.964
12/18/2013  12:39:00       44.284       44.467       -2.105       31.025       24.637       21.190      962.558      606.974      449.002        0.298        0.101       62.757       11.691        0.035      333.363        2.630      856.889
12/18/2013  12:40:00       39.030      101.240      -14.684       24.008       39.140       21.511      576.390     1531.973      462.734        0.728        0.129      108.503       17.913        0.027      333.318        2.555      856.853
12/18/2013  12:41:00       32.402       54.997      -16.125       20.443       38.616       21.162      417.924     1491.227      447.826        0.335        0.118       63.832       12.942        0.041      333.302        2.527      856.866
12/18/2013  12:42:00        5.645       16.850       -1.248       21.863       15.782       19.557      477.976      249.064      382.472        0.071        0.055       17.771       17.513        0.971      333.349        2.605      856.910
12/18/2013  12:43:00       39.135       42.033        0.103       28.464       27.609       15.548      810.221      762.255      241.733        0.256        0.091       57.431       10.122        0.031      333.287        2.503      856.916
12/18/2013  12:44:00       12.588        6.100       -0.432       11.071       10.727       15.948      122.574      115.064      254.326        0.034        0.025       13.988       10.209        0.533      333.411        2.708      856.891
12/18/2013  12:45:00       24.848       32.748       11.722       24.078       22.408       17.347      579.732      502.104      300.912        0.160        0.069       41.108       15.684        0.146      333.446        2.767      856.869
12/18/2013  12:46:00       17.897       27.876       16.742       26.813       25.229       23.302      718.917      636.521      542.976        0.164        0.095       33.127       22.917        0.479      333.506        2.866      856.888
12/18/2013  12:47:00       16.821       15.762       -4.818       11.058       17.267        8.748      122.289      298.148       76.531        0.053        0.025       23.052        7.700        0.112      333.311        2.543      856.844
12/18/2013  12:48:00       -1.256       -7.324        5.760        3.956        5.407        6.236       15.647       29.240       38.883        0.009        0.004        7.431        3.198        0.185      333.559        2.953      856.825
12/18/2013  12:49:00       13.308       21.520       10.081       14.889       15.676        9.367      221.697      245.751       87.743        0.065        0.028       25.303        6.444        0.065      333.494        2.845      856.802
12/18/2013  12:50:00       88.675       58.826        6.733       40.311       33.419       27.043     1625.017     1116.833      731.346        0.742        0.174      106.413       10.193        0.009      333.419        2.720      856.739
12/18/2013  12:51:00       62.218       65.464       37.153       31.326       31.116       29.859      981.313      968.175      891.567        0.619        0.142       90.314       18.783        0.043      333.409        2.706      856.719
12/18/2013  12:52:00       78.381       76.915       47.912       33.531       24.434       36.298     1124.350      597.033     1317.509        0.870        0.152      109.816       23.881        0.047      333.384        2.664      856.679
12/18/2013  12:53:00       99.542       58.015        4.455       19.350       20.195       20.774      374.413      407.851      431.570        0.725        0.061      115.214       11.678        0.010      333.335        2.582      856.610
12/18/2013  12:54:00       53.806       32.224       24.254       42.844       28.167       28.067     1835.619      793.358      787.783        0.397        0.171       62.718       14.913        0.057      333.509        2.869      856.570
12/18/2013  12:55:00       73.133       40.055        4.034       26.950       24.159       22.461      726.325      583.644      504.494        0.439        0.091       83.383       11.283        0.018      333.470        2.805      856.541
12/18/2013  12:56:00      100.179       67.733       27.464       63.529       38.295       29.103     4035.932     1466.472      847.012        1.086        0.317      120.928       16.094        0.018      333.465        2.796      856.450
12/18/2013  12:57:00       17.489       28.290       40.427       24.914       26.578       23.707      620.685      706.404      562.031        0.231        0.094       33.260       23.255        0.489      333.452        2.775      856.470
12/18/2013  12:58:00       45.796       16.436        6.432       15.922       16.654       16.523      253.498      277.340      273.008        0.161        0.040       48.656       10.339        0.045      333.339        2.590      856.509
12/18/2013  12:59:00       33.362       32.512       -3.044       11.784       22.131        7.197      138.856      489.776       51.802        0.143        0.034       46.584        6.891        0.022      333.323        2.564      856.490
12/18/2013  13:00:00       13.347       22.008       -0.231       14.664       10.434       10.508      215.032      108.877      110.417        0.055        0.022       25.739        5.710        0.049      333.382        2.658      856.408
12/18/2013  13:01:00       23.963        7.328        3.839       25.234       22.675       11.518      636.760      514.168      132.668        0.096        0.064       25.058       14.098        0.317      333.555        2.946      856.380
12/18/2013  13:02:00       71.282       53.092       25.492       21.967       21.039       26.810      482.558      442.660      718.755        0.510        0.082       88.881       17.151        0.037      333.461        2.789      856.324
12/18/2013  13:03:00       31.981       42.015        4.249       21.386       15.082       23.364      457.343      227.479      545.858        0.202        0.062       52.802       15.005        0.081      333.428        2.737      856.269
12/18/2013  13:04:00       38.857       68.756      -12.480       17.721       20.151       12.629      314.036      406.076      159.492        0.364        0.044       78.976       10.376        0.017      333.387        2.669      856.214
12/18/2013  13:05:00       28.004       72.713      -12.873       17.784       21.500       15.247      316.286      462.246      232.458        0.362        0.051       77.919       13.152        0.028      333.406        2.700      856.215
12/18/2013  13:06:00       46.818       25.762       -1.390       23.138       16.310       16.546      535.385      266.001      273.765        0.197        0.054       53.438       14.179        0.070      333.427        2.734      856.264
12/18/2013  13:07:00       37.443       30.208       -4.817       11.605       14.713       10.762      134.676      216.487      115.825        0.140        0.023       48.109       10.992        0.052      333.387        2.667      856.246
12/18/2013  13:08:00      -34.086      -24.077       -6.294       19.605       17.055       13.533      384.365      290.874      183.137        0.132        0.043       41.732       10.795        0.067      333.466        2.800      856.246
12/18/2013  13:09:00      -16.906      -11.982       -7.091        7.156       23.398       12.640       51.212      547.475      159.769        0.062        0.038       20.721       10.882        0.276      333.442        2.758      856.205
12/18/2013  13:10:00      -48.175       10.271       -4.366       18.969        9.966       10.003      359.812       99.326      100.069        0.150        0.028       49.258        8.970        0.033      333.500        2.855      856.117
12/18/2013  13:11:00        6.580       -9.977        8.690       11.650       14.038       11.384      135.718      197.077      129.596        0.034        0.023       11.951        4.912        0.169      333.651        3.107      856.056
12/18/2013  13:12:00      -47.150        8.558        2.458       30.803       12.781       12.809      948.822      163.347      164.079        0.179        0.064       47.921       15.775        0.108      333.664        3.125      856.032
12/18/2013  13:13:00      -40.958      -20.550        2.524       27.944       37.563       21.071      780.858     1410.942      443.982        0.237        0.132       45.824       15.100        0.109      333.700        3.187      856.044
12/18/2013  13:14:00      -27.753      -44.630       11.355       43.538       21.867       27.435     1895.554      478.153      752.654        0.301        0.156       52.555       13.395        0.065      333.797        3.348      856.074
12/18/2013  13:15:00      -42.932      -87.921       -6.064       27.202       24.535       19.457      739.933      601.950      378.567        0.566        0.086       97.843        9.584        0.010      333.724        3.227      856.081
12/18/2013  13:16:00      -67.282      -46.768       -2.276       41.047       33.854       17.107     1684.877     1146.083      292.653        0.492        0.156       81.939       15.966        0.038      333.670        3.137      856.020
12/18/2013  13:17:00      -31.910      -14.481        3.402       20.452       20.548        9.141      418.299      422.214       83.551        0.108        0.046       35.042        5.035        0.021      333.714        3.210      855.899
12/18/2013  13:18:00      -71.720       21.954       -7.239       19.559       13.264       12.534      382.571      175.939      157.109        0.320        0.036       75.005       10.468        0.019      333.712        3.206      855.836
12/18/2013  13:19:00      -67.366       30.124       -4.976       23.955       14.900       11.387      573.838      221.996      129.668        0.320        0.046       73.795        7.444        0.010      333.700        3.187      855.785
12/18/2013  13:20:00     -115.410      -25.424      -14.196       20.442       30.748       12.558      417.882      945.443      157.691        0.784        0.076      118.177       14.154        0.014      333.720        3.219      855.802
12/18/2013  13:21:00      -76.540      -38.327       -5.867       31.377       20.930       14.189      984.490      438.054      201.338        0.449        0.081       85.600       11.796        0.019      333.745        3.261      855.809
12/18/2013  13:22:00      -51.593      -28.350       -2.025       30.727       22.714       11.739      944.119      515.947      137.811        0.253        0.080       58.869       13.053        0.049      333.813        3.372      855.791
12/18/2013  13:23:00      -56.892       14.339       -7.784        9.852       11.434       12.879       97.052      130.729      165.865        0.195        0.020       58.672        6.348        0.012      333.768        3.299      855.767
12/18/2013  13:24:00      -79.260       31.939      -16.957       18.686       13.044        7.826      349.160      170.156       61.246        0.409        0.029       85.453        8.772        0.011      333.778        3.317      855.775
12/18/2013  13:25:00      -31.289       33.420        1.192       11.745       19.994       11.302      137.950      399.763      127.730        0.138        0.033       45.781        6.197        0.018      333.909        3.535      855.711
12/18/2013  13:26:00      -66.150       23.328       -4.337       30.674       23.854       17.843      940.922      568.993      318.368        0.338        0.091       70.143       17.816        0.065      333.931        3.570      855.662
12/18/2013  13:27:00     -119.394      -15.230      -10.639       25.844       21.603       13.930      667.910      466.682      194.047        0.796        0.066      120.362       11.543        0.009      333.869        3.468      855.668
12/18/2013  13:28:00      -95.315      -49.614       -6.807       38.132       28.822       12.997     1454.039      830.723      168.920        0.702        0.123      107.454        7.274        0.005      333.881        3.487      855.656
12/18/2013  13:29:00     -112.002       -4.737       -7.170       33.867       37.896       13.966     1146.946     1436.073      195.055        0.770        0.139      112.102       12.175        0.012      333.869        3.468      855.611
12/18/2013  13:30:00      -79.898       23.124      -13.652       18.325       13.482       13.301      335.823      181.768      176.904        0.390        0.035       83.177       10.365        0.016      333.920        3.552      855.541
12/18/2013  13:31:00      -59.726       23.985        6.009       35.730       26.627       24.991     1276.620      709.005      624.528        0.339        0.131       64.362       17.933        0.078      333.954        3.607      855.491
12/18/2013  13:32:00      -17.186      -12.992        1.452       17.152       13.801        8.197      294.199      190.454       67.188        0.051        0.028       21.544        3.401        0.025      333.980        3.651      855.478
12/18/2013  13:33:00      -28.558        7.197        1.208       47.681       24.404       14.203     2273.485      595.558      201.721        0.197        0.154       29.451       20.499        0.484      334.034        3.741      855.467
12/18/2013  13:34:00      -90.809      -58.032        6.214       93.418       25.327       33.124     8726.999      641.448     1097.220        1.106        0.523      107.768       45.844        0.181      334.076        3.810      855.517
12/18/2013  13:35:00       -6.007      -46.004      -13.627       34.812       37.942       16.394     1211.841     1439.579      268.772        0.263        0.146       46.394       19.515        0.177      334.101        3.853      855.493
12/18/2013  13:36:00      -25.416       -1.018       31.650       26.390       37.871       23.061      696.412     1434.195      531.827        0.216        0.133       25.436       19.917        0.613      334.284        4.155      855.432
12/18/2013  13:37:00       11.782       -6.981       29.241       23.691       43.267       24.437      561.281     1872.032      597.158        0.204        0.152       13.695       23.353        2.908      334.329        4.230      855.428
12/18/2013  13:38:00       60.675       50.207       19.205       28.527       23.177       34.852      813.805      537.174     1214.695        0.457        0.128       78.754       20.504        0.068      334.205        4.024      855.356
12/18/2013  13:39:00        9.977       20.795       11.908       25.942       18.165       20.231      673.004      329.957      409.303        0.104        0.071       23.064       21.406        0.861      334.399        4.346      855.370
12/18/2013  13:40:00       44.625       83.436       68.002       45.522       35.607       33.391     2072.253     1267.831     1114.984        0.902        0.223       94.620       31.282        0.109      334.251        4.101      855.310
12/18/2013  13:41:00       13.748       -1.628       54.429       31.346       58.503       41.782      982.563     3422.584     1745.710        0.465        0.308       13.844       43.541        9.892      334.365        4.291      855.336
12/18/2013  13:42:00       61.204      -41.738       11.411       29.137       44.475       29.998      848.937     1978.062      899.904        0.467        0.186       74.081       32.442        0.192      334.197        4.011      855.363
12/18/2013  13:43:00       34.887       64.418       66.079       57.553       34.828       27.707     3312.371     1212.959      767.700        0.751        0.265       73.259       25.781        0.124      334.260        4.116      855.323
12/18/2013  13:44:00      122.746       55.731       25.530       69.535       42.668       42.415     4835.098     1820.589     1799.050        1.364        0.423      134.806       35.706        0.070      334.101        3.851      855.269
12/18/2013  13:45:00        9.182      -37.018       21.022       35.803       46.220       27.173     1281.856     2136.315      738.359        0.303        0.208       38.140       28.083        0.542      334.510        4.529      855.283
12/18/2013  13:46:00       18.711       28.525       43.968       25.156       25.990       16.694      632.834      675.505      278.688        0.234        0.079       34.114       13.980        0.168      334.461        4.449      855.291
12/18/2013  13:47:00       97.147       63.210       10.232       31.388       31.908       22.477      985.192     1018.144      505.201        0.802        0.125      115.901       20.384        0.031      334.198        4.013      855.250
12/18/2013  13:48:00      -85.256       17.387       -5.146       70.016       32.936       14.559     4902.219     1084.761      211.953        0.690        0.310       87.011       19.706        0.051      334.486        4.492      855.249
12/18/2013  13:49:00      -68.265       -3.759        1.983       64.525       23.455       25.449     4163.486      550.127      647.630        0.502        0.268       68.368       33.611        0.242      334.552        4.600      855.298
12/18/2013  13:50:00      -18.406      -35.062       12.585       40.672       31.079       19.287     1654.192      965.896      371.992        0.236        0.150       39.599       11.895        0.090      334.739        4.910      855.238
12/18/2013  13:51:00       22.525       25.196       46.157       36.137       33.246       38.157     1305.908     1105.282     1455.963        0.357        0.193       33.797       32.225        0.909      334.810        5.027      855.194
12/18/2013  13:52:00        1.664       15.840       52.773       22.355       54.553       50.290      499.734     2976.064     2529.073        0.452        0.300       15.927       49.082        9.497      334.968        5.291      855.179
12/18/2013  13:53:00       21.984       12.146       39.560       23.560       37.251       21.224      555.090     1387.646      450.459        0.229        0.120       25.116       21.506        0.733      334.992        5.332      855.192
12/18/2013  13:54:00       12.089       37.328       15.396       40.893       33.993       28.286     1672.215     1155.512      800.120        0.270        0.181       39.236       18.266        0.217      334.891        5.163      855.116
12/18/2013  13:55:00       22.395       37.694       37.944       32.207       29.425       20.482     1037.307      865.857      419.501        0.284        0.116       43.845       24.480        0.312      335.018        5.374      855.133
12/18/2013  13:56:00       28.393       60.930       45.575       34.841       59.986       31.410     1213.917     3598.315      986.592        0.620        0.290       67.221       34.288        0.260      334.756        4.938      855.067
12/18/2013  13:57:00       14.103      -78.076       -6.783       36.681       34.788       30.002     1345.501     1210.212      900.103        0.490        0.173       79.340       21.066        0.071      334.773        4.968      855.116
12/18/2013  13:58:00       46.850      -65.535        4.635       56.716      112.425       53.196     3216.749    12639.426     2829.810        1.260        0.934       80.559       62.445        0.601      334.802        5.014      855.186
12/18/2013  13:59:00        4.537       40.065       68.559       29.444       49.203       41.109      866.922     2420.921     1689.986        0.565        0.249       40.321       39.773        0.973      334.792        4.998      855.169
12/18/2013  14:00:00       23.578       12.914       -7.052       24.109       21.417       13.763      581.265      458.677      189.410        0.100        0.061       26.883       10.039        0.139      334.702        4.850      855.125
12/18/2013  14:01:00       74.956       34.972        7.063       52.048       35.534       25.087     2708.996     1262.671      629.356        0.575        0.230       82.713       19.066        0.053      334.712        4.865      855.038
12/18/2013  14:02:00       38.295       32.385       -4.239       30.488       40.734       15.936      929.511     1659.298      253.970        0.269        0.142       50.153       11.960        0.057      334.664        4.785      855.027
12/18/2013  14:03:00       60.523       37.133        3.861       21.696       18.229       18.012      470.729      332.308      324.435        0.309        0.056       71.006       11.679        0.027      334.715        4.871      855.009
12/18/2013  14:04:00       61.686       22.358       11.133       19.859       27.878       23.670      394.364      777.173      560.258        0.308        0.087       65.613        7.264        0.012      334.743        4.917      855.025
12/18/2013  14:05:00       82.116       72.858        2.600       29.049       17.992       28.373      843.817      323.698      805.038        0.701        0.099      109.778       13.928        0.016      334.691        4.831      855.047
12/18/2013  14:06:00       22.528       54.403       48.632       32.473       33.807       31.612     1054.497     1142.935      999.310        0.451        0.160       58.883       22.131        0.141      334.917        5.207      855.051
12/18/2013  14:07:00       31.368       40.709       54.899       23.111       20.703       13.724      534.132      428.614      188.361        0.340        0.058       51.392        8.866        0.030      334.805        5.020      855.095
12/18/2013  14:08:00       29.770       21.765       56.592       28.640       25.708       17.718      820.271      660.885      313.926        0.318        0.090       36.878       13.158        0.127      334.901        5.180      855.109
12/18/2013  14:09:00       25.452       -0.626       26.027       28.486       27.648       28.947      811.453      764.423      837.916        0.187        0.121       25.460       24.152        0.900      334.889        5.160      855.095
12/18/2013  14:10:00        1.704      -25.977       -3.276       19.351       34.210       13.519      374.470     1170.304      182.751        0.121        0.086       26.033       13.470        0.268      334.805        5.018      855.114
12/18/2013  14:11:00       29.822       54.403       15.118       32.871       18.092       28.825     1080.527      327.330      830.882        0.316        0.112       62.041       27.460        0.196      334.794        5.002      855.114
12/18/2013  14:12:00       35.226       55.783        0.094       21.359       12.307       20.343      456.207      151.468      413.853        0.269        0.051       65.974       18.618        0.080      334.752        4.933      855.090
12/18/2013  14:13:00       28.157       27.743       31.071       29.617       29.608       34.260      877.171      876.655     1173.719        0.273        0.146       39.528       20.705        0.274      334.979        5.309      855.067
12/18/2013  14:14:00       79.857       61.660       39.671       69.503       30.209       33.264     4830.601      912.572     1106.478        0.930        0.342      100.891       38.390        0.145      334.890        5.161      855.066
12/18/2013  14:15:00       13.589       47.590       51.598       55.620       39.338       27.898     3093.577     1547.466      778.303        0.526        0.271       49.492       30.185        0.372      335.058        5.439      855.079
12/18/2013  14:16:00       14.610        3.685       30.117       28.783       25.674       22.546      828.471      659.145      508.300        0.156        0.100       15.067       16.172        1.152      335.152        5.597      855.105
12/18/2013  14:17:00       16.062       11.464       31.679       20.935       34.876       22.524      438.259     1216.352      507.328        0.178        0.108       19.734       24.029        1.483      335.171        5.628      855.053
12/18/2013  14:18:00       87.467       84.136       58.953       71.114       41.067       43.733     5057.188     1686.502     1912.603        1.343        0.433      121.365       35.523        0.086      334.974        5.299      854.999
12/18/2013  14:19:00      138.147      106.900       72.728       82.612       42.302       43.931     6824.818     1789.469     1929.919        2.317        0.527      174.678       37.905        0.047      334.892        5.163      854.935
12/18/2013  14:20:00       20.201      107.736      129.226       56.622       68.532       49.128     3206.046     4696.663     2413.575        1.951        0.516      109.613       48.640        0.197      334.989        5.324      854.920
12/18/2013  14:21:00       69.896       90.024      102.684       66.614       42.688       39.892     4437.388     1822.261     1591.388        1.569        0.393      113.973       29.808        0.068      334.856        5.105      854.963
12/18/2013  14:22:00      102.237       40.864       16.195       50.512       37.739       40.660     2551.474     1424.207     1653.268        0.901        0.281      110.102       29.175        0.070      334.766        4.956      855.028
12/18/2013  14:23:00      106.329       69.730       31.322       64.395       37.415       47.765     4146.677     1399.865     2281.472        1.249        0.391      127.154       45.890        0.130      334.880        5.143      854.969
12/18/2013  14:24:00      135.528       97.663       -1.251       65.773       49.480       38.733     4326.029     2448.238     1500.219        1.809        0.414      167.050       29.302        0.031      334.825        5.050      854.858
12/18/2013  14:25:00       45.814       58.308       -8.013       46.245       42.854       26.268     2138.639     1836.490      690.023        0.511        0.233       74.153       19.036        0.066      334.808        5.024      854.879
12/18/2013  14:26:00       71.609       98.456       -9.339       56.006       48.025       36.874     3136.683     2306.367     1359.681        1.085        0.340      121.743       26.123        0.046      334.874        5.134      854.831
12/18/2013  14:27:00       94.189       52.968        4.875       59.791       41.559       33.677     3574.962     1727.188     1134.154        0.907        0.322      108.061       21.077        0.038      334.816        5.038      854.809
12/18/2013  14:28:00       86.494       53.079       -7.815       39.695       22.704       15.724     1575.657      515.492      247.242        0.635        0.117      101.482        7.833        0.006      334.774        4.968      854.864
12/18/2013  14:29:00       49.439       43.435       45.720       44.983       29.778       32.571     2023.465      886.750     1060.888        0.520        0.199       65.809       19.417        0.087      334.970        5.295      854.876
12/18/2013  14:30:00       95.758      108.394       11.693       46.296       45.781       36.972     2143.344     2095.883     1366.894        1.333        0.280      144.633       18.387        0.016      334.816        5.038      854.776
12/18/2013  14:31:00       50.971      221.823      -36.046       45.523       48.768       36.807     2072.298     2378.286     1354.766        2.945        0.290      227.604       24.147        0.011      334.822        5.045      854.579
12/18/2013  14:32:00       35.666      130.957      -19.594       44.564       85.324       32.685     1985.929     7280.211     1068.297        1.457        0.517      135.727       36.867        0.074      334.923        5.215      854.503
12/18/2013  14:33:00       28.910      185.453      -25.171       40.055       59.555       27.855     1604.429     3546.809      775.907        2.089        0.296      187.692       23.823        0.016      334.917        5.205      854.509
12/18/2013  14:34:00       -9.064      101.766        2.143       53.088       56.404       41.085     2818.381     3181.397     1687.972        0.906        0.384      102.169       37.017        0.131      334.920        5.211      854.520
12/18/2013  14:35:00      -52.052       91.121      -11.835       36.967       34.178       23.510     1366.580     1168.155      552.718        0.712        0.154      104.941       10.469        0.010      335.085        5.485      854.604
12/18/2013  14:36:00       -6.134       34.814       -3.553       28.382       26.288       19.921      805.555      691.071      396.865        0.158        0.095       35.350       14.624        0.171      335.095        5.503      854.665
12/18/2013  14:37:00       20.902       33.475       -4.398       24.381       26.407       24.222      594.449      697.350      586.690        0.173        0.094       39.464       15.314        0.151      335.113        5.532      854.681
12/18/2013  14:38:00       19.899       10.330        8.391       21.689       40.710       29.125      470.397     1657.344      848.237        0.177        0.149       22.421       11.458        0.261      335.048        5.424      854.666
12/18/2013  14:39:00       35.393      -12.647       29.201       38.193       31.424       27.721     1458.707      987.493      768.457        0.274        0.161       37.585       26.175        0.485      335.136        5.569      854.650
12/18/2013  14:40:00       31.867       21.775       24.519       28.387       27.314       24.634      805.816      746.046      606.837        0.212        0.108       38.596       18.938        0.241      335.099        5.507      854.585
12/18/2013  14:41:00       39.064      108.671      -14.811       37.921       40.721       26.535     1438.035     1658.167      704.109        0.868        0.190      115.478       27.690        0.057      335.080        5.476      854.504
12/18/2013  14:42:00       39.894       62.385      -15.435       31.703       52.651       21.742     1005.112     2772.100      472.711        0.499        0.212       74.050       24.118        0.106      335.080        5.478      854.474
12/18/2013  14:43:00       14.062       23.959        7.025       23.855       23.171       19.926      569.050      536.913      397.029        0.116        0.075       27.781       15.730        0.321      335.157        5.605      854.511
12/18/2013  14:44:00        9.472       -8.237       21.159       22.909       19.313       20.644      524.808      372.991      426.186        0.096        0.066       12.553       15.114        1.450      335.356        5.935      854.588
12/18/2013  14:45:00       25.460      -10.394       13.295       21.412       15.522       14.438      458.487      240.935      208.459        0.092        0.045       27.500        8.821        0.103      335.285        5.816      854.666
12/18/2013  14:46:00      -51.678      -21.569        0.372       35.449       32.981       17.251     1256.643     1087.779      297.612        0.289        0.132       55.998       13.128        0.055      335.328        5.888      854.697
12/18/2013  14:47:00       13.888       23.854       42.148       25.220       22.763       18.207      636.031      518.174      331.495        0.201        0.074       27.602       11.920        0.186      335.435        6.066      854.654
12/18/2013  14:48:00       16.031       42.524       -8.634       27.026       20.257       12.769      730.419      410.355      163.037        0.172        0.065       45.446        7.295        0.026      335.331        5.894      854.589
12/18/2013  14:49:00       29.085       31.934      -12.724       29.222       25.680       20.216      853.946      659.468      408.680        0.197        0.096       43.194       15.231        0.124      335.316        5.867      854.574
12/18/2013  14:50:00       20.028       38.529       44.859       28.782       27.022       28.999      828.392      730.178      840.931        0.315        0.120       43.424       20.570        0.224      335.390        5.990      854.558
12/18/2013  14:51:00       37.117       46.637       28.162       33.752       31.640       30.663     1139.177     1001.100      940.248        0.371        0.154       59.605       18.496        0.096      335.290        5.824      854.500
12/18/2013  14:52:00       12.123       53.174       -8.820       44.453       21.817       16.342     1976.048      476.003      267.049        0.289        0.136       54.539       15.453        0.080      335.255        5.767      854.476
12/18/2013  14:53:00     -121.261      -44.443       -9.599       48.677       52.798       22.552     2369.418     2787.602      508.586        1.122        0.283      129.148       24.178        0.035      335.477        6.136      854.498
12/18/2013  14:54:00      -61.343      -46.604        8.443       61.631       51.875       35.311     3798.431     2690.994     1246.888        0.687        0.387       77.039       34.947        0.206      335.481        6.143      854.500
12/18/2013  14:55:00     -116.328      -38.825       -8.518       55.815       28.616       19.254     3115.297      818.877      370.707        0.971        0.215      122.636       24.479        0.040      335.414        6.033      854.460
12/18/2013  14:56:00     -109.532      -59.685        7.366       76.399       47.111       29.008     5836.846     2219.427      841.471        1.225        0.445      124.738       35.745        0.082      335.467        6.119      854.452
12/18/2013  14:57:00      -16.263      -19.208        6.032       39.433       29.082       17.927     1554.951      845.743      321.371        0.170        0.136       25.168       16.066        0.408      335.622        6.380      854.450
12/18/2013  14:58:00      -59.278      -50.056       -1.921       48.287       29.664       25.180     2331.605      879.958      634.028        0.493        0.192       77.585       25.081        0.105      335.615        6.368      854.451
12/18/2013  14:59:00      -42.350      -48.999       10.989       44.560       48.043       18.203     1985.562     2308.101      331.367        0.447        0.231       64.765       22.702        0.123      335.657        6.436      854.435
12/18/2013  15:00:00      -96.720      -61.757      -11.720       30.320       36.880       21.676      919.306     1360.128      469.853        0.803        0.137      114.755       18.396        0.026      335.601        6.343      854.385
12/18/2013  15:01:00      -88.038      -77.001      -15.391       23.871       19.939       12.641      569.826      397.550      159.787        0.752        0.056      116.961        8.456        0.005      335.659        6.441      854.367
12/18/2013  15:02:00      -60.156      -32.395        0.032       27.031       19.844       16.205      730.669      393.768      262.590        0.303        0.069       68.324       11.344        0.028      335.752        6.596      854.353
12/18/2013  15:03:00       11.083      -43.917       -2.153       18.103       34.324       16.682      327.703     1178.121      278.279        0.192        0.089       45.294       18.569        0.168      335.889        6.825      854.364
12/18/2013  15:04:00        1.786       -2.809       43.713       23.880       48.752       39.249      570.259     2376.755     1540.485        0.320        0.224        3.328       28.525       73.446      335.862        6.777      854.321
12/18/2013  15:05:00       25.430     -112.079      -15.044       43.513       60.379       28.777     1893.357     3645.661      828.134        0.990        0.318      114.928       17.402        0.023      335.794        6.666      854.329
12/18/2013  15:06:00      -15.408      -32.403      -14.124       34.016       25.938       14.759     1157.081      672.760      217.825        0.177        0.102       35.880        7.945        0.049      335.877        6.802      854.343
12/18/2013  15:07:00       27.688      -36.257        7.943       30.288       35.825       27.980      917.339     1283.408      782.870        0.256        0.149       45.621       26.132        0.328      335.816        6.702      854.327
12/18/2013  15:08:00        5.100      -11.732       17.285       48.804       28.148       25.998     2381.807      792.331      675.903        0.216        0.193       12.793       21.346        2.784      335.800        6.675      854.367
12/18/2013  15:09:00       -4.888       32.823       35.546       22.509       34.485       36.699      506.663     1189.213     1346.842        0.270        0.152       33.185       25.376        0.585      335.789        6.656      854.294
12/18/2013  15:10:00       -6.031       99.941      103.071       24.049       43.791       29.158      578.341     1917.664      850.177        1.200        0.167      100.123       23.720        0.056      335.826        6.717      854.229
12/18/2013  15:11:00       44.949       42.083       54.733       34.332       26.929       22.876     1178.700      725.197      523.330        0.461        0.121       61.574       16.814        0.075      335.687        6.486      854.298
12/18/2013  15:12:00       84.685       45.482       38.528       37.842       34.564       28.668     1432.010     1194.662      821.827        0.709        0.172       96.126       23.162        0.058      335.631        6.392      854.323
12/18/2013  15:13:00       51.899      -67.820       -0.099       46.470       70.641       42.400     2159.447     4990.130     1797.741        0.812        0.447       85.400       50.499        0.350      335.684        6.482      854.387
12/18/2013  15:14:00        4.223      -63.853      -11.511       68.452       52.459       26.802     4685.617     2751.976      718.352        0.619        0.408       63.993       25.527        0.159      335.680        6.477      854.437
12/18/2013  15:15:00      -19.227      -22.985        1.746       54.238       43.107       31.051     2941.771     1858.177      964.153        0.333        0.288       29.966       19.965        0.444      335.677        6.470      854.376
12/18/2013  15:16:00     -101.239      -11.596        1.662       49.273       27.746       18.215     2427.820      769.863      331.779        0.696        0.176      101.901       18.383        0.033      335.633        6.395      854.356
12/18/2013  15:17:00      -44.057       -7.074       -6.815       15.818       13.021       11.458      250.204      169.555      131.289        0.129        0.028       44.621        8.959        0.040      335.563        6.279      854.290
12/18/2013  15:18:00      -68.969      -18.100       -6.065       20.317       11.738        9.897      412.794      137.776       97.942        0.288        0.032       71.304        8.571        0.014      335.609        6.357      854.264
12/18/2013  15:19:00      -38.334      -45.159       -6.310       26.740       19.185       14.311      715.046      368.077      204.794        0.242        0.064       59.236        5.613        0.009      335.675        6.467      854.239
12/18/2013  15:20:00        4.954       26.620        7.108       23.544       20.809       15.934      554.332      433.016      253.897        0.101        0.062       27.077       11.983        0.196      335.598        6.340      854.197
12/18/2013  15:21:00      -12.407       -2.283       17.335       18.096       26.269       22.057      327.483      690.050      486.496        0.098        0.075       12.616       18.827        2.227      335.719        6.542      854.186
12/18/2013  15:22:00       -2.338        0.920       19.123       24.129       22.190       14.876      582.197      492.390      221.297        0.083        0.065        2.512       13.977       30.951      335.759        6.608      854.179
12/18/2013  15:23:00       13.756       20.750        3.903       14.983       17.660       18.292      224.493      311.878      334.598        0.075        0.044       24.896       12.110        0.237      335.622        6.379      854.124
12/18/2013  15:24:00       44.778       36.143       13.923       14.759       17.301       24.207      217.834      299.317      585.973        0.230        0.055       57.544       11.858        0.042      335.570        6.293      854.053
12/18/2013  15:25:00       72.836       35.155       22.090       56.987       35.073       29.828     3247.550     1230.119      889.728        0.620        0.268       80.876       23.153        0.082      335.515        6.200      853.990
12/18/2013  15:26:00        0.976       48.225       -9.872       26.291       29.368       19.663      691.215      862.507      386.629        0.218        0.097       48.235       17.742        0.135      335.481        6.142      854.025
12/18/2013  15:27:00       64.140       30.827        4.882       32.130       19.499       14.539     1032.338      380.222      211.387        0.336        0.081       71.163        8.351        0.014      335.435        6.067      854.010
12/18/2013  15:28:00       50.377       29.871        9.736       17.355       14.295       16.982      301.189      204.342      288.395        0.216        0.040       58.568        5.026        0.007      335.383        5.977      853.985
12/18/2013  15:29:00       16.564       40.632       -4.688       25.332       29.312       17.546      641.695      859.204      307.848        0.188        0.090       43.879       16.656        0.144      335.380        5.976      853.979
12/18/2013  15:30:00       30.663       26.063       -0.162       33.051       36.985       16.835     1092.395     1367.882      283.425        0.218        0.137       40.243       13.667        0.115      335.343        5.913      853.998
12/18/2013  15:31:00       65.452       33.707       29.208       31.425       49.625       32.333      987.561     2462.644     1045.418        0.538        0.225       73.621       34.296        0.217      335.350        5.925      854.016
12/18/2013  15:32:00      117.333       77.759       31.103       38.290       29.280       34.793     1466.137      857.334     1210.529        1.216        0.177      140.761       19.999        0.020      335.348        5.921      853.971
12/18/2013  15:33:00       41.797       11.488       30.795       70.479       30.443       30.622     4967.261      926.777      937.705        0.483        0.342       43.347       12.727        0.086      335.344        5.913      853.959
12/18/2013  15:34:00       -7.162       21.245      -13.297       47.630       14.254       20.464     2268.586      203.178      418.781        0.178        0.145       22.420       20.902        0.869      335.351        5.925      854.095
12/18/2013  15:35:00       88.494       68.412       27.058       29.659       18.669       26.477      879.645      348.547      701.025        0.759        0.096      111.855       21.682        0.038      335.317        5.871      854.057
12/18/2013  15:36:00       96.094       57.672       25.637       40.167       25.900       30.810     1613.422      670.801      949.225        0.822        0.162      112.072       21.232        0.036      335.329        5.889      853.995
12/18/2013  15:37:00       81.277       94.774       63.478       55.924       52.323       48.236     3127.472     2737.737     2326.744        1.390        0.410      124.852       44.298        0.126      335.374        5.965      853.967
12/18/2013  15:38:00       92.586       91.050       63.719       45.488       43.052       36.740     2069.124     1853.505     1349.803        1.310        0.264      129.855       29.076        0.050      335.335        5.899      853.981
12/18/2013  15:39:00       47.026       73.308       60.607       41.694       32.875       32.791     1738.411     1080.745     1075.265        0.758        0.195       87.095       27.967        0.103      335.356        5.934      854.001
12/18/2013  15:40:00       42.526       75.943       69.520       50.351       35.099       36.604     2535.237     1231.973     1339.818        0.876        0.255       87.039       32.153        0.136      335.394        5.999      853.981
12/18/2013  15:41:00       56.998       47.917       68.502       80.032       56.364       44.049     6405.094     3176.912     1940.287        1.088        0.576       74.464       40.604        0.297      335.404        6.014      853.958
12/18/2013  15:42:00      164.895       97.410       60.285       70.928       52.070       55.743     5030.734     2711.235     3107.320        2.558        0.542      191.518       43.079        0.051      335.260        5.774      853.913
12/18/2013  15:43:00       85.634      121.814      111.319       76.541       67.872       59.815     5858.467     4606.585     3577.859        2.430        0.702      148.902       47.503        0.102      335.200        5.672      853.862
12/18/2013  15:44:00      -91.371      -23.967        0.751       76.556       50.833       29.847     5860.762     2583.998      890.834        0.913        0.467       94.462       34.679        0.135      335.302        5.845      853.975
12/18/2013  15:45:00      188.234      113.024       61.979      134.779       71.465       48.708    18165.266     5107.230     2372.484        3.884        1.282      219.559       36.686        0.028      335.260        5.773      853.885
12/18/2013  15:46:00      153.671      163.950      113.997      129.162       59.725       63.883    16682.792     3567.123     4081.040        4.391        1.217      224.710       63.944        0.081      335.197        5.666      853.703
12/18/2013  15:47:00       49.112      -16.077       42.516       48.404       84.359       38.539     2342.958     7116.369     1485.288        0.771        0.547       51.676       38.947        0.568      335.283        5.813      853.808
12/18/2013  15:48:00       20.595       84.690      111.956       51.061       64.945       35.792     2607.210     4217.915     1281.097        1.412        0.405       87.158       38.757        0.198      335.251        5.759      853.815
12/18/2013  15:49:00       40.354      156.359      170.914       65.553       69.204       55.342     4297.157     4789.191     3062.792        3.372        0.607      161.482       49.303        0.093      335.220        5.706      853.755
12/18/2013  15:50:00      130.730       93.189      110.442       89.231      114.267       75.138     7962.218    13056.978     5645.736        3.231        1.333      160.545       76.580        0.228      335.158        5.605      853.730
12/18/2013  15:51:00      173.840      141.814      104.571       90.910      100.406       94.237     8264.697    10081.412     8880.700        4.424        1.361      224.347       77.139        0.118      335.121        5.545      853.736
12/18/2013  15:52:00      102.255      207.214      175.157      118.424       98.077       79.694    14024.219     9619.078     6351.205        5.703        1.500      231.071       80.787        0.122      335.180        5.640      853.633
12/18/2013  15:53:00       73.329       48.590       66.291       69.398       81.830       60.138     4816.014     6696.207     3616.528        1.363        0.756       87.967       63.954        0.529      335.207        5.686      853.757
12/18/2013  15:54:00      172.808      108.761       86.824       79.765       92.371       72.427     6362.529     8532.383     5245.669        3.468        1.007      204.185       48.092        0.055      335.196        5.665      853.759
12/18/2013  15:55:00       38.693       95.996      123.487       79.729       71.057       50.702     6356.664     5049.043     2570.706        1.997        0.699      103.500       41.054        0.157      335.177        5.637      853.755
12/18/2013  15:56:00       88.989       44.401       42.254       92.827       57.101       54.027     8616.768     3260.518     2918.917        1.323        0.740       99.451       33.554        0.114      335.222        5.710      853.816
12/18/2013  15:57:00       66.930      -53.394       21.806       75.059       76.493       55.347     5633.904     5851.162     3063.292        1.117        0.727       85.619       59.225        0.478      335.280        5.808      853.823
12/18/2013  15:58:00      135.217       61.690       50.218       61.021      102.725       56.773     3723.594    10552.388     3223.202        2.105        0.875      148.625       49.500        0.111      335.270        5.789      853.765
12/18/2013  15:59:00       41.720       80.525      111.972       77.912       67.343       43.697     6070.312     4535.107     1909.425        1.664        0.626       90.691       32.104        0.125      335.266        5.784      853.689
12/18/2013  16:00:00       59.604       89.432      122.062       83.900       98.323       67.547     7039.257     9667.481     4562.606        2.386        1.063      107.474       79.092        0.542      335.293        5.828      853.650
12/18/2013  16:01:00       65.367      -87.546       11.694       78.438       64.022       47.637     6152.470     4098.812     2269.241        1.230        0.626      109.258       34.659        0.101      335.341        5.910      853.668
12/18/2013  16:02:00      -24.137      -50.939      -10.102       41.101       33.557       22.394     1689.306     1126.048      501.482        0.330        0.166       56.368        7.780        0.019      335.406        6.018      853.779
12/18/2013  16:03:00       66.611       31.727       20.571       37.833       31.055       28.709     1431.320      964.407      824.229        0.454        0.161       73.781       23.009        0.097      335.379        5.972      853.720
12/18/2013  16:04:00       66.776       51.083       51.616       46.574       38.356       39.506     2169.143     1471.169     1560.704        0.747        0.260       84.074       27.188        0.105      335.305        5.848      853.687
12/18/2013  16:05:00      105.253      112.085       88.357       67.390       61.380       51.993     4541.439     3767.525     2703.266        2.123        0.551      153.756       44.553        0.084      335.248        5.753      853.650
12/18/2013  16:06:00       69.797       49.835       39.262       39.658       41.782       39.711     1572.756     1745.754     1576.960        0.690        0.245       85.762       28.200        0.108      335.222        5.711      853.643
12/18/2013  16:07:00       81.478       72.790       25.778       20.941       25.000       18.277      438.531      624.987      334.056        0.700        0.070      109.257        9.677        0.008      335.239        5.739      853.615
12/18/2013  16:08:00       92.520       62.489        6.688       17.673       19.409       20.923      312.333      376.726      437.755        0.682        0.056      111.646        9.043        0.007      335.240        5.742      853.553
12/18/2013  16:09:00       71.348       35.507       -0.865       24.387       24.606       20.941      594.704      605.442      438.518        0.400        0.082       79.695       12.168        0.023      335.186        5.651      853.530
12/18/2013  16:10:00       94.623       52.304       14.332       21.310       19.413       12.045      454.106      376.853      145.074        0.644        0.049      108.116        4.320        0.002      335.179        5.640      853.561
12/18/2013  16:11:00       74.790       53.517       28.315       37.973       38.351       42.294     1441.926     1470.820     1788.813        0.698        0.235       91.965       35.663        0.150      335.155        5.603      853.569
12/18/2013  16:12:00       76.411       66.187       42.209       29.174       33.756       31.389      851.097     1139.453      985.243        0.749        0.149      101.091       28.339        0.079      335.177        5.637      853.574
12/18/2013  16:13:00       67.309       27.786       27.164       22.883       16.078       22.251      523.643      258.492      495.122        0.366        0.064       72.819       16.551        0.052      335.183        5.646      853.574
12/18/2013  16:14:00       90.197       34.701       14.072       30.408       30.792       16.334      924.655      948.134      266.814        0.584        0.107       96.642       17.832        0.034      335.163        5.613      853.525
12/18/2013  16:15:00       47.618       31.857       40.285       42.748       28.016       27.382     1827.425      784.886      749.764        0.413        0.168       57.292       20.921        0.133      335.162        5.614      853.447
12/18/2013  16:16:00       35.879       35.748       46.589       42.402       35.530       28.740     1797.967     1262.401      825.998        0.431        0.194       50.647       28.695        0.321      335.173        5.631      853.457
12/18/2013  16:17:00      116.812       59.866       37.768       54.553       42.978       38.402     2976.083     1847.125     1474.676        1.248        0.315      131.259       24.789        0.036      335.193        5.663      853.414
12/18/2013  16:18:00       22.784       43.897       75.255       42.613       45.280       26.465     1815.839     2050.263      700.370        0.634        0.228       49.458       30.135        0.371      335.212        5.695      853.439
12/18/2013  16:19:00       96.225      -79.105        0.007       53.134       57.579       43.247     2823.227     3315.365     1870.290        1.176        0.400      124.566       43.003        0.119      335.237        5.737      853.463
12/18/2013  16:20:00       41.726       90.048      113.595       58.269       64.490       45.836     3395.249     4158.952     2100.975        1.620        0.483       99.245       44.247        0.199      335.220        5.709      853.369
12/18/2013  16:21:00       73.910       90.728       60.187       41.699       30.000       43.695     1738.835      900.019     1909.236        1.093        0.227      117.023       35.377        0.091      335.219        5.706      853.279
12/18/2013  16:22:00       -7.028       32.109      -10.665       44.532       25.020       20.446     1983.091      625.995      418.044        0.211        0.151       32.869       13.647        0.172      335.179        5.640      853.322
12/18/2013  16:23:00      -41.369      -17.672       -3.944       38.144       29.932       26.131     1455.000      895.933      682.830        0.254        0.152       44.985       20.921        0.216      335.180        5.643      853.356
12/18/2013  16:24:00      -70.978       25.776      -10.490       38.880       50.508       20.068     1511.686     2551.014      402.719        0.514        0.223       75.514       25.912        0.118      335.227        5.719      853.275
12/18/2013  16:25:00      -69.265       23.020       -9.468       18.675       30.912       13.444      348.765      955.541      180.733        0.345        0.074       72.991        8.216        0.013      335.347        5.920      853.288
12/18/2013  16:26:00       -8.092      -24.277       -3.096       15.607       15.161        8.704      243.593      229.848       75.755        0.061        0.027       25.590        6.193        0.059      335.306        5.852      853.357
12/18/2013  16:27:00       -0.716      -13.380        3.852       19.156       23.949       16.282      366.971      573.542      265.116        0.070        0.060       13.399       13.827        1.065      335.288        5.822      853.427
12/18/2013  16:28:00       -3.100       25.012       18.215       23.576       16.487       21.555      555.822      271.835      464.639        0.113        0.065       25.203       18.664        0.548      335.218        5.705      853.419
12/18/2013  16:29:00       26.108       28.649        8.023       27.063       27.049       25.268      732.400      731.647      638.473        0.183        0.105       38.761       14.902        0.148      335.142        5.579      853.378
12/18/2013  16:30:00       38.361       12.993        2.537       29.680       19.628       13.762      880.876      385.242      189.401        0.155        0.073       40.501        6.313        0.024      335.217        5.704      853.355
12/18/2013  16:31:00      -28.699       78.233      -17.937       40.694       23.822       10.884     1655.964      567.502      118.467        0.480        0.117       83.331       11.350        0.019      335.322        5.875      853.286
12/18/2013  16:32:00     -117.706       29.443      -17.884       33.623       25.268       18.742     1130.476      638.464      351.251        0.858        0.106      121.332        8.637        0.005      335.177        5.638      853.264
12/18/2013  16:33:00     -134.677       17.609      -16.000       84.487       38.821       28.428     7137.980     1507.071      808.146        1.408        0.473      135.824       29.709        0.048      335.154        5.599      853.273
12/18/2013  16:34:00     -116.422        0.310      -18.657       50.006       45.800       22.756     2500.625     2097.670      517.831        0.951        0.256      116.422       22.538        0.037      335.154        5.599      853.263
12/18/2013  16:35:00      -93.104       48.973      -25.327       35.361       58.394       26.846     1250.428     3409.847      720.701        0.854        0.269      105.199       19.932        0.036      335.174        5.633      853.235
12/18/2013  16:36:00      -31.046       85.660      -13.809       32.287       37.404       19.802     1042.460     1399.066      392.138        0.566        0.142       91.112       13.977        0.024      335.328        5.888      853.143
12/18/2013  16:37:00     -104.709        9.193      -14.294       49.753       34.819       29.611     2475.351     1212.383      876.821        0.791        0.228      105.112       16.002        0.023      335.223        5.714      853.109
12/18/2013  16:38:00      -85.083      132.267      -14.093       40.013       55.941       26.553     1601.043     3129.387      705.049        1.518        0.272      157.270       21.932        0.019      335.125        5.552      853.022
12/18/2013  16:39:00     -166.677       79.921      -26.373       67.796       60.804       29.519     4596.345     3697.087      871.366        2.201        0.458      184.848       23.231        0.016      335.227        5.720      852.995
12/18/2013  16:40:00      -69.413      -45.356      -20.750       79.280       38.046       25.842     6285.331     1447.501      667.785        0.785        0.420       82.918       29.277        0.125      335.168        5.622      853.065
12/18/2013  16:41:00     -127.933     -145.468      -13.704      105.824       83.246       42.079    11198.744     6929.897     1770.665        2.880        0.995      193.720       53.802        0.077      335.122        5.546      853.146
12/18/2013  16:42:00      -82.749      -99.825       -4.870       56.256       56.717       27.589     3164.753     3216.807      761.152        1.199        0.357      129.663       24.216        0.035      335.296        5.832      853.138
12/18/2013  16:43:00     -119.402      -92.489       -4.211       39.925       45.134       25.327     1594.039     2037.111      641.449        1.355        0.214      151.034       19.437        0.017      335.314        5.864      853.081
12/18/2013  16:44:00     -101.658     -115.110        2.141       60.235       53.783       36.949     3628.265     2892.566     1365.229        1.574        0.394      153.573       41.256        0.072      335.283        5.813      853.098
12/18/2013  16:45:00     -170.360      -63.606       -9.297       40.216       38.729       29.886     1617.318     1499.949      893.170        1.858        0.201      181.847       27.283        0.023      335.160        5.612      853.059
12/18/2013  16:46:00     -198.545        5.178      -16.393       35.540       38.494       24.066     1263.060     1481.781      579.159        2.152        0.166      198.612       21.317        0.012      335.119        5.541      852.973
12/18/2013  16:47:00     -230.115       -9.252      -31.847       53.271       63.690       27.778     2837.850     4056.425      771.593        3.086        0.383      230.301       29.688        0.017      335.066        5.452      852.877
12/18/2013  16:48:00     -146.749       12.457      -10.114       52.212       59.339       39.926     2726.067     3521.107     1594.056        1.482        0.392      147.277       24.943        0.029      335.014        5.367      852.830
12/18/2013  16:49:00     -182.339       46.432      -36.783       55.805       40.929       33.666     3114.246     1675.213     1133.431        2.134        0.296      188.158       27.501        0.021      334.993        5.332      852.780
12/18/2013  16:50:00     -121.648      -53.048      -16.158      102.184       66.485       30.569    10441.519     4420.292      934.473        1.683        0.790      132.711       18.160        0.019      334.981        5.312      852.758
12/18/2013  16:51:00      -19.838      -75.845       -9.448       31.750       34.745       25.554     1008.078     1207.200      652.992        0.455        0.143       78.397        9.250        0.014      335.076        5.471      852.760
12/18/2013  16:52:00      -76.139      -47.909       -3.033       44.306       27.601       33.269     1962.983      761.809     1106.829        0.597        0.192       89.958       23.061        0.066      335.154        5.600      852.794
12/18/2013  16:53:00      -91.316      -13.693       -3.979       45.740       44.111       20.529     2092.164     1945.743      421.451        0.650        0.223       92.337       15.703        0.029      335.334        5.896      852.795
12/18/2013  16:54:00      -77.377      -42.666      -13.150       29.451       29.586       21.994      867.367      875.324      483.744        0.510        0.111       88.360       21.153        0.057      335.206        5.686      852.773
12/18/2013  16:55:00     -111.914      -50.450       -4.107       41.309       19.120       18.298     1706.468      365.577      334.833        0.875        0.120      122.760       17.259        0.020      335.218        5.704      852.733
12/18/2013  16:56:00     -180.040       19.964      -21.168       50.359       32.891       23.568     2536.045     1081.803      555.439        1.872        0.209      181.144       23.929        0.017      335.127        5.555      852.699
12/18/2013  16:57:00     -136.806      -18.575       -4.538       71.513       30.275       24.983     5114.134      916.558      624.160        1.287        0.333      138.061       31.067        0.051      335.042        5.413      852.689
12/18/2013  16:58:00     -123.713      -43.251       -4.694       36.092       35.040       19.571     1302.621     1227.785      383.023        1.006        0.146      131.056       18.578        0.020      335.013        5.365      852.650
12/18/2013  16:59:00        8.030      -52.843       -1.548       23.737       30.431       23.324      563.443      926.021      544.010        0.245        0.102       53.449       14.536        0.074      335.190        5.658      852.645
12/18/2013  17:00:00      -70.761     -141.103       -4.286       47.006       60.622       26.870     2209.603     3675.085      722.001        1.577        0.330      157.852       31.431        0.040      335.253        5.762      852.660
12/18/2013  17:01:00      -16.937       13.326       11.096       35.769       38.379       24.711     1279.406     1472.940      610.650        0.197        0.168       21.551       19.865        0.850      335.276        5.802      852.573
12/18/2013  17:02:00      -21.521      -15.606        4.413       37.410       37.732       16.413     1399.520     1423.723      269.392        0.191        0.155       26.584       17.331        0.425      335.268        5.787      852.520
12/18/2013  17:03:00     -126.829      -30.529       -4.124       49.017       30.676       22.338     2402.672      941.022      499.001        1.044        0.192      130.452       26.057        0.040      335.206        5.686      852.488
12/18/2013  17:04:00      -75.647        4.962       -3.744       32.695       21.623       14.618     1068.936      467.535      213.674        0.376        0.088       75.809       18.141        0.057      335.121        5.545      852.433
12/18/2013  17:05:00     -109.265        8.199      -10.181       28.956       27.533       13.261      838.476      758.064      175.842        0.694        0.089      109.572       13.953        0.016      335.104        5.518      852.405
12/18/2013  17:06:00      -73.356      -33.802        7.063       72.181       33.775       26.884     5210.148     1140.755      722.761        0.682        0.354       80.769       36.561        0.205      335.078        5.475      852.449
12/18/2013  17:07:00     -126.223      -28.685      -10.175       31.630       27.341       21.972     1000.435      747.534      482.753        0.954        0.112      129.441       18.419        0.020      335.111        5.529      852.412
12/18/2013  17:08:00     -123.995      -46.346        2.434       40.513       36.782       20.337     1641.306     1352.917      413.586        1.047        0.170      132.373       19.919        0.023      335.085        5.486      852.429
12/18/2013  17:09:00      -88.830       -9.145       -5.941       25.875       17.807       13.850      669.537      317.083      191.814        0.459        0.059       89.299       15.797        0.031      335.131        5.561      852.418
12/18/2013  17:10:00       -8.075       10.583       14.869       28.313       20.160       20.515      801.601      406.443      420.846        0.101        0.081       13.312       19.765        2.204      335.132        5.563      852.326
12/18/2013  17:11:00      -64.054       29.110      -16.311       32.569       19.068        9.877     1060.756      363.570       97.556        0.337        0.076       70.359        9.162        0.017      335.191        5.660      852.310
12/18/2013  17:12:00     -120.279       53.988      -17.013       39.168       25.260       18.598     1534.141      638.047      345.871        1.009        0.126      131.840       14.790        0.013      335.036        5.404      852.296
12/18/2013  17:13:00     -174.478       -8.221      -16.447       35.934       44.923       23.909     1291.260     2018.085      571.620        1.733        0.194      174.672       19.260        0.012      334.963        5.282      852.311
12/18/2013  17:14:00      -98.180      -36.791       -8.222       21.779       29.157       15.464      474.328      850.110      239.144        0.631        0.078      104.847        9.639        0.008      334.909        5.193      852.342
12/18/2013  17:15:00        8.276       28.071        9.027       36.733       30.026       21.455     1349.330      901.554      460.327        0.182        0.136       29.266        4.164        0.020      334.901        5.180      852.252
12/18/2013  17:16:00      126.987       83.181        1.432       54.748       46.182       26.853     2997.306     2132.803      721.091        1.445        0.293      151.805       20.652        0.019      334.878        5.141      852.246
12/18/2013  17:17:00      -35.170       81.048      -25.207       71.493       51.413       19.557     5111.274     2643.344      382.486        0.829        0.407       88.350       22.264        0.064      334.820        5.045      852.284
12/18/2013  17:18:00      -79.189       38.368       -7.768       36.967       31.578       20.214     1366.577      997.142      408.591        0.529        0.139       87.994       22.305        0.064      334.821        5.046      852.308
12/18/2013  17:19:00      -79.174       80.828      -21.027       43.135       26.841       16.680     1860.622      720.426      278.238        0.805        0.143      113.145       18.868        0.028      335.107        5.521      852.252
12/18/2013  17:20:00      -89.572       40.402       -5.541       68.497       38.727       22.689     4691.816     1499.783      514.780        0.820        0.335       98.262       22.090        0.051      334.926        5.221      852.217
12/18/2013  17:21:00      -28.085       21.705        2.623       33.634       46.649       24.862     1131.240     2176.095      618.134        0.260        0.196       35.495       13.057        0.135      335.139        5.574      852.197
12/18/2013  17:22:00      -17.533      -27.198        1.691       17.063       27.735       20.418      291.156      769.248      416.899        0.126        0.074       32.360       17.613        0.296      335.025        5.384      852.250
12/18/2013  17:23:00      -12.977      -56.384        2.142       27.765       43.223       25.893      770.906     1868.187      670.432        0.333        0.165       57.858       25.212        0.190      335.104        5.517      852.304
12/18/2013  17:24:00        8.643       49.264       89.470       40.003       48.128       48.050     1600.257     2316.321     2308.761        0.836        0.311       50.016       35.976        0.517      335.011        5.362      852.327
12/18/2013  17:25:00       80.991        3.416       54.644       74.150       44.596       50.274     5498.199     1988.823     2527.524        0.978        0.501       81.063       42.328        0.273      334.883        5.150      852.325
12/18/2013  17:26:00       33.895       21.822       27.516       29.428       15.577       19.645      866.003      242.656      385.919        0.194        0.075       40.312       14.625        0.132      334.899        5.177      852.337
12/18/2013  17:27:00      136.552       84.985       33.424       48.041       53.847       44.466     2307.972     2899.470     1977.260        1.708        0.359      160.838       38.279        0.057      334.901        5.177      852.368
12/18/2013  17:28:00      105.756      159.342      140.684       78.989       67.029       55.486     6239.268     4492.911     3078.645        3.509        0.691      191.244       51.325        0.072      334.846        5.084      852.356
12/18/2013  17:29:00       87.110       85.640      110.782       69.949       56.934       37.566     4892.810     3241.466     1411.188        1.837        0.477      122.157       33.519        0.075      334.851        5.095      852.349
12/18/2013  17:30:00      100.819       15.395       22.965       47.961       32.842       37.628     2300.287     1078.568     1415.836        0.786        0.240      101.987       17.394        0.029      334.843        5.082      852.324
12/18/2013  17:31:00       54.202       68.889       -8.077       55.679       32.402       24.243     3100.134     1049.900      587.704        0.624        0.237       87.655       16.867        0.037      334.814        5.035      852.330
12/18/2013  17:32:00       16.892       56.894        2.669       30.984       35.328       21.297      959.996     1248.092      453.545        0.310        0.133       59.349       24.086        0.165      334.894        5.168      852.362
12/18/2013  17:33:00       37.315       75.448      -10.378       21.337       18.367       12.434      455.271      337.353      154.607        0.407        0.047       84.171        8.282        0.010      334.885        5.152      852.378
12/18/2013  17:34:00       86.988       64.180        7.982       28.191       15.191       18.081      794.713      230.752      326.920        0.655        0.068      108.102        9.973        0.009      334.852        5.100      852.378
12/18/2013  17:35:00       66.510       83.915       57.677       52.000       27.497       38.480     2703.989      756.068     1480.676        0.987        0.247      107.076       37.719        0.124      334.845        5.084      852.391
12/18/2013  17:36:00       18.066       65.797       69.618       29.516       46.367       28.152      871.207     2149.935      792.537        0.666        0.191       68.232       28.512        0.175      334.842        5.082      852.404
12/18/2013  17:37:00       57.047       43.298       37.954       25.127       36.310       28.075      631.374     1318.409      788.186        0.465        0.137       71.618       22.198        0.096      334.859        5.108      852.367
12/18/2013  17:38:00       53.818       73.292       -3.659       43.944       38.735       31.089     1931.085     1500.388      966.545        0.634        0.220       90.930       27.206        0.090      334.847        5.090      852.285
12/18/2013  17:39:00       27.752       86.384       -6.709       36.246       37.913       27.829     1313.800     1437.405      774.479        0.590        0.176       90.733       24.937        0.076      334.734        4.902      852.255
12/18/2013  17:40:00       30.729      116.015      -21.258       30.574       38.772       23.044      934.751     1503.268      531.009        0.891        0.148      120.016       20.909        0.030      334.820        5.044      852.254
12/18/2013  17:41:00      -41.657       68.413      -14.627       32.120       49.859       13.941     1031.670     2485.940      194.342        0.517        0.186       80.097       16.342        0.042      334.899        5.176      852.282
12/18/2013  17:42:00      -29.878      107.717      -16.755       24.328       40.031       13.742      591.833     1602.493      188.835        0.758        0.119      111.784       12.771        0.013      334.912        5.199      852.287
12/18/2013  17:43:00      -28.327      139.069      -19.420       15.620       21.046       13.299      243.981      442.935      176.872        1.069        0.043      141.924        6.415        0.002      335.082        5.481      852.267
12/18/2013  17:44:00      -24.081       87.243       -4.351       27.961       51.130       18.348      781.816     2614.327      336.664        0.597        0.187       90.506       22.668        0.063      335.164        5.615      852.261
12/18/2013  17:45:00      -19.858       10.763       -6.624       25.071       37.927       12.118      628.541     1438.447      146.840        0.138        0.111       22.587        7.598        0.113      335.066        5.454      852.293
12/18/2013  17:46:00       -2.748      -51.962       -8.908       14.465       10.546       12.350      209.240      111.218      152.524        0.163        0.024       52.034        7.387        0.020      335.041        5.413      852.341
12/18/2013  17:47:00       24.445       10.807        5.394       15.060       28.440       18.683      226.791      808.816      349.069        0.106        0.069       26.728       14.818        0.307      335.082        5.479      852.329
12/18/2013  17:48:00       32.583       69.724       -2.713       20.451       31.248       20.497      418.257      976.431      420.136        0.387        0.091       76.962       22.335        0.084      335.213        5.697      852.269
12/18/2013  17:49:00       26.975       64.229       -3.594       24.966       46.674       17.348      623.322     2178.494      300.968        0.398        0.155       69.663       18.714        0.072      335.311        5.860      852.209
12/18/2013  17:50:00      -63.412        2.053      -13.334       54.768       28.928       11.569     2999.491      836.823      133.840        0.409        0.199       63.445       14.308        0.051      335.061        5.444      852.200
12/18/2013  17:51:00      -50.717      -30.974      -11.605       44.645        9.896        8.896     1993.216       97.925       79.142        0.292        0.109       59.427       16.350        0.076      335.062        5.446      852.225
12/18/2013  17:52:00       -4.449      -36.991       -2.638       22.838       18.009       11.797      521.592      324.318      139.165        0.119        0.049       37.258        8.855        0.056      335.318        5.870      852.222
12/18/2013  17:53:00       -3.063      -13.183       -7.224       17.212       15.462        6.199      296.239      239.078       38.427        0.040        0.029       13.534        7.150        0.279      335.339        5.906      852.205
12/18/2013  17:54:00      -30.660       16.480       -9.085       19.805       12.617       10.780      392.252      159.188      116.200        0.098        0.033       34.808        6.137        0.031      335.742        6.577      852.179
12/18/2013  17:55:00      -64.447       23.928      -19.057       32.049       41.272       15.205     1027.107     1703.339      231.188        0.402        0.148       68.746       17.242        0.063      335.844        6.750      852.149
12/18/2013  17:56:00     -140.548      -23.308      -23.420       17.753       17.746        6.957      315.171      314.918       48.406        1.076        0.034      142.467        5.736        0.002      335.203        5.680      852.163
12/18/2013  17:57:00     -170.368       -0.509      -24.626       44.108       22.569       20.109     1945.501      509.372      404.374        1.625        0.143      170.368       15.886        0.009      335.031        5.395      852.160
12/18/2013  17:58:00      -87.411       -2.261      -22.058       23.162       22.373        9.822      536.463      500.551       96.466        0.463        0.057       87.440        9.628        0.012      335.093        5.497      852.126
12/18/2013  17:59:00     -114.217      -24.374      -25.078       18.860       20.738       16.076      355.695      430.080      258.424        0.766        0.052      116.788       11.775        0.010      334.942        5.248      852.113
12/18/2013  18:00:00     -158.055      -30.284      -23.773       70.146       53.832       25.962     4920.452     2897.860      674.000        1.748        0.425      160.930       21.653        0.018      334.879        5.141      852.118
12/18/2013  18:01:00     -149.038       39.134      -30.171       91.945       48.726       28.814     8453.825     2374.213      830.267        1.815        0.583      154.090       21.137        0.019      334.977        5.306      852.103
12/18/2013  18:02:00      -87.719      -11.959      -15.808       41.099       34.979       22.369     1689.100     1223.515      500.386        0.575        0.171       88.530        9.618        0.012      334.946        5.254      852.063
12/18/2013  18:03:00     -160.362        3.285      -21.345       57.786       74.438       26.484     3339.215     5540.960      701.393        1.788        0.479      160.396       28.684        0.032      335.021        5.378      852.031
12/18/2013  18:04:00      -85.398       11.591      -18.512       42.985       54.548       23.942     1847.675     2975.516      573.236        0.658        0.270       86.181       18.032        0.044      335.276        5.803      852.019
12/18/2013  18:05:00     -126.723      -35.426      -27.529       42.630       37.636       22.700     1817.341     1416.468      515.300        1.091        0.187      131.582       25.018        0.036      334.925        5.219      852.013
12/18/2013  18:06:00     -130.112      -59.380      -14.115       78.687       56.736       30.345     6191.582     3218.958      920.821        1.549        0.517      143.022       33.027        0.053      334.942        5.248      852.021
12/18/2013  18:07:00     -164.221      -29.389      -18.916       61.754       57.767       31.374     3813.575     3337.010      984.313        1.816        0.407      166.830       26.529        0.025      334.944        5.250      852.044
12/18/2013  18:08:00     -194.325        2.467       -9.746       74.155       51.050       34.758     5498.918     2606.143     1208.117        2.359        0.466      194.341       35.939        0.034      335.102        5.510      852.023
12/18/2013  18:09:00     -205.057       78.491      -25.993       80.640       43.137       34.694     6502.777     1860.793     1203.706        2.922        0.478      219.566       22.255        0.010      335.410        6.023      852.027
12/18/2013  18:10:00     -208.322       73.857      -22.890       62.193       43.533       36.034     3867.910     1895.125     1298.421        2.822        0.353      221.026       35.124        0.025      335.306        5.848      852.034
12/18/2013  18:11:00     -192.155       57.631      -20.191       41.330       52.334       28.305     1708.162     2738.853      801.158        2.295        0.262      200.611       21.921        0.012      335.239        5.738      852.041
12/18/2013  18:12:00     -167.219      -29.597      -23.308       44.826       49.207       27.019     2009.404     2421.369      730.009        1.727        0.258      169.818       23.816        0.020      335.153        5.597      852.065
12/18/2013  18:13:00     -171.747      -19.010      -19.839       61.476       51.800       29.081     3779.274     2683.250      845.679        1.878        0.365      172.795       19.195        0.012      335.218        5.704      852.046
12/18/2013  18:14:00     -152.293      -13.729      -27.851       52.606       49.423       39.832     2767.375     2442.641     1586.567        1.548        0.340      152.910       30.451        0.040      335.185        5.648      852.046
12/18/2013  18:15:00     -182.090      -94.277      -25.779       48.431       51.230       34.677     2345.516     2624.520     1202.467        2.444        0.309      205.048       23.006        0.013      335.240        5.740      852.044
12/18/2013  18:16:00     -195.074      -65.037      -17.238       54.192       50.986       34.764     2936.734     2599.616     1208.550        2.466        0.337      205.630       24.385        0.014      335.280        5.806      852.062
12/18/2013  18:17:00     -132.614      -15.943      -13.981       68.560       69.191       45.088     4700.499     4787.389     2032.906        1.478        0.576      133.569       39.574        0.088      335.431        6.059      852.043
12/18/2013  18:18:00     -133.359      -36.048      -16.449       60.307       65.958       39.555     3636.953     4350.410     1564.596        1.445        0.478      138.145       34.760        0.063      335.619        6.373      852.010
12/18/2013  18:19:00     -155.384       22.399      -24.913       71.714       91.712       48.793     5142.962     8411.122     2380.770        2.060        0.797      156.990       43.829        0.078      335.840        6.740      852.007
12/18/2013  18:20:00     -197.272      -67.555      -23.844       68.871       62.049       38.644     4743.161     3850.099     1493.388        2.707        0.504      208.518       35.031        0.028      335.893        6.827      852.008
12/18/2013  18:21:00     -222.347      -31.114      -25.309       47.999       83.113       29.820     2303.877     6907.821      889.214        3.057        0.505      224.514       25.682        0.013      335.994        6.995      852.004
12/18/2013  18:22:00     -255.749      -32.946      -11.413      101.631       88.090       54.496    10328.917     7759.866     2969.813        4.384        1.053      257.862       60.920        0.056      336.451        7.759      852.001
12/18/2013  18:23:00     -209.062      -22.046      -22.083       63.536       62.119       37.878     4036.876     3858.767     1434.714        2.700        0.467      210.221       19.926        0.009      336.592        7.994      852.003
12/18/2013  18:24:00     -282.817      -59.692      -30.859       70.949       58.617       30.450     5033.736     3435.976      927.225        4.695        0.470      289.048       22.531        0.006      336.724        8.214      852.018
12/18/2013  18:25:00     -278.597       -1.114      -16.555      116.418       75.782       43.461    13553.062     5742.984     1888.819        4.953        1.059      278.600       57.151        0.042      336.908        8.523      852.023
12/18/2013  18:26:00     -276.341      -49.070       -5.468      100.537       81.221       43.690    10107.665     6596.921     1908.829        4.870        0.931      280.664       41.508        0.022      336.972        8.630      852.037
12/18/2013  18:27:00     -231.344      -24.365      -11.243      109.373       74.407       49.582    11962.532     5536.407     2458.403        3.710        0.998      232.624       54.792        0.055      337.142        8.915      852.038
12/18/2013  18:28:00     -281.707      -36.976       -5.667      122.246       78.353       57.963    14944.047     6139.142     3359.680        5.260        1.222      284.123       67.816        0.057      337.432        9.400      852.020
12/18/2013  18:29:00     -205.831      -58.076       -9.655       62.546       65.839       40.883     3912.063     4334.779     1671.452        2.787        0.496      213.867       28.882        0.018      337.439        9.410      852.003
12/18/2013  18:30:00     -207.635      -37.022      -12.765       88.284       60.294       41.964     7794.139     3635.337     1760.946        2.892        0.660      210.910       44.217        0.044      337.485        9.488      852.001
12/18/2013  18:31:00     -282.321      -63.402       -2.171      105.713       67.183       49.265    11175.299     4513.497     2427.031        5.092        0.906      289.352       53.332        0.034      337.839       10.081      852.002
12/18/2013  18:32:00     -297.782      -74.734      -20.826      107.593       78.811       56.154    11576.292     6211.114     3153.292        5.781        1.047      307.017       53.381        0.030      337.964       10.291      851.982
12/18/2013  18:33:00     -274.754      -73.056        8.195      125.263       96.503       56.652    15690.719     9312.829     3209.450        5.455        1.411      284.301       52.480        0.034      338.168       10.633      851.964
12/18/2013  18:34:00     -195.492      -57.060        4.397       99.497      100.041       53.978     9899.613    10008.266     2913.636        3.215        1.141      203.649       54.020        0.070      338.075       10.476      851.963
12/18/2013  18:35:00     -282.332      -86.156      -12.824      115.749       94.355       50.565    13397.888     8902.795     2556.818        5.607        1.243      295.185       52.210        0.031      338.242       10.760      851.954
12/18/2013  18:36:00     -215.649      -55.868        8.477      111.349       94.128       46.969    12398.498     8859.987     2206.051        3.658        1.173      222.769       43.966        0.039      338.123       10.556      851.947
12/18/2013  18:37:00     -227.109      -69.906        1.033      108.270       87.189       44.928    11722.404     7601.916     2018.524        3.890        1.067      237.624       49.066        0.043      338.280       10.821      851.953
12/18/2013  18:38:00     -185.458      -26.026        1.439      137.312       88.335       66.292    18854.451     7803.096     4394.576        3.306        1.553      187.275       63.535        0.115      338.241       10.757      851.961
12/18/2013  18:39:00     -253.396      -69.894      -11.286      129.518       89.751       55.123    16774.841     8055.199     3038.491        4.854        1.393      262.859       60.216        0.052      338.331       10.905      851.971
12/18/2013  18:40:00     -242.327      -90.531       -8.759      115.441      115.628       56.022    13326.672    13369.935     3138.519        4.841        1.492      258.685       58.900        0.052      338.362       10.960      851.965
12/18/2013  18:41:00     -233.506     -131.874      -12.249      114.479       94.759       56.874    13105.478     8979.195     3234.691        4.869        1.266      268.171       49.606        0.034      338.382       10.993      851.961
12/18/2013  18:42:00     -171.804     -103.192       -0.764       82.955       83.502       50.249     6881.580     6972.544     2524.914        2.827        0.819      200.412       52.288        0.068      338.250       10.771      851.960
12/18/2013  18:43:00     -161.678      -88.501        1.908      112.533       89.941       60.088    12663.727     8089.369     3610.567        2.917        1.218      184.316       59.078        0.103      338.244       10.762      851.952
12/18/2013  18:44:00     -247.897      -82.246      -14.094       85.058       62.553       45.835     7234.903     3912.928     2100.873        4.083        0.662      261.185       34.290        0.017      338.260       10.787      851.954
12/18/2013  18:45:00     -213.163     -140.224       -4.715      129.295      120.312       62.861    16717.080    14475.058     3951.449        5.013        1.757      255.149       72.708        0.081      338.333       10.911      851.941
12/18/2013  18:46:00     -224.845      -80.667       -7.996      119.377       71.448       51.487    14250.874     5104.882     2650.942        3.956        1.100      238.878       53.997        0.051      338.271       10.807      851.924
12/18/2013  18:47:00     -331.036     -225.004       -6.602      154.446      169.631       92.020    23853.499    28774.820     8467.618       11.067        3.055      400.264       87.387        0.048      338.430       11.072      851.910
12/18/2013  18:48:00     -248.482      -85.618       -0.835      156.428      105.680       69.521    24469.689    11168.229     4833.152        5.477        2.024      262.819       80.393        0.094      338.299       10.853      851.915
12/18/2013  18:49:00     -236.907      -91.861        3.194      191.440      122.592       68.098    36649.227    15028.779     4637.391        6.043        2.816      254.093       87.680        0.119      338.287       10.834      851.907
12/18/2013  18:50:00     -367.665      -85.604      -15.517      124.091       78.158       56.009    15398.588     6108.708     3137.062        8.369        1.232      377.499       48.015        0.016      338.374       10.978      851.887
12/18/2013  18:51:00     -303.350     -108.529      -15.135       99.405      107.896       47.085     9881.386    11641.467     2217.021        6.388        1.187      322.180       46.864        0.021      338.304       10.861      851.863
12/18/2013  18:52:00     -257.235      -89.723        7.012      111.551       97.896       54.033    12443.645     9583.545     2919.523        4.960        1.247      272.433       58.970        0.047      338.194       10.676      851.861
12/18/2013  18:53:00     -363.576     -140.228      -12.821      151.001      113.368       57.436    22801.169    12852.215     3298.869        9.548        1.948      389.681       67.840        0.030      338.372       10.977      851.847
12/18/2013  18:54:00     -284.819      -32.202       -6.740      137.238       83.834       58.547    18834.168     7028.116     3427.798        5.574        1.465      286.634       64.951        0.051      338.206       10.698      851.830
12/18/2013  18:55:00     -275.712      -69.202      -16.516      163.512      100.006       63.405    26736.090    10001.259     4020.181        6.091        2.038      284.264       71.356        0.063      338.275       10.814      851.812
12/18/2013  18:56:00     -418.655      -99.343      -24.897      122.552       96.823       54.184    15019.003     9374.746     2935.922       10.654        1.366      430.280       44.572        0.011      338.395       11.013      851.799
12/18/2013  18:57:00     -360.624     -133.515      -10.468      191.374      120.432       70.152    36624.058    14503.810     4921.303       10.201        2.802      384.546       80.450        0.044      338.356       10.950      851.777
12/18/2013  18:58:00     -220.415      -67.275      -18.641      128.452       85.653       44.113    16499.947     7336.438     1945.942        3.961        1.289      230.453       41.554        0.033      338.212       10.707      851.762
12/18/2013  18:59:00     -201.194      -88.649       -8.038      109.740       81.684       54.929    12042.776     6672.285     3017.148        3.506        1.087      219.859       45.921        0.044      338.180       10.655      851.737
12/18/2013  19:00:00     -382.977     -126.570       -5.246      183.905      120.480       59.789    33821.080    14515.514     3574.744       10.731        2.596      403.350       67.926        0.028      338.251       10.773      851.727
12/18/2013  19:01:00     -344.147     -127.046      -22.920      117.096      106.202       54.322    13711.391    11278.960     2950.902        8.152        1.397      366.849       55.718        0.023      338.260       10.789      851.746
12/18/2013  19:02:00     -305.017      -94.337       -9.644      143.110      136.337       70.347    20480.545    18587.716     4948.634        7.301        2.201      319.272       72.331        0.051      338.159       10.618      851.758
12/18/2013  19:03:00     -312.654     -144.828       -5.608      136.393      130.051       76.574    18603.005    16913.190     5863.575        8.006        2.069      344.568       72.626        0.044      338.278       10.818      851.774
12/18/2013  19:04:00     -280.908      -38.174        4.350      131.290       97.059       64.677    17236.994     9420.413     4183.105        5.561        1.542      283.490       65.114        0.053      338.201       10.688      851.782
12/18/2013  19:05:00     -311.645      -81.052      -10.154      129.062      117.832       66.657    16656.940    13884.284     4443.169        6.938        1.749      322.013       76.052        0.056      338.226       10.731      851.784
12/18/2013  19:06:00     -331.860      -53.730       -5.191      168.296      110.344       68.046    28323.596    12175.700     4630.217        7.908        2.256      336.181       76.790        0.052      338.222       10.723      851.804
12/18/2013  19:07:00     -322.743      -56.419        4.560      141.410      104.113       67.930    19996.871    10839.603     4614.523        7.140        1.773      327.637       72.345        0.049      338.182       10.656      851.809
12/18/2013  19:08:00     -297.741      -66.707       -7.003      140.127      106.524       59.337    19635.446    11347.288     3520.825        6.382        1.725      305.122       59.899        0.039      338.170       10.637      851.808
12/18/2013  19:09:00     -296.792      -27.019      -19.817      125.345      105.301       61.025    15711.276    11088.363     3724.005        5.986        1.526      298.020       66.936        0.050      338.150       10.603      851.798
12/18/2013  19:10:00     -320.246     -108.309       -6.669      165.556       93.537       66.952    27408.627     8749.084     4482.610        7.748        2.032      338.066       81.419        0.058      338.172       10.641      851.797
12/18/2013  19:11:00     -328.673     -104.696       -9.887      130.313      103.641       58.009    16981.492    10741.414     3365.069        7.508        1.554      344.945       59.261        0.030      338.145       10.594      851.799
12/18/2013  19:12:00     -356.321      -96.249      -25.597      131.410       99.867       57.535    17268.659     9973.465     3310.328        8.371        1.528      369.091       57.077        0.024      338.161       10.622      851.792
12/18/2013  19:13:00     -425.187      -49.739      -10.930      150.475      110.202       69.868    22642.586    12144.517     4881.519       11.152        1.983      428.086       82.467        0.037      338.263       10.794      851.788
12/18/2013  19:14:00     -405.244      -37.954      -19.591      202.321      123.895       81.286    40933.796    15350.034     6607.375       11.446        3.145      407.017      102.511        0.063      338.282       10.825      851.758
12/18/2013  19:15:00     -412.854      -82.071      -22.238      164.174      135.700       68.226    26953.068    18414.580     4654.760       11.384        2.501      420.932       61.144        0.021      338.234       10.743      851.741
12/18/2013  19:16:00     -291.901      -54.355       -3.260      102.743       82.501       56.037    10556.090     6806.361     3140.146        5.433        1.025      296.919       58.327        0.039      338.117       10.548      851.737
12/18/2013  19:17:00     -276.295      -97.246       -5.752      137.175       87.765       62.034    18816.975     7702.764     3848.271        5.809        1.518      292.909       70.188        0.057      338.124       10.559      851.724
12/18/2013  19:18:00     -344.253     -101.605        2.899      213.585      123.158       69.307    45618.613    15167.983     4803.417        9.721        3.280      358.934       88.211        0.060      338.112       10.539      851.712
12/18/2013  19:19:00     -455.805     -142.580      -15.108      192.527      145.017       74.877    37066.663    21029.896     5606.520       14.600        3.185      477.585       84.224        0.031      338.283       10.825      851.704
12/18/2013  19:20:00     -317.415      -56.014        4.364      165.007      102.856       69.202    27227.165    10579.404     4788.867        7.325        2.130      322.320       78.748        0.060      338.104       10.528      851.735
12/18/2013  19:21:00     -301.879     -114.627        4.235      119.866       98.469       52.595    14367.907     9696.087     2766.223        6.555        1.342      322.909       59.382        0.034      338.019       10.381      851.731
12/18/2013  19:22:00     -309.192      -58.976       -8.875      115.816      100.975       57.994    13413.443    10195.926     3363.307        6.306        1.349      314.766       52.427        0.028      337.947       10.262      851.714
12/18/2013  19:23:00     -256.343      -36.812       -0.673      120.549       96.256       48.294    14531.949     9265.289     2332.315        4.659        1.306      258.973       53.361        0.042      337.994       10.340      851.675
12/18/2013  19:24:00     -362.818      -65.319       -8.077      136.353      109.703       64.253    18592.149    12034.685     4128.494        8.536        1.738      368.651       66.874        0.033      337.949       10.266      851.638
12/18/2013  19:25:00     -342.016      -98.591      -11.800      137.044      133.339       69.465    18780.968    17779.382     4825.364        8.410        2.069      355.942       59.584        0.028      337.962       10.287      851.673
12/18/2013  19:26:00     -353.922      -85.820      -20.827      134.159       95.751       57.015    17998.706     9168.294     3250.663        8.173        1.521      364.178       58.067        0.025      337.965       10.292      851.645
12/18/2013  19:27:00     -323.982      -88.576      -16.368      151.104      121.363       56.299    22832.436    14729.093     3169.570        7.690        2.037      335.872       61.064        0.033      337.926       10.228      851.632
12/18/2013  19:28:00     -348.182      -82.800      -14.682      123.716       98.041       53.543    15305.754     9612.062     2866.893        7.804        1.389      357.892       57.181        0.026      337.970       10.301      851.651
12/18/2013  19:29:00     -349.187      -98.936       -6.392      154.771      142.552       69.212    23954.012    20321.010     4790.301        9.040        2.453      362.933       68.090        0.035      338.051       10.437      851.657
12/18/2013  19:30:00     -320.038     -146.566      -20.008      157.522      124.559       67.807    24813.323    15515.053     4597.755        8.461        2.246      352.003       76.389        0.047      338.012       10.372      851.649
12/18/2013  19:31:00     -381.531     -112.182      -18.120      165.371      120.906       73.874    27347.639    14618.181     5457.385       10.294        2.371      397.681       73.511        0.034      338.058       10.446      851.644
12/18/2013  19:32:00     -290.436     -172.499        0.129      156.168      119.574       71.550    24388.333    14297.965     5119.466        7.895        2.190      337.800       69.835        0.043      338.091       10.503      851.653
12/18/2013  19:33:00     -385.915     -194.007      -27.789      123.933       90.892       60.304    15359.440     8261.284     3636.609       10.730        1.363      431.937       45.570        0.011      338.223       10.723      851.642
12/18/2013  19:34:00     -276.469     -156.189        0.335      204.910      130.058       70.463    41988.017    16915.100     4964.991        8.234        3.193      317.538       85.926        0.073      338.100       10.519      851.624
12/18/2013  19:35:00     -319.482     -177.776      -17.516      161.722      151.758       67.857    26154.118    23030.513     4604.567        9.388        2.689      365.614       79.074        0.047      338.111       10.537      851.626
12/18/2013  19:36:00     -206.171      -72.377       13.492      156.880       98.419       57.593    24611.299     9686.378     3316.965        4.276        1.881      218.506       66.106        0.092      338.061       10.454      851.633
12/18/2013  19:37:00     -226.613      -65.669       -4.997      114.537       76.022       50.240    13118.627     5779.361     2524.073        3.855        1.071      235.936       47.386        0.040      337.944       10.258      851.631
12/18/2013  19:38:00     -324.812     -118.143       -9.717      200.648      139.359       57.445    40259.656    19420.890     3299.916        9.126        3.149      345.631       74.800        0.047      338.030       10.402      851.627
12/18/2013  19:39:00     -341.327      -75.621       -7.592      161.564      112.152       69.886    26102.798    12578.119     4883.997        8.292        2.178      349.604       64.339        0.034      338.024       10.391      851.625
12/18/2013  19:40:00     -273.287     -167.307      -10.897      120.633      140.122       62.994    14552.231    19634.165     3968.281        7.047        1.908      320.433       76.178        0.057      338.042       10.421      851.614
12/18/2013  19:41:00     -314.776     -122.059       -6.236      132.546      118.635       60.881    17568.542    14074.261     3706.532        7.468        1.767      337.612       64.195        0.036      338.079       10.483      851.605
12/18/2013  19:42:00     -287.658     -121.031       -1.715      175.987      100.483       74.920    30971.349    10096.880     5613.068        7.203        2.334      312.082       87.602        0.079      337.987       10.330      851.567
12/18/2013  19:43:00     -278.717     -124.825      -13.093      121.608       95.954       56.673    14788.560     9207.142     3211.874        6.032        1.360      305.392       60.164        0.039      338.032       10.404      851.553
12/18/2013  19:44:00     -281.952     -130.443      -11.231      157.456      109.276       66.084    24792.468    11941.297     4367.049        6.886        2.055      310.665       77.814        0.063      337.983       10.323      851.513
12/18/2013  19:45:00     -266.845      -93.158        3.337      135.527      119.021       57.559    18367.490    14166.107     3313.079        5.787        1.792      282.639       58.593        0.043      337.934       10.240      851.480
12/18/2013  19:46:00     -212.785      -45.874        5.823      112.027       94.713       55.077    12550.115     8970.465     3033.459        3.598        1.228      217.674       52.411        0.058      337.881       10.153      851.470
12/18/2013  19:47:00     -294.032     -115.546       -6.668      140.059      107.102       57.578    19616.629    11470.837     3315.212        6.712        1.720      315.921       65.317        0.043      337.950       10.267      851.469
12/18/2013  19:48:00     -240.345     -124.440       -2.224      149.665      111.814       72.420    22399.563    12502.335     5244.663        5.669        2.007      270.650       74.149        0.075      337.937       10.246      851.462
12/18/2013  19:49:00     -229.512     -105.983      -11.062       91.826       91.036       49.991     8432.038     8287.488     2499.129        4.162        0.961      252.801       42.863        0.029      337.902       10.186      851.458
12/18/2013  19:50:00     -328.379     -131.061      -14.427      145.786      105.167       52.868    21253.446    11060.173     2794.996        8.016        1.755      353.567       51.975        0.022      337.988       10.331      851.436
12/18/2013  19:51:00     -217.108     -124.822       -5.022      123.619       90.779       65.669    15281.680     8240.840     4312.369        4.528        1.392      250.433       68.862        0.076      337.875       10.142      851.427
12/18/2013  19:52:00     -260.843      -65.509       -4.333       94.739      102.183       62.955     8975.418    10441.366     3963.358        4.786        1.169      268.943       64.743        0.058      337.908       10.197      851.397
12/18/2013  19:53:00     -249.590      -87.567      -12.776      119.457       79.134       54.334    14269.879     6262.205     2952.137        4.680        1.174      264.505       56.714        0.046      337.892       10.169      851.388
12/18/2013  19:54:00     -271.759     -163.986      -15.653      125.366      108.400       59.683    15716.556    11750.615     3562.073        6.600        1.551      317.403       66.160        0.043      337.908       10.198      851.378
12/18/2013  19:55:00     -231.821     -109.512       -8.818      146.848       94.386       57.186    21564.301     8908.775     3270.235        4.977        1.687      256.387       71.803        0.078      337.873       10.138      851.372
12/18/2013  19:56:00     -196.451      -67.592       -8.763      104.392       69.980       47.985    10897.652     4897.155     2302.592        3.066        0.905      207.754       57.149        0.076      337.844       10.090      851.334
12/18/2013  19:57:00     -299.307      -86.738       -6.711      119.823       98.711       57.053    14357.567     9743.871     3255.079        6.225        1.368      311.621       56.821        0.033      337.858       10.114      851.314
12/18/2013  19:58:00     -164.203      -41.480        3.223       79.294       87.166       43.764     6287.574     7597.963     1915.288        2.224        0.790      169.361       38.637        0.052      337.737        9.911      851.298
12/18/2013  19:59:00     -223.055     -122.067       -4.303      139.143      118.494       62.668    19360.641    14040.928     3927.242        5.099        1.866      254.271       73.235        0.083      337.966       10.293      851.275
12/18/2013  20:00:00     -253.019     -108.229      -18.311       72.032       69.814       38.997     5188.623     4873.937     1520.728        4.382        0.579      275.195       32.187        0.014      337.961       10.285      851.252
12/18/2013  20:01:00     -230.050      -14.690       -5.096       80.247       61.385       41.256     6439.547     3768.088     1702.026        3.254        0.595      230.518       40.708        0.031      337.843       10.087      851.242
12/18/2013  20:02:00     -283.640      -58.792      -14.587       90.107       69.919       39.656     8119.355     4888.716     1572.627        4.935        0.729      289.669       42.423        0.021      337.842       10.086      851.214
12/18/2013  20:03:00     -205.705     -114.863       -5.154       83.893       83.337       45.753     7037.954     6944.985     2093.340        3.580        0.804      235.602       44.422        0.036      337.822       10.053      851.199
12/18/2013  20:04:00     -234.178      -99.149       -8.753      107.266       66.725       47.895    11506.076     4452.212     2293.959        4.150        0.913      254.303       52.538        0.043      337.773        9.971      851.192
12/18/2013  20:05:00     -153.024      -37.755        9.411       96.016       64.485       38.887     9218.996     4158.270     1512.237        1.991        0.744      157.613       49.294        0.098      337.692        9.835      851.179
12/18/2013  20:06:00     -172.315      -58.827       -4.956       67.085       64.480       33.495     4500.460     4157.638     1121.909        2.148        0.489      182.080       20.982        0.013      337.733        9.904      851.170
12/18/2013  20:07:00     -161.998      -33.425       -5.466       48.648       47.490       34.585     2366.587     2255.315     1196.144        1.660        0.291      165.411       25.197        0.023      337.625        9.725      851.177
12/18/2013  20:08:00     -132.917      -55.556        8.649       50.892       73.835       34.536     2590.003     5451.572     1192.758        1.503        0.462      144.060       27.953        0.038      337.650        9.767      851.182
12/18/2013  20:09:00     -166.723      -28.863       -1.594       64.976       50.003       32.405     4221.848     2500.302     1050.103        1.820        0.389      169.203       34.020        0.040      337.631        9.734      851.187
12/18/2013  20:10:00     -102.632      -28.051        3.491       71.887       57.575       32.818     5167.769     3314.930     1077.005        1.044        0.478      106.396       33.269        0.098      337.550        9.601      851.178
12/18/2013  20:11:00     -119.908      -81.289       -4.238       64.385       53.398       33.563     4145.483     2851.372     1126.480        1.456        0.406      144.865       32.369        0.050      337.695        9.841      851.166
12/18/2013  20:12:00     -155.321      -40.025        7.791       74.813       54.201       34.541     5596.978     2937.744     1193.076        1.776        0.486      160.395       38.330        0.057      337.633        9.737      851.165
12/18/2013  20:13:00     -254.559      -63.594      -23.640       75.640       53.569       36.198     5721.409     2869.653     1310.284        3.965        0.495      262.382       30.635        0.014      337.835       10.073      851.149
12/18/2013  20:14:00     -147.451      -64.375       -6.399       47.511       56.454       28.832     2257.342     3187.085      831.278        1.610        0.314      160.891       26.795        0.028      337.619        9.716      851.165
12/18/2013  20:15:00      -91.935      -29.465        5.820       66.444       41.113       34.948     4414.740     1690.312     1221.376        0.834        0.366       96.541       30.424        0.099      337.620        9.716      851.165
12/18/2013  20:16:00     -143.362      -32.772      -11.516       67.353       48.879       32.266     4536.486     2389.146     1041.089        1.486        0.398      147.060       29.732        0.041      337.656        9.776      851.146
12/18/2013  20:17:00     -206.072      -40.569      -12.543       69.990       46.470       34.571     4898.622     2159.502     1195.166        2.626        0.413      210.027       36.164        0.030      337.707        9.859      851.136
12/18/2013  20:18:00     -173.187      -17.351        4.287      102.296       88.738       46.033    10464.559     7874.409     2119.020        2.538        1.023      174.054       42.053        0.058      337.754        9.940      851.112
12/18/2013  20:19:00     -146.781      -54.015        2.674       99.741       85.506       59.997     9948.191     7311.191     3599.687        2.266        1.043      156.404       66.248        0.179      337.737        9.911      851.092
12/18/2013  20:20:00     -185.360      -11.718       -4.112       85.602       59.979       43.420     7327.741     3597.530     1885.313        2.366        0.641      185.730       36.857        0.039      337.670        9.798      851.105
12/18/2013  20:21:00     -261.573      -71.190      -18.688       79.380       75.007       41.022     6301.198     5626.054     1682.798        4.372        0.681      271.088       33.035        0.015      337.758        9.945      851.089
12/18/2013  20:22:00     -256.089      -63.630      -13.924       80.487       64.303       37.656     6478.077     4134.826     1418.005        4.093        0.602      263.876       34.410        0.017      337.798       10.011      851.076
12/18/2013  20:23:00     -294.503     -145.652       -9.991      108.770      115.634       56.195    11830.972    13371.126     3157.824        6.820        1.418      328.552       47.465        0.021      338.014       10.374      851.057
12/18/2013  20:24:00     -118.223      -97.041        2.601       69.174       56.812       38.715     4785.067     3227.649     1498.887        1.645        0.476      152.950       39.526        0.067      337.765        9.959      851.054
12/18/2013  20:25:00     -142.434      -58.821        2.043       52.179       61.015       32.188     2722.620     3722.840     1036.083        1.562        0.374      154.101       26.733        0.030      337.766        9.961      851.049
12/18/2013  20:26:00     -160.326      -80.247       -3.859       63.123       57.334       27.567     3984.495     3287.235      759.963        2.009        0.402      179.287       30.150        0.028      337.852       10.105      851.031
12/18/2013  20:27:00     -151.923      -54.675       -8.728       55.248       52.542       27.655     3052.320     2760.705      764.792        1.636        0.329      161.462       25.824        0.026      337.699        9.848      851.024
12/18/2013  20:28:00     -172.941      -56.681       -0.430       77.917       75.985       42.150     6071.044     5773.704     1776.641        2.337        0.681      181.992       36.302        0.040      337.906       10.196      851.029
12/18/2013  20:29:00     -191.825      -58.801       -1.941       95.245       68.413       39.490     9071.522     4680.332     1559.444        2.778        0.766      200.635       42.421        0.045      337.877       10.146      851.040
12/18/2013  20:30:00     -242.179      -65.892      -10.251       87.554       72.947       43.759     7665.689     5321.297     1914.877        3.900        0.745      250.983       37.853        0.023      337.844       10.089      851.040
12/18/2013  20:31:00     -243.414      -28.680      -16.599       92.038       84.781       47.213     8470.960     7187.875     2229.025        3.912        0.894      245.098       35.523        0.021      337.940       10.250      851.025
12/18/2013  20:32:00     -309.594      -57.887      -26.469       98.266       73.828       36.594     9656.267     5450.578     1339.104        5.817        0.822      314.960       30.359        0.009      337.972       10.303      851.006
12/18/2013  20:33:00     -197.091      -84.417        4.057       80.462       85.998       45.325     6474.072     7395.673     2054.367        3.095        0.796      214.409       42.356        0.039      337.799       10.014      851.012
12/18/2013  20:34:00     -178.028      -36.221       -8.294      133.100       92.031       46.296    17715.618     8469.647     2143.319        3.070        1.416      181.676       42.754        0.055      337.784        9.990      851.005
12/18/2013  20:35:00     -316.145      -63.174      -15.911      105.104      101.540       47.480    11046.845    10310.313     2254.318        6.390        1.181      322.395       46.901        0.021      337.843       10.088      851.005
12/18/2013  20:36:00     -224.964      -79.056       -1.450      113.685       94.575       53.458    12924.248     8944.519     2857.713        4.079        1.236      238.451       57.747        0.059      337.848       10.098      850.980
12/18/2013  20:37:00     -242.903      -92.737       -9.754       91.063       80.772       48.365     8292.438     6524.107     2339.163        4.242        0.858      260.004       49.223        0.036      337.782        9.986      850.969
12/18/2013  20:38:00     -158.179      -78.955       -4.662       84.092       85.006       49.617     7071.471     7225.944     2461.834        2.401        0.838      176.789       46.637        0.070      337.717        9.879      850.956
12/18/2013  20:39:00     -232.871      -27.822       -7.866      100.444       78.006       43.863    10088.989     6084.892     1923.982        3.658        0.905      234.527       43.668        0.035      337.752        9.935      850.948
12/18/2013  20:40:00     -226.914      -29.691       -9.790      103.364       70.342       40.814    10684.023     4947.937     1665.809        3.488        0.865      228.849       45.095        0.039      337.701        9.849      850.931
12/18/2013  20:41:00     -202.101      -39.348       -4.454      127.594       56.372       42.820    16280.336     3177.770     1833.551        3.185        1.065      205.896       57.691        0.079      337.668        9.794      850.914
12/18/2013  20:42:00     -187.482      -11.428        0.402       91.003       57.483       49.109     8281.564     3304.341     2411.686        2.464        0.700      187.830       56.591        0.091      337.701        9.850      850.899
12/18/2013  20:43:00     -203.231      -45.922       -4.565       86.558       86.121       45.395     7492.370     7416.813     2060.713        3.020        0.848      208.355       41.186        0.039      337.746        9.926      850.871
12/18/2013  20:44:00     -115.826      -57.121       -1.710      103.269       54.393       45.609    10664.536     2958.572     2080.198        1.619        0.785      129.145       47.651        0.136      337.637        9.744      850.886
12/18/2013  20:45:00     -153.610     -106.462        2.004       89.114      116.137       48.990     7941.274    13487.918     2400.042        2.938        1.191      186.896       43.888        0.055      337.688        9.829      850.885
12/18/2013  20:46:00     -139.723      -77.499       -0.291       82.903       88.383       35.439     6872.934     7811.614     1255.925        2.073        0.797      159.777       33.107        0.043      337.681        9.816      850.891
12/18/2013  20:47:00     -135.263        5.781       -5.286       49.926       73.326       42.090     2492.567     5376.746     1771.609        1.400        0.482      135.387       25.978        0.037      337.754        9.941      850.877
12/18/2013  20:48:00     -197.073      -51.898        2.177      114.395       94.795       42.532    13086.191     8986.174     1809.001        3.270        1.194      203.792       51.065        0.063      337.698        9.846      850.874
12/18/2013  20:49:00     -188.928      -65.633       -8.472       82.079       54.190       34.497     6736.961     2936.598     1190.061        2.547        0.543      200.004       35.521        0.032      337.742        9.919      850.919
12/18/2013  20:50:00     -165.676      -53.690       -6.053       68.218       70.493       36.596     4653.701     4969.227     1339.255        2.066        0.548      174.158       33.460        0.037      337.755        9.943      850.945
12/18/2013  20:51:00      -76.476       13.242        2.465       55.974       39.409       30.413     3133.096     1553.091      924.958        0.582        0.281       77.614       29.891        0.148      337.519        9.546      850.990
12/18/2013  20:52:00     -107.645      -29.406       -3.042       39.802       41.447       24.191     1584.223     1717.854      585.217        0.817        0.194      111.589       19.429        0.030      337.584        9.657      851.009
12/18/2013  20:53:00     -117.268       20.878       -6.528       48.358       43.648       28.440     2338.503     1905.180      808.822        0.964        0.253      119.112       26.504        0.050      337.627        9.730      851.033
12/18/2013  20:54:00      -79.680        8.768       -4.496       22.402       23.844       16.343      501.834      568.556      267.084        0.389        0.067       80.161       12.957        0.026      337.647        9.763      851.055
12/18/2013  20:55:00      -24.948       64.829      -13.794       27.374       37.414       19.962      749.352     1399.829      398.491        0.378        0.127       69.463       20.298        0.085      337.611        9.702      851.084
12/18/2013  20:56:00      -39.767       33.287       -2.584       24.180       19.358       13.164      584.655      374.750      173.281        0.191        0.057       51.860        8.705        0.028      337.543        9.588      851.084
12/18/2013  20:57:00       38.860       73.592      -12.544       25.007       33.376       13.455      625.366     1113.929      181.036        0.450        0.096       83.222        3.678        0.002      337.420        9.381      851.093
12/18/2013  20:58:00       -5.187       13.330       -2.134       14.983       17.903       10.482      224.491      320.501      109.867        0.043        0.033       14.304        9.635        0.454      337.337        9.242      851.108
12/18/2013  20:59:00      -43.004       56.792      -15.300       30.065       36.417       17.273      903.894     1326.200      298.343        0.392        0.126       71.237       15.111        0.045      337.443        9.419      851.136
12/18/2013  21:00:00      -35.583       51.343        3.059       26.604       34.333       19.257      707.790     1178.748      370.832        0.308        0.113       62.468       14.528        0.054      337.344        9.254      851.156
12/18/2013  21:01:00      -12.450        2.474        5.677       38.092       14.459       14.245     1451.007      209.061      202.914        0.103        0.093       12.694       18.853        2.206      337.147        8.924      851.175
12/18/2013  21:02:00      -60.279        8.560       -0.761       20.807       32.173       20.600      432.924     1035.109      424.361        0.280        0.095       60.884       16.283        0.072      337.300        9.180      851.187
12/18/2013  21:03:00      -47.791       21.103      -11.101       21.721       21.383       12.667      471.815      457.211      160.457        0.197        0.054       52.243        4.559        0.008      337.292        9.168      851.187
12/18/2013  21:04:00        0.775        3.314        0.016       12.560        9.415        4.693      157.766       88.644       22.021        0.014        0.013        3.403        3.367        0.979      337.210        9.032      851.173
12/18/2013  21:05:00        9.744       -4.604        1.710        8.131       13.870        3.909       66.118      192.369       15.280        0.020        0.014       10.776        4.525        0.176      337.161        8.949      851.159
12/18/2013  21:06:00        8.037       16.625       12.571       11.241       36.593       19.542      126.357     1339.021      381.888        0.117        0.092       18.466       12.801        0.481      337.170        8.964      851.157
12/18/2013  21:07:00      -28.690       37.954       13.446       39.593       19.619       22.866     1567.572      384.921      522.846        0.246        0.124       47.578       26.634        0.313      337.178        8.977      851.136
12/18/2013  21:08:00      -37.955       57.306       -7.367       16.738       24.000       11.585      280.164      575.978      134.204        0.288        0.050       68.735        7.136        0.011      337.245        9.089      851.121
12/18/2013  21:09:00      -41.641       42.088        5.680       38.696       33.951       20.351     1497.393     1152.643      414.154        0.330        0.153       59.207       20.961        0.125      337.083        8.818      851.103
12/18/2013  21:10:00       -4.878       15.511       -0.148       42.105       17.611       15.469     1772.870      310.161      239.281        0.129        0.116       16.260       21.199        1.700      336.852        8.432      851.085
12/18/2013  21:11:00      -28.110       47.469        3.666       29.229       25.806       21.729      854.325      665.959      472.144        0.252        0.100       55.168       20.589        0.139      337.107        8.860      851.065
12/18/2013  21:12:00      -26.507      114.480      -15.600       28.157       29.192       15.335      792.789      852.183      235.156        0.797        0.094      117.508       10.545        0.008      337.210        9.030      851.046
12/18/2013  21:13:00      -60.226      103.026      -14.692       28.656       29.836       17.707      821.144      890.210      313.549        0.824        0.101      119.338       10.716        0.008      337.274        9.138      851.047
12/18/2013  21:14:00      -14.311      130.450      -21.146       29.437       38.748       16.543      866.554     1501.382      273.668        1.015        0.132      131.232       10.634        0.007      337.234        9.071      851.039
12/18/2013  21:15:00      -10.647      174.024      -27.357       19.289       26.312       13.936      372.056      692.340      194.226        1.620        0.063      174.350       10.231        0.003      337.105        8.854      851.018
12/18/2013  21:16:00      -10.388      171.372      -26.380       43.858       27.156       17.893     1923.561      737.473      320.167        1.658        0.149      171.687       11.976        0.005      337.201        9.015      851.007
12/18/2013  21:17:00      111.871      114.992      -20.790       47.742       58.165       38.315     2279.332     3383.185     1468.036        1.665        0.357      160.431       36.192        0.051      336.917        8.540      850.984
12/18/2013  21:18:00       93.622       53.934        6.008       44.582       48.822       26.780     1987.536     2383.608      717.191        0.840        0.254      108.047       19.193        0.032      336.632        8.066      850.970
12/18/2013  21:19:00       28.178       16.348        1.893       42.335       37.898       26.729     1792.257     1436.250      714.444        0.250        0.197       32.577       18.693        0.329      336.516        7.871      850.983
12/18/2013  21:20:00       46.196       57.258        6.804       63.352       48.397       39.321     4013.448     2342.228     1546.123        0.668        0.395       73.570       30.380        0.171      336.552        7.931      851.004
12/18/2013  21:21:00       29.157      189.547      -27.386       46.667       57.211       31.746     2177.768     3273.125     1007.803        2.199        0.323      191.777       28.578        0.022      336.488        7.820      851.028
12/18/2013  21:22:00       16.864      255.398      -31.095       86.997      114.459       58.251     7568.439    13100.807     3393.167        4.527        1.203      255.954       56.923        0.049      336.335        7.564      851.046
12/18/2013  21:23:00        7.604      430.591      -53.161       86.138      132.362       67.046     7419.767    17519.772     4495.204       10.886        1.472      430.658       59.827        0.019      336.265        7.447      851.058
12/18/2013  21:24:00        1.766      484.525      -66.713       64.362       91.691       44.194     4142.407     8407.267     1953.066       12.686        0.725      484.529       37.176        0.006      336.326        7.549      851.076
12/18/2013  21:25:00       19.787      340.792      -40.434       85.816      116.961       60.874     7364.310    13679.981     3705.696        7.145        1.237      341.366       58.756        0.030      336.245        7.414      851.079
12/18/2013  21:26:00       44.025      298.109      -31.943       81.993      141.873       71.362     6722.784    20127.959     5092.504        6.188        1.597      301.342       78.445        0.068      336.197        7.335      851.059
12/18/2013  21:27:00       41.808      268.590      -37.537       87.892      114.925       63.980     7725.053    13207.862     4093.401        5.016        1.251      271.825       68.359        0.063      336.185        7.314      851.038
12/18/2013  21:28:00       45.104      295.025      -38.843       81.281      120.411       62.533     6606.564    14498.708     3910.334        5.780        1.251      298.453       56.608        0.036      336.189        7.320      851.036
12/18/2013  21:29:00       55.507      268.255      -33.162       76.513      106.238       60.792     5854.191    11286.501     3695.683        4.849        1.042      273.938       64.064        0.055      336.142        7.242      851.037
12/18/2013  21:30:00       59.021      257.990      -36.290       74.297      111.129       63.800     5520.083    12349.729     4070.401        4.665        1.097      264.655       72.089        0.074      336.215        7.363      851.040
12/18/2013  21:31:00       72.116      228.201      -32.979       88.071      111.198       60.692     7756.462    12364.886     3683.510        4.108        1.190      239.325       60.446        0.064      336.173        7.294      851.032
12/18/2013  21:32:00       28.892      335.175      -30.252       74.393      156.444       77.490     5534.334    24474.812     6004.705        7.505        1.801      336.418       86.935        0.067      336.216        7.365      851.041
12/18/2013  21:33:00       37.276      293.610      -31.530       83.290      110.687       64.122     6937.302    12251.659     4111.671        5.594        1.165      295.967       64.328        0.047      336.175        7.297      851.040
12/18/2013  21:34:00       25.968      287.598      -33.650       66.033       95.561       51.585     4360.355     9131.846     2661.062        5.033        0.808      288.768       51.042        0.031      336.133        7.227      851.066
12/18/2013  21:35:00       -1.176      304.233      -34.138       70.650       79.853       49.421     4991.375     6376.562     2442.404        5.377        0.691      304.236       38.740        0.016      336.144        7.244      851.077
12/18/2013  21:36:00       33.069      427.209      -53.349       87.415      157.174       57.001     7641.316    24703.810     3249.091       11.101        1.780      428.487       49.845        0.014      336.359        7.604      851.044
12/18/2013  21:37:00        7.840      355.082      -27.599       68.118      151.790       72.597     4640.098    23040.207     5270.338        7.992        1.648      355.169       81.273        0.052      336.575        7.967      851.060
12/18/2013  21:38:00        3.131      319.398      -47.067       70.672       90.796       41.570     4994.525     8243.894     1728.067        5.960        0.748      319.414       39.944        0.016      336.564        7.946      851.072
12/18/2013  21:39:00      -80.014      282.841      -41.851       58.785       97.791       47.052     3455.718     9563.084     2213.911        5.169        0.762      293.941       29.915        0.010      336.575        7.965      851.096
12/18/2013  21:40:00     -110.076      243.173      -42.127       75.904      102.825       42.684     5761.453    10572.960     1821.955        4.559        0.908      266.927       42.311        0.025      336.612        8.029      851.134
12/18/2013  21:41:00      -63.237      277.373      -36.861      107.343       79.659       51.162    11522.475     6345.611     2617.580        5.139        1.024      284.490       40.351        0.020      336.572        7.961      851.130
12/18/2013  21:42:00       54.539      163.529      -11.157       62.193       96.086       70.160     3867.993     9232.464     4922.442        2.393        0.901      172.384       65.146        0.143      336.462        7.777      851.086
12/18/2013  21:43:00       35.884      176.982      -21.623       39.494       91.276       38.129     1559.788     8331.218     1453.821        2.221        0.567      180.583       45.720        0.064      336.493        7.827      851.070
12/18/2013  21:44:00        8.565      267.957      -38.512       56.368       72.006       36.554     3177.296     5184.911     1336.222        4.153        0.485      268.094       31.946        0.014      336.341        7.574      851.057
12/18/2013  21:45:00       17.747      298.711      -37.389       53.447      102.857       49.043     2856.631    10579.604     2405.172        5.339        0.792      299.237       48.415        0.026      336.328        7.551      851.038
12/18/2013  21:46:00       -4.780      219.289      -13.027       72.347       78.279       52.886     5234.050     6127.575     2796.881        3.122        0.708      219.341       46.924        0.046      336.247        7.417      851.046
12/18/2013  21:47:00        6.585      334.100      -28.965       80.355       95.666       61.939     6457.006     9152.031     3836.468        6.597        0.972      334.165       53.232        0.025      336.345        7.581      851.036
12/18/2013  21:48:00       -2.773      210.651      -14.602       57.882       96.388       52.513     3350.340     9290.696     2757.646        2.999        0.770      210.669       55.009        0.068      336.258        7.435      851.029
12/18/2013  21:49:00       12.608      310.346      -44.860       62.233      112.707       47.884     3872.914    12702.915     2292.899        5.867        0.943      310.602       56.065        0.033      336.340        7.571      851.035
12/18/2013  21:50:00       23.575      266.974      -26.067       72.915       95.136       40.234     5316.541     9050.862     1618.738        4.425        0.799      268.013       39.517        0.022      336.289        7.487      851.016
12/18/2013  21:51:00      -42.034      246.465      -24.771       63.352      105.612       44.095     4013.427    11153.918     1944.325        4.012        0.856      250.023       52.900        0.045      336.302        7.508      851.000
12/18/2013  21:52:00     -171.659      284.772      -63.246       86.148      121.185       43.502     7421.469    14685.925     1892.434        6.928        1.200      332.509       50.729        0.023      336.487        7.818      850.984
12/18/2013  21:53:00       27.209      204.528       -6.725       82.021      160.501       70.609     6727.388    25760.627     4985.671        4.004        1.874      206.330       77.441        0.141      336.236        7.399      850.969
12/18/2013  21:54:00       68.211      110.579       -6.874       76.421       70.164       51.322     5840.201     4922.994     2633.963        1.516        0.670      129.925       43.688        0.113      336.169        7.288      850.985
12/18/2013  21:55:00      120.742      159.880       -0.308      104.217      100.575       79.345    10861.272    10115.316     6295.607        3.370        1.364      200.350       64.592        0.104      336.222        7.376      850.980
12/18/2013  21:56:00       17.338      171.731      -18.798       70.847      106.730       56.740     5019.345    11391.252     3219.400        2.488        0.981      172.604       65.559        0.144      336.220        7.372      850.948
12/18/2013  21:57:00       49.115      290.335      -19.291      104.491      132.545       76.357    10918.323    17568.288     5830.465        6.069        1.716      294.460       74.887        0.065      336.244        7.412      850.979
12/18/2013  21:58:00       98.281      219.743      -11.146      120.835      126.138       86.287    14601.015    15910.706     7445.388        4.801        1.898      240.720       79.645        0.109      336.286        7.482      850.970
12/18/2013  21:59:00       41.569      216.860      -12.760       93.533      148.426       63.799     8748.388    22030.382     4070.254        4.188        1.742      220.808       62.900        0.081      336.251        7.425      850.997
12/18/2013  22:00:00       54.889      168.511       -9.185       83.812       91.606       60.379     7024.477     8391.575     3645.657        2.527        0.953      177.225       48.380        0.075      336.224        7.380      851.003
12/18/2013  22:01:00       43.266      149.305       -5.971       94.574      120.562       73.017     8944.330    14535.215     5331.411        2.650        1.441      155.448       70.460        0.205      336.249        7.422      851.013
12/18/2013  22:02:00       74.888      212.986      -15.652       75.715      148.167       80.625     5732.806    21953.398     6500.440        4.270        1.709      225.768       91.770        0.165      336.381        7.641      851.045
12/18/2013  22:03:00       -4.737      165.583       -7.165       58.209       89.467       53.236     3388.294     8004.328     2834.094        2.086        0.711      165.651       51.055        0.095      336.231        7.394      851.060
12/18/2013  22:04:00       16.366      334.604      -41.966       72.667      152.291       55.277     5280.475    23192.476     3055.557        7.275        1.576      335.004       67.873        0.041      336.318        7.535      851.058
12/18/2013  22:05:00      103.115      136.646        3.966       92.411      111.978       71.777     8539.757    12539.102     5151.899        2.777        1.312      171.186       58.845        0.118      336.258        7.436      851.067
12/18/2013  22:06:00      151.912      133.176       18.658       97.566       71.524       65.231     9519.157     5115.711     4255.144        3.002        0.945      202.022       58.659        0.084      336.281        7.475      851.038
12/18/2013  22:07:00       78.080      120.345        0.182       79.435       85.216       48.580     6309.906     7261.703     2360.002        1.825        0.797      143.455       50.342        0.123      336.139        7.239      851.034
12/18/2013  22:08:00       83.842      173.253       -1.433       84.882      119.979       90.397     7204.946    14395.000     8171.677        3.340        1.489      192.473       81.195        0.178      336.100        7.172      851.021
12/18/2013  22:09:00       43.192      265.190      -20.673       80.850      114.802       72.474     6536.727    13179.477     5252.455        4.879        1.248      268.684       72.540        0.073      336.025        7.048      851.032
12/18/2013  22:10:00       78.452      199.008       -6.355      100.329      164.154       87.842    10065.948    26946.377     7716.295        4.526        2.236      213.913       94.735        0.196      335.986        6.984      851.018
12/18/2013  22:11:00       80.427      176.874       -4.236       97.081      149.151       79.393     9424.735    22245.956     6303.257        3.787        1.899      194.301       86.907        0.200      335.896        6.833      851.024
12/18/2013  22:12:00      122.541      209.405       -5.214      117.892      146.351       95.319    13898.419    21418.556     9085.739        5.164        2.220      242.625       94.889        0.153      335.896        6.832      851.021
12/18/2013  22:13:00       77.351      196.377       -9.448       91.041      124.908       82.021     8288.434    15601.931     6727.496        3.762        1.531      211.062       78.299        0.138      335.886        6.815      851.011
12/18/2013  22:14:00       63.088      275.703      -27.116       93.468      144.746       87.043     8736.202    20951.429     7576.434        5.899        1.863      282.829       93.622        0.110      335.887        6.817      851.016
12/18/2013  22:15:00       27.902      152.776        6.790       91.507      113.971       70.880     8373.519    12989.422     5024.022        2.527        1.319      155.303       66.591        0.184      335.798        6.671      851.033
12/18/2013  22:16:00       81.714      271.940      -28.502      106.911      133.345       81.936    11429.877    17780.856     6713.563        5.868        1.796      283.952       83.539        0.087      335.891        6.823      851.020
12/18/2013  22:17:00       64.935      145.426      -11.973       75.364      104.937       62.110     5679.693    11011.857     3857.689        2.303        1.027      159.265       54.352        0.116      335.855        6.764      851.022
12/18/2013  22:18:00       90.884      212.661      -10.629      118.401      117.711       72.687    14018.710    13855.970     5283.396        4.337        1.658      231.267       65.207        0.079      335.857        6.768      851.013
12/18/2013  22:19:00       73.035      227.336        9.108      106.351      145.825       92.493    11310.561    21264.861     8554.903        4.911        2.057      238.780       87.872        0.135      335.820        6.705      851.004
12/18/2013  22:20:00       46.996      238.579      -11.669       84.960      138.819       80.328     7218.189    19270.621     6452.574        4.610        1.647      243.164       81.799        0.113      335.821        6.707      851.004
12/18/2013  22:21:00       44.630      212.052      -26.417       72.884      136.583       58.111     5312.144    18654.928     3376.875        3.750        1.367      216.698       69.714        0.103      335.838        6.735      851.026
12/18/2013  22:22:00        8.055      269.665      -22.030      106.535      147.206       67.595    11349.680    21669.734     4569.041        5.542        1.879      269.786       77.058        0.082      335.790        6.656      851.023
12/18/2013  22:23:00      -17.840      324.080      -46.825       65.970      102.722       47.527     4352.057    10551.865     2258.850        6.235        0.858      324.571       49.284        0.023      335.829        6.720      851.044
12/18/2013  22:24:00      -27.395      168.189      -17.505       58.815       60.969       32.145     3459.174     3717.172     1033.272        1.878        0.410      170.406       31.352        0.034      335.909        6.856      851.045
12/18/2013  22:25:00      -19.050      184.860       -9.394       66.540       97.078       51.847     4427.521     9424.145     2688.131        2.558        0.827      185.839       61.817        0.111      335.813        6.694      851.071
12/18/2013  22:26:00      -11.502      264.211      -36.449       30.947       44.507       24.741      957.745     1980.831      612.129        3.741        0.178      264.461       18.352        0.005      335.773        6.624      851.090
12/18/2013  22:27:00      -44.501      209.666      -25.099       45.421       68.101       37.033     2063.053     4637.731     1371.446        2.732        0.404      214.337       35.700        0.028      335.840        6.738      851.085
12/18/2013  22:28:00       18.467      131.546        0.151       44.118       75.296       48.211     1946.375     5669.445     2324.286        1.379        0.497      132.836       47.778        0.129      335.744        6.581      851.092
12/18/2013  22:29:00       84.860      143.118       15.514       74.764      119.168       80.214     5589.642    14201.022     6434.249        2.707        1.311      166.385       76.910        0.214      335.755        6.597      851.093
12/18/2013  22:30:00       49.979      122.234        3.954       69.394       89.089       66.458     4815.490     7936.849     4416.648        1.731        0.858      132.057       55.498        0.177      335.763        6.612      851.075
12/18/2013  22:31:00       78.496      105.995        8.404       75.661       63.068       43.937     5724.586     3977.559     1930.479        1.455        0.582      131.896       36.911        0.078      335.732        6.561      851.029
12/18/2013  22:32:00       61.096      187.945      -19.688       77.527       98.260       58.020     6010.407     9655.027     3366.305        2.923        0.952      197.626       55.760        0.080      335.787        6.651      850.987
12/18/2013  22:33:00       53.027      114.890       14.206       64.686       86.739       52.144     4184.280     7523.639     2719.023        1.532        0.721      126.537       52.180        0.170      335.777        6.635      850.982
12/18/2013  22:34:00        8.474      187.417      -27.566       54.253       54.850       28.899     2943.391     3008.525      835.171        2.137        0.339      187.609       26.933        0.021      335.806        6.683      851.000
12/18/2013  22:35:00       30.597      140.040       -5.114       57.338      110.683       46.317     3287.678    12250.679     2145.278        1.913        0.884      143.343       57.643        0.162      335.800        6.674      851.043
12/18/2013  22:36:00       63.644      122.885       -0.052       72.430       88.524       62.923     5246.098     7836.499     3959.343        1.809        0.852      138.388       59.615        0.186      335.875        6.799      851.064
12/18/2013  22:37:00       36.527       95.211        5.374       61.707       93.125       52.626     3807.735     8672.328     2769.461        1.284        0.762      101.977       55.637        0.298      335.910        6.858      851.073
12/18/2013  22:38:00       48.530      158.969      -16.277       51.170       80.532       42.530     2618.411     6485.459     1808.828        1.940        0.546      166.211       43.479        0.068      335.903        6.846      851.075
12/18/2013  22:39:00       27.051      160.813      -28.022       37.880       67.833       28.105     1434.911     4601.368      789.889        1.710        0.341      163.072       33.565        0.042      335.900        6.839      851.073
12/18/2013  22:40:00       15.364      123.847       -9.832       48.742       84.621       42.014     2375.809     7160.737     1765.184        1.348        0.565      124.797       51.564        0.171      335.846        6.751      851.061
12/18/2013  22:41:00       22.317      148.152      -16.961       30.369       40.310       26.087      922.264     1624.876      680.553        1.298        0.161      149.824       25.061        0.028      335.771        6.626      851.040
12/18/2013  22:42:00        2.061      137.230       -8.103       35.614       60.746       43.375     1268.336     3690.046     1881.362        1.287        0.342      137.246       40.173        0.086      335.719        6.540      851.026
12/18/2013  22:43:00       16.494      160.557      -21.543       34.891       50.640       26.758     1217.380     2564.363      715.971        1.551        0.225      161.402       30.965        0.037      335.723        6.547      851.027
12/18/2013  22:44:00       37.783      193.881      -33.893       40.842       35.755       23.216     1668.068     1278.404      538.968        2.183        0.174      197.528       20.284        0.011      335.792        6.659      851.045
12/18/2013  22:45:00       39.599       66.232       -8.496       36.869       33.572       20.884     1359.338     1127.072      436.130        0.447        0.146       77.167       19.969        0.067      335.821        6.710      851.067
12/18/2013  22:46:00      -26.198        8.541      -16.507       24.822       48.869        9.955      616.120     2388.190       99.102        0.207        0.155       27.555       10.130        0.135      335.939        6.905      851.088
12/18/2013  22:47:00       13.090      -62.765       -3.893       18.300       15.663       16.308      334.874      245.315      265.952        0.249        0.042       64.116        7.894        0.015      335.916        6.869      851.086
12/18/2013  22:48:00       32.483      -49.660       -1.939       18.616       24.704       14.000      346.571      610.285      196.000        0.234        0.058       59.340       13.391        0.051      335.982        6.977      851.091
12/18/2013  22:49:00       13.291       12.671       18.619       14.309       18.207       15.352      204.745      331.509      235.693        0.073        0.039       18.363       11.742        0.409      335.875        6.801      851.110
12/18/2013  22:50:00       14.477       20.605       15.294       23.403       20.357       15.232      547.711      414.425      232.027        0.103        0.060       25.183       15.258        0.367      335.880        6.810      851.115
12/18/2013  22:51:00       28.638       15.172       22.401       29.534       25.620       21.633      872.256      656.404      467.996        0.177        0.100       32.408       24.217        0.558      335.870        6.792      851.130
12/18/2013  22:52:00       22.431       21.057       22.332       26.329       23.181       27.767      693.211      537.337      771.028        0.172        0.100       30.766       22.103        0.516      335.830        6.724      851.152
12/18/2013  22:53:00       -1.768       20.839       25.278       28.789       23.754       18.635      828.810      564.269      347.280        0.141        0.087       20.913       13.708        0.430      335.839        6.740      851.170
12/18/2013  22:54:00       13.687       21.518       28.928       37.213       25.113       21.170     1384.798      630.660      448.172        0.198        0.123       25.502       15.317        0.361      335.727        6.553      851.186
12/18/2013  22:55:00       35.739       30.854       15.432       30.564       27.530       30.565      934.179      757.903      934.212        0.255        0.131       47.215       16.742        0.126      335.573        6.295      851.181
12/18/2013  22:56:00       -1.540       33.221       -3.343       14.383       29.239       16.556      206.881      854.900      274.112        0.123        0.067       33.256       16.743        0.253      335.705        6.517      851.189
12/18/2013  22:57:00      -39.512       87.882       -4.824       52.947       42.271       29.634     2803.389     1786.824      878.182        0.739        0.273       96.355       25.314        0.069      335.795        6.668      851.178
12/18/2013  22:58:00        9.597      167.789      -30.811       23.603       27.966       16.746      557.113      782.120      280.438        1.541        0.081      168.063       11.805        0.005      335.701        6.510      851.169
12/18/2013  22:59:00       12.430      151.909      -11.819       33.841       73.379       31.763     1145.241     5384.528     1008.904        1.545        0.377      152.416       39.105        0.066      335.550        6.257      851.151
12/18/2013  23:00:00       23.705      181.854      -16.793       40.633       59.080       37.754     1651.015     3490.471     1425.339        2.024        0.328      183.392       37.296        0.041      335.569        6.289      851.131
12/18/2013  23:01:00      -42.709      274.142      -37.300       60.381       57.506       28.989     3645.832     3306.990      840.348        4.308        0.390      277.449       19.249        0.005      335.731        6.555      851.104
12/18/2013  23:02:00      -18.472      303.808      -40.418       52.390       54.993       31.319     2744.727     3024.231      980.910        5.051        0.337      304.369       25.320        0.007      335.729        6.552      851.082
12/18/2013  23:03:00      -18.635      333.615      -49.018       69.349       74.290       32.832     4809.297     5518.949     1077.914        6.273        0.570      334.135       32.986        0.010      335.755        6.596      851.058
12/18/2013  23:04:00      -40.640      236.140      -40.356       44.795       59.108       34.749     2006.611     3493.739     1207.480        3.287        0.335      239.612       32.544        0.018      335.753        6.594      851.054
12/18/2013  23:05:00      -56.542      289.000      -35.436       58.133       80.024       37.256     3379.504     6403.904     1387.976        4.957        0.559      294.480       31.962        0.012      335.672        6.457      851.058
12/18/2013  23:06:00      -57.874      304.264      -35.788       53.699       65.227       35.253     2883.604     4254.551     1242.746        5.279        0.419      309.719       29.805        0.009      335.628        6.385      851.049
12/18/2013  23:07:00      -65.827      316.319      -37.900       54.421      106.783       47.628     2961.623    11402.694     2268.422        6.123        0.832      323.096       53.179        0.027      335.690        6.487      851.030
12/18/2013  23:08:00      -29.298      394.683      -43.835       51.179       71.420       34.758     2619.322     5100.793     1208.129        8.374        0.446      395.769       36.193        0.008      335.759        6.604      851.010
12/18/2013  23:09:00        9.680      398.614      -56.063       67.462       57.084       36.702     4551.139     3258.564     1347.015        8.564        0.458      398.732       30.773        0.006      335.688        6.485      850.980
12/18/2013  23:10:00       14.436      343.340      -47.682       64.442       70.546       44.651     4152.808     4976.770     1993.744        6.574        0.556      343.643       41.799        0.015      335.576        6.299      850.930
12/18/2013  23:11:00       26.953      304.384      -49.218       54.447       85.083       34.048     2964.475     7239.182     1159.258        5.358        0.568      305.575       37.213        0.015      335.562        6.274      850.897
12/18/2013  23:12:00       10.758      286.916      -31.620       58.326      116.499       53.155     3401.943    13572.033     2825.501        5.161        0.990      287.118       59.752        0.043      335.547        6.250      850.887
12/18/2013  23:13:00       -7.397      336.345      -42.198       61.915       69.610       35.918     3833.478     4845.542     1290.121        6.246        0.498      336.426       34.079        0.010      335.633        6.394      850.884
12/18/2013  23:14:00      -52.686      271.230      -35.161       48.824       79.829       30.470     2383.811     6372.717      928.417        4.363        0.484      276.300       33.793        0.015      335.623        6.376      850.884
12/18/2013  23:15:00      -69.912      264.892      -29.642       76.628       86.401       41.639     5871.846     7465.162     1733.795        4.550        0.754      273.962       30.020        0.012      335.540        6.239      850.901
12/18/2013  23:16:00     -103.582      303.907      -45.653       87.957      115.834       50.579     7736.438    13417.485     2558.199        6.444        1.186      321.075       50.184        0.024      335.618        6.369      850.912
12/18/2013  23:17:00      -68.886      193.774      -12.372       62.114       84.671       46.850     3858.104     7169.207     2194.914        2.783        0.661      205.654       46.443        0.051      335.626        6.382      850.917
12/18/2013  23:18:00      -90.276      258.226      -37.713       65.328       98.886       39.649     4267.787     9778.350     1572.022        4.593        0.781      273.552       36.126        0.017      335.709        6.521      850.907
12/18/2013  23:19:00     -123.636      122.928      -33.769       43.946       66.542       31.874     1931.243     4427.784     1015.969        1.946        0.369      174.348       24.623        0.020      335.703        6.512      850.920
12/18/2013  23:20:00      -62.384      259.973      -29.896       92.861      105.911       48.012     8623.090    11217.211     2305.156        4.725        1.107      267.353       52.922        0.039      335.679        6.470      850.922
12/18/2013  23:21:00      -80.805      292.145      -34.716       70.234      127.472       40.476     4932.807    16249.071     1638.278        5.795        1.141      303.114       41.221        0.018      335.644        6.410      850.905
12/18/2013  23:22:00     -105.563       94.276       -0.998       89.695       84.189       46.713     8045.208     7087.846     2182.066        1.867        0.866      141.533       48.890        0.119      335.683        6.479      850.915
12/18/2013  23:23:00     -128.638      173.006      -22.598       86.885       86.054       59.468     7548.944     7405.332     3536.449        3.274        0.925      215.589       56.186        0.068      335.606        6.350      850.917
12/18/2013  23:24:00     -122.746      171.628      -24.371       70.472       83.102       46.894     4966.301     6905.969     2199.068        2.959        0.704      211.004       42.542        0.041      335.621        6.374      850.907
12/18/2013  23:25:00     -117.587      198.794      -31.359       71.534       70.788       45.289     5117.045     5010.924     2051.056        3.325        0.609      230.967       42.059        0.033      335.577        6.300      850.885
12/18/2013  23:26:00      -56.597      326.195      -47.063       61.816      130.547       40.650     3821.247    17042.433     1652.419        6.717        1.126      331.069       38.206        0.013      335.564        6.278      850.861
12/18/2013  23:27:00      -41.670      239.520      -27.780       68.477       71.560       45.201     4689.157     5120.891     2043.117        3.586        0.593      243.118       38.962        0.026      335.606        6.348      850.823
12/18/2013  23:28:00        1.191      150.264        2.832       85.525       71.957       57.479     7314.576     5177.762     3303.819        1.919        0.790      150.269       55.151        0.135      335.561        6.276      850.794
12/18/2013  23:29:00      -40.819      284.422      -35.450       57.480       99.195       45.988     3303.999     9839.665     2114.917        4.954        0.763      287.336       48.798        0.029      335.512        6.193      850.789
12/18/2013  23:30:00      -84.334      202.402      -35.802       55.020       68.278       26.819     3027.203     4661.934      719.254        2.888        0.420      219.268       21.255        0.009      335.555        6.265      850.810
12/18/2013  23:31:00     -137.967      262.475      -36.600       75.039      105.390       59.627     5630.848    11106.952     3555.343        5.478        1.015      296.526       53.085        0.032      335.611        6.357      850.791
12/18/2013  23:32:00     -128.405      321.691      -47.094      115.990      142.231       55.075    13453.572    20229.594     3033.263        7.945        1.836      346.371       60.669        0.031      335.606        6.349      850.779
12/18/2013  23:33:00     -147.236      272.664      -26.807       89.247      103.680       65.526     7965.068    10749.465     4293.633        5.987        1.150      309.877       63.914        0.043      335.604        6.345      850.783
12/18/2013  23:34:00      -90.151      332.095      -39.110       80.752      140.776       53.123     6520.869    19817.948     2822.011        7.455        1.458      344.113       60.132        0.031      335.634        6.396      850.772
12/18/2013  23:35:00      -64.463      165.795      -13.797       73.643       85.657       44.187     5423.261     7337.132     1952.492        2.327        0.736      177.886       31.701        0.032      335.618        6.370      850.753
12/18/2013  23:36:00     -105.923      304.010      -31.155       95.289      104.504       61.937     9080.078    10921.076     3836.183        6.422        1.192      321.935       59.212        0.034      335.553        6.260      850.721
12/18/2013  23:37:00     -152.051      391.501      -53.369       85.361      131.752       55.800     7286.488    17358.628     3113.619       10.349        1.388      419.991       45.344        0.012      335.540        6.236      850.682
12/18/2013  23:38:00     -116.512      227.322      -25.744       93.029      130.584       60.802     8654.473    17052.193     3696.825        4.765        1.470      255.442       60.620        0.056      335.525        6.214      850.656
12/18/2013  23:39:00      -94.132      226.773      -28.488       64.979      119.837       43.799     4222.223    14360.923     1918.336        4.080        1.025      245.533       28.439        0.013      335.521        6.208      850.633
12/18/2013  23:40:00     -129.247      277.097      -36.289      102.093      138.538       62.679    10422.942    19192.868     3928.707        6.417        1.677      305.757       65.595        0.046      335.509        6.187      850.631
12/18/2013  23:41:00     -107.531      419.554      -54.749       90.427      159.381       65.132     8177.074    25402.291     4242.166       11.420        1.891      433.115       67.210        0.024      335.506        6.181      850.563
12/18/2013  23:42:00     -141.923      387.144      -43.229      104.164      189.308       67.118    10850.090    35837.642     4504.807       11.153        2.560      412.338       66.670        0.026      335.456        6.098      850.545
12/18/2013  23:43:00     -147.264      339.404      -37.956      123.090      202.174       79.323    15151.072    40874.483     6292.214       10.031        3.116      369.975       89.129        0.058      335.444        6.079      850.528
12/18/2013  23:44:00     -213.013      326.513      -54.064      139.806      144.675       81.486    19545.830    20930.825     6640.013       10.100        2.356      389.853       81.348        0.044      335.503        6.177      850.599
12/18/2013  23:45:00     -279.318      363.769      -70.497       99.910      186.774       71.276     9982.064    34884.489     5080.222       13.262        2.497      458.635       75.462        0.027      335.483        6.144      850.621
12/18/2013  23:46:00     -157.126      271.154      -40.916       75.947       95.115       54.603     5767.919     9046.774     2981.495        5.884        0.890      313.389       49.321        0.025      335.436        6.065      850.595
12/18/2013  23:47:00     -152.610      257.866      -43.818      100.448      151.522       64.952    10089.824    22958.856     4218.758        6.448        1.863      299.641       78.108        0.068      335.380        5.973      850.558
12/18/2013  23:48:00     -210.478      382.614      -51.061       93.172      156.988       72.033     8680.962    24645.266     5188.697       11.590        1.926      436.685       68.949        0.025      335.355        5.931      850.520
12/18/2013  23:49:00     -178.831      382.252      -57.258      118.326      160.847       68.059    14001.146    25871.684     4631.990       11.293        2.225      422.016       79.222        0.035      335.321        5.875      850.523
12/18/2013  23:50:00     -160.168      281.949      -28.111      101.599      123.680       69.519    10322.334    15296.735     4832.906        6.819        1.523      324.267       62.754        0.037      335.302        5.841      850.517
12/18/2013  23:51:00     -245.772      360.174      -62.832      110.339      151.231       71.661    12174.629    22870.849     5135.294       11.712        2.009      436.038       72.317        0.028      335.302        5.843      850.496
12/18/2013  23:52:00     -284.462      392.308      -89.943      127.423      126.597       67.334    16236.737    16026.839     4533.899       13.985        1.840      484.587       77.045        0.025      335.306        5.850      850.478
12/18/2013  23:53:00     -224.193      305.564      -50.971      149.166      147.759       92.103    22250.570    21832.580     8482.910        9.939        2.628      378.988      103.175        0.074      335.313        5.859      850.466
12/18/2013  23:54:00     -188.230      284.548      -46.518      131.624      117.131       69.367    17324.987    13719.686     4811.757        7.720        1.793      341.171       79.619        0.054      335.311        5.858      850.436
12/18/2013  23:55:00     -175.144      299.406      -38.613      141.344      139.185       86.070    19978.078    19372.455     7408.074        8.428        2.338      346.870       89.290        0.066      335.261        5.775      850.407
12/18/2013  23:56:00     -204.078      257.422      -50.799      129.553      158.309       73.581    16783.993    25061.768     5414.172        7.887        2.363      328.502       89.160        0.074      335.279        5.804      850.399
12/18/2013  23:57:00     -227.409      232.019      -46.740      102.669      120.476       62.396    10540.985    14514.418     3893.308        6.834        1.447      324.881       54.823        0.028      335.275        5.796      850.407
12/18/2013  23:58:00     -214.780      210.823      -41.728      121.911       93.069       54.391    14862.192     8661.865     2958.356        5.940        1.324      300.959       59.622        0.039      335.274        5.795      850.398
12/18/2013  23:59:00     -222.658      221.867      -37.264      105.827      148.333       74.476    11199.313    22002.794     5546.609        6.946        1.937      314.327       76.098        0.059      335.265        5.781      850.397
